[[{"header":{"parameterUnit":"m.s-1","parameterCategory":1,"la1":31.0,"la2":29.5877,"lo1":-88.7671,"lo2":-86.6584,"dy":0.0162,"dx":0.0185,"nx":115,"ny":88,"refTime":"2023-10-23T12:00:00:Z","depth":0,"parameterNumber":2,"parameterNumberName":"U-component_of_WINDS"},"data":[0.0,0.0,0.0,0.0,0.0,0.0,0.0,0.0,0.0,0.0,0.0,0.0,0.0,0.0,0.0,0.0,0.0,0.0,0.0,0.0,0.0,0.0,0.0,0.0,0.0,0.0,0.0,0.0,0.0,0.0,0.0,0.0,0.0,0.0,0.0,0.0,0.0,0.0,0.0,0.0,0.0,0.0,0.0,0.0,0.0,0.0,0.0,0.0,0.0,0.0,0.0,0.0,0.0,0.0,0.0,0.0,0.0,0.0,0.0,0.0,0.0,0.0,0.0,0.0,0.0,0.0,0.0,0.0,0.0,0.0,0.0,0.0,0.0,0.0,0.0,0.0,0.0,0.0,0.0,0.0,0.0,0.0,0.0,0.0,0.0,0.0,0.0,0.0,0.0,0.0,0.0,0.0,0.0,0.0,0.0,0.0,0.0,0.0,0.0,0.0,0.0,0.0,0.0,0.0,0.0,0.0,0.0,0.0,0.0,0.0,0.0,0.0,0.0,0.0,0.0,0.0,0.0,0.0,0.0,0.0,0.0,0.0,0.0,0.0,0.0,0.0,0.0,0.0,0.0,0.0,0.0,0.0,0.0,0.0,0.0,0.0,0.0,0.0,0.0,0.0,0.0,0.0,0.0,0.0,0.0,0.0,0.0,0.0,0.0,0.0,0.0,0.0,0.0,0.0,0.0,0.0,0.0,0.0,0.0,0.0,0.0,0.0,0.0,0.0,0.0,0.0,0.0,0.0,0.0,0.0,0.0,0.0,0.0,0.0,0.0,0.0,0.0,0.0,0.0,0.0,0.0,0.0,0.0,0.0,0.0,0.0,0.0,0.0,0.0,0.0,0.0,0.0,0.0,0.0,0.0,0.0,0.0,0.0,0.0,0.0,0.0,0.0,0.0,0.0,0.0,0.0,0.0,0.0,0.0,0.0,0.0,0.0,0.0,0.0,0.0,0.0,0.0,0.0,0.0,0.0,0.0,0.0,0.0,0.0,0.0,0.0,0.0,0.0,0.0,0.0,0.0,0.0,0.0,0.0,0.0,0.0,0.0,0.0,0.0,0.0,0.0,0.0,0.0,0.0,0.0,0.0,0.0,0.0,0.0,0.0,0.0,0.0,0.0,0.0,0.0,0.0,0.0,0.0,0.0,0.0,0.0,0.0,0.0,0.0,0.0,0.0,0.0,0.0,0.0,0.0,0.0,0.0,0.0,0.0,0.0,0.0,0.0,0.0,0.0,0.0,0.0,0.0,0.0,0.0,0.0,0.0,0.0,0.0,0.0,0.0,0.0,0.0,0.0,0.0,0.0,0.0,0.0,0.0,0.0,0.0,0.0,0.0,0.0,0.0,0.0,0.0,0.0,0.0,0.0,0.0,0.0,0.0,0.0,0.0,0.0,0.0,0.0,0.0,0.0,0.0,0.0,0.0,0.0,0.0,0.0,0.0,0.0,0.0,0.0,0.0,0.0,0.0,0.0,0.0,0.0,0.0,0.0,0.0,0.0,0.0,0.0,0.0,0.0,0.0,0.0,0.0,0.0,0.0,0.0,0.0,0.0,0.0,0.0,0.0,0.0,0.0,0.0,0.0,0.0,0.0,0.0,0.0,0.0,0.0,0.0,0.0,0.0,0.0,0.0,0.0,0.0,0.0,0.0,0.0,0.0,0.0,0.0,0.0,0.0,0.0,0.0,0.0,0.0,0.0,0.0,0.0,0.0,0.0,0.0,0.0,0.0,0.0,0.0,0.0,0.0,0.0,0.0,0.0,0.0,0.0,0.0,0.0,0.0,0.0,0.0,0.0,0.0,0.0,0.0,0.0,0.0,0.0,0.0,0.0,0.0,0.0,0.0,0.0,0.0,0.0,0.0,0.0,0.0,0.0,0.0,0.0,0.0,0.0,0.0,0.0,0.0,0.0,0.0,0.0,0.0,0.0,0.0,0.0,0.0,0.0,0.0,0.0,0.0,0.0,0.0,0.0,0.0,0.0,0.0,0.0,0.0,0.0,0.0,0.0,0.0,0.0,0.0,0.0,0.0,0.0,0.0,0.0,0.0,0.0,0.0,0.0,0.0,0.0,0.0,0.0,0.0,0.0,0.0,0.0,0.0,0.0,0.0,0.0,0.0,0.0,0.0,0.0,0.0,0.0,0.0,0.0,0.0,0.0,0.0,0.0,0.0,0.0,0.0,0.0,0.0,0.0,0.0,0.0,0.0,0.0,0.0,0.0,0.0,0.0,0.0,0.0,0.0,0.0,0.0,0.0,0.0,0.0,0.0,0.0,0.0,0.0,0.0,0.0,0.0,0.0,0.0,0.0,0.0,0.0,0.0,0.0,0.0,0.0,0.0,0.0,0.0,0.0,0.0,0.0,0.0,0.0,0.0,0.0,0.0,0.0,0.0,0.0,0.0,0.0,0.0,0.0,0.0,0.0,0.0,0.0,0.0,0.0,0.0,0.0,0.0,0.0,0.0,0.0,0.0,0.0,0.0,0.0,0.0,0.0,0.0,0.0,0.0,0.0,0.0,0.0,0.0,0.0,0.0,0.0,0.0,0.0,0.0,0.0,0.0,0.0,0.0,0.0,0.0,0.0,0.0,0.0,0.0,0.0,0.0,0.0,0.0,0.0,0.0,0.0,0.0,0.0,0.0,0.0,0.0,0.0,0.0,0.0,0.0,0.0,0.0,0.0,0.0,0.0,0.0,0.0,0.0,0.0,0.0,0.0,0.0,0.0,0.0,0.0,0.0,0.0,0.0,0.0,0.0,0.0,0.0,0.0,0.0,0.0,0.0,0.0,0.0,0.0,0.0,0.0,0.0,0.0,0.0,0.0,0.0,0.0,0.0,0.0,0.0,0.0,0.0,0.0,0.0,0.0,0.0,0.0,0.0,0.0,0.0,0.0,0.0,0.0,0.0,0.0,0.0,0.0,0.0,0.0,0.0,0.0,0.0,0.0,0.0,0.0,0.0,0.0,0.0,0.0,0.0,0.0,0.0,0.0,0.0,0.0,0.0,0.0,0.0,0.0,0.0,0.0,0.0,0.0,0.0,0.0,0.0,0.0,0.0,0.0,0.0,0.0,0.0,0.0,0.0,0.0,0.0,0.0,0.0,0.0,0.0,0.0,0.0,0.0,0.0,0.0,0.0,0.0,0.0,0.0,0.0,0.0,0.0,0.0,0.0,0.0,0.0,0.0,0.0,0.0,0.0,0.0,0.0,0.0,0.0,0.0,0.0,0.0,0.0,0.0,0.0,0.0,0.0,0.0,0.0,0.0,0.0,0.0,0.0,0.0,0.0,0.0,0.0,0.0,0.0,0.0,0.0,0.0,0.0,0.0,0.0,0.0,0.0,0.0,0.0,0.0,0.0,0.0,0.0,0.0,0.0,0.0,0.0,0.0,0.0,0.0,0.0,0.0,0.0,0.0,0.0,0.0,0.0,0.0,0.0,0.0,0.0,0.0,0.0,0.0,0.0,0.0,0.0,0.0,0.0,0.0,0.0,0.0,0.0,0.0,0.0,0.0,0.0,0.0,0.0,0.0,0.0,0.0,0.0,0.0,0.0,0.0,0.0,0.0,0.0,0.0,0.0,0.0,0.0,0.0,0.0,0.0,0.0,0.0,0.0,0.0,0.0,0.0,0.0,0.0,0.0,0.0,0.0,0.0,0.0,0.0,0.0,0.0,0.0,0.0,0.0,0.0,0.0,0.0,0.0,0.0,0.0,0.0,0.0,0.0,0.0,0.0,0.0,0.0,0.0,0.0,0.0,0.0,0.0,0.0,0.0,0.0,0.0,0.0,0.0,0.0,0.0,0.0,0.0,0.0,0.0,0.0,0.0,0.0,0.0,0.0,0.0,0.0,0.0,0.0,0.0,0.0,0.0,0.0,0.0,0.0,0.0,0.0,0.0,0.0,0.0,0.0,0.0,0.0,0.0,0.0,0.0,0.0,0.0,0.0,0.0,0.0,0.0,0.0,0.0,0.0,0.0,0.0,0.0,0.0,0.0,0.0,0.0,0.0,0.0,0.0,0.0,0.0,0.0,0.0,0.0,0.0,0.0,0.0,0.0,0.0,0.0,0.0,0.0,0.0,0.0,0.0,0.0,0.0,0.0,0.0,0.0,0.0,0.0,0.0,0.0,0.0,0.0,0.0,0.0,0.0,0.0,0.0,0.0,0.0,0.0,0.0,0.0,0.0,0.0,0.0,0.0,0.0,0.0,0.0,0.0,0.0,0.0,0.0,0.0,0.0,0.0,0.0,0.0,0.0,0.0,0.0,0.0,0.0,-2.934,0.0,0.0,0.0,0.0,0.0,0.0,0.0,0.0,0.0,0.0,0.0,0.0,0.0,0.0,0.0,0.0,0.0,0.0,0.0,0.0,0.0,0.0,0.0,0.0,0.0,0.0,0.0,0.0,0.0,0.0,0.0,0.0,0.0,0.0,0.0,0.0,0.0,0.0,0.0,0.0,0.0,0.0,0.0,0.0,0.0,0.0,0.0,0.0,0.0,0.0,0.0,0.0,0.0,0.0,0.0,0.0,0.0,0.0,0.0,0.0,0.0,0.0,0.0,0.0,0.0,0.0,0.0,0.0,0.0,0.0,0.0,0.0,0.0,0.0,0.0,0.0,0.0,0.0,0.0,0.0,0.0,0.0,0.0,0.0,0.0,0.0,0.0,0.0,0.0,0.0,0.0,0.0,0.0,0.0,0.0,0.0,0.0,0.0,0.0,0.0,0.0,0.0,0.0,0.0,0.0,0.0,0.0,0.0,0.0,0.0,-3.213,-3.138,-3.1312,-3.0995,-3.0182,0.0,0.0,0.0,0.0,0.0,0.0,0.0,0.0,0.0,0.0,0.0,0.0,0.0,0.0,0.0,0.0,0.0,0.0,0.0,0.0,0.0,0.0,0.0,0.0,0.0,0.0,0.0,0.0,0.0,0.0,0.0,0.0,0.0,0.0,0.0,0.0,0.0,0.0,0.0,0.0,0.0,0.0,0.0,0.0,0.0,0.0,0.0,0.0,0.0,0.0,0.0,0.0,0.0,0.0,0.0,0.0,0.0,0.0,0.0,0.0,0.0,0.0,0.0,0.0,0.0,0.0,0.0,0.0,0.0,0.0,0.0,0.0,0.0,0.0,0.0,0.0,0.0,0.0,0.0,0.0,0.0,0.0,0.0,0.0,0.0,0.0,0.0,0.0,0.0,0.0,0.0,0.0,0.0,0.0,0.0,0.0,0.0,0.0,0.0,0.0,0.0,0.0,0.0,0.0,0.0,0.0,0.0,0.0,0.0,0.0,0.0,0.0,-3.2247,-3.1886,-3.1115,0.0,0.0,0.0,0.0,0.0,0.0,0.0,0.0,0.0,0.0,0.0,0.0,0.0,0.0,0.0,0.0,0.0,0.0,0.0,0.0,0.0,0.0,0.0,0.0,0.0,0.0,0.0,0.0,0.0,0.0,0.0,0.0,0.0,0.0,0.0,0.0,0.0,0.0,0.0,0.0,0.0,0.0,0.0,0.0,0.0,0.0,0.0,0.0,0.0,0.0,0.0,0.0,0.0,0.0,0.0,0.0,0.0,0.0,0.0,0.0,0.0,0.0,0.0,0.0,0.0,0.0,0.0,0.0,0.0,0.0,0.0,0.0,0.0,0.0,0.0,0.0,0.0,0.0,0.0,0.0,0.0,0.0,0.0,0.0,0.0,0.0,0.0,0.0,0.0,0.0,0.0,0.0,0.0,0.0,0.0,0.0,0.0,0.0,0.0,0.0,0.0,0.0,0.0,0.0,0.0,0.0,0.0,0.0,0.0,0.0,-3.374,-3.3789,-3.3766,0.0,-3.1697,0.0,0.0,0.0,0.0,0.0,0.0,0.0,0.0,0.0,0.0,0.0,0.0,0.0,0.0,0.0,0.0,0.0,0.0,0.0,0.0,0.0,0.0,0.0,0.0,0.0,0.0,0.0,0.0,0.0,0.0,0.0,0.0,0.0,0.0,0.0,0.0,0.0,0.0,0.0,0.0,0.0,0.0,0.0,0.0,0.0,0.0,0.0,0.0,0.0,0.0,0.0,0.0,0.0,0.0,0.0,0.0,0.0,0.0,0.0,0.0,0.0,0.0,0.0,0.0,0.0,0.0,0.0,0.0,0.0,0.0,0.0,0.0,0.0,0.0,0.0,0.0,0.0,0.0,0.0,0.0,0.0,0.0,0.0,0.0,0.0,0.0,0.0,0.0,0.0,0.0,0.0,0.0,0.0,0.0,0.0,0.0,0.0,0.0,0.0,0.0,0.0,0.0,0.0,0.0,0.0,0.0,0.0,0.0,0.0,0.0,-3.4354,-3.3597,-3.3284,-3.2659,0.0,0.0,0.0,0.0,0.0,0.0,0.0,0.0,0.0,0.0,0.0,0.0,0.0,0.0,0.0,0.0,0.0,0.0,0.0,0.0,0.0,0.0,0.0,0.0,0.0,0.0,0.0,0.0,0.0,0.0,0.0,0.0,0.0,0.0,0.0,0.0,0.0,0.0,0.0,0.0,0.0,0.0,0.0,0.0,0.0,0.0,0.0,0.0,0.0,0.0,0.0,0.0,0.0,0.0,0.0,0.0,0.0,0.0,0.0,0.0,0.0,0.0,0.0,0.0,0.0,0.0,0.0,0.0,0.0,0.0,0.0,0.0,0.0,0.0,0.0,0.0,0.0,0.0,0.0,0.0,0.0,0.0,0.0,0.0,0.0,0.0,0.0,0.0,0.0,0.0,0.0,0.0,0.0,0.0,0.0,0.0,0.0,0.0,0.0,0.0,0.0,0.0,0.0,0.0,0.0,0.0,0.0,0.0,0.0,0.0,-3.6063,-3.5176,-3.4004,-3.3428,-3.2683,-3.1741,0.0,0.0,0.0,0.0,0.0,0.0,0.0,0.0,0.0,0.0,0.0,0.0,0.0,0.0,0.0,0.0,0.0,0.0,0.0,0.0,0.0,0.0,0.0,0.0,0.0,0.0,0.0,0.0,0.0,0.0,0.0,0.0,0.0,0.0,0.0,0.0,0.0,0.0,0.0,0.0,0.0,0.0,0.0,0.0,0.0,0.0,0.0,0.0,0.0,0.0,0.0,0.0,0.0,0.0,0.0,0.0,0.0,0.0,0.0,0.0,0.0,0.0,0.0,0.0,0.0,0.0,0.0,0.0,0.0,0.0,0.0,0.0,0.0,0.0,0.0,0.0,0.0,0.0,0.0,0.0,0.0,0.0,0.0,0.0,0.0,0.0,0.0,0.0,0.0,0.0,0.0,0.0,0.0,0.0,0.0,0.0,0.0,0.0,0.0,0.0,0.0,0.0,0.0,0.0,0.0,0.0,0.0,0.0,-3.9615,-3.7655,-3.6261,-3.5498,-3.4943,-3.3765,0.0,0.0,0.0,0.0,0.0,0.0,0.0,0.0,0.0,0.0,0.0,0.0,0.0,0.0,0.0,0.0,0.0,0.0,0.0,0.0,0.0,0.0,0.0,0.0,0.0,0.0,0.0,0.0,0.0,0.0,0.0,0.0,0.0,0.0,0.0,0.0,0.0,0.0,0.0,0.0,0.0,0.0,0.0,0.0,0.0,0.0,0.0,0.0,0.0,0.0,0.0,0.0,0.0,0.0,0.0,0.0,0.0,0.0,0.0,0.0,0.0,0.0,0.0,0.0,0.0,0.0,0.0,0.0,0.0,0.0,0.0,0.0,0.0,0.0,0.0,0.0,0.0,0.0,0.0,0.0,0.0,0.0,0.0,0.0,0.0,0.0,0.0,0.0,0.0,0.0,0.0,0.0,0.0,0.0,0.0,0.0,0.0,0.0,0.0,0.0,0.0,0.0,0.0,0.0,0.0,0.0,0.0,0.0,0.0,-3.6418,-3.542,-3.5524,-3.6509,-3.4511,-3.314,0.0,0.0,0.0,0.0,0.0,0.0,0.0,0.0,0.0,0.0,0.0,0.0,0.0,0.0,0.0,0.0,0.0,0.0,0.0,0.0,0.0,0.0,0.0,0.0,0.0,0.0,0.0,0.0,0.0,0.0,0.0,0.0,0.0,0.0,0.0,0.0,0.0,0.0,0.0,0.0,0.0,0.0,0.0,0.0,0.0,0.0,0.0,0.0,0.0,0.0,0.0,0.0,0.0,0.0,0.0,0.0,0.0,0.0,0.0,0.0,0.0,0.0,0.0,0.0,0.0,0.0,0.0,0.0,0.0,0.0,0.0,0.0,0.0,0.0,0.0,0.0,0.0,0.0,0.0,0.0,0.0,0.0,0.0,0.0,0.0,0.0,0.0,0.0,0.0,0.0,0.0,0.0,0.0,0.0,0.0,0.0,0.0,0.0,0.0,0.0,0.0,0.0,0.0,0.0,0.0,0.0,0.0,0.0,0.0,-3.5538,0.0,-3.5521,-3.629,-3.4222,-3.2779,0.0,0.0,0.0,0.0,0.0,0.0,0.0,0.0,0.0,0.0,0.0,0.0,0.0,0.0,0.0,0.0,0.0,0.0,0.0,0.0,0.0,0.0,0.0,0.0,0.0,0.0,0.0,0.0,0.0,0.0,0.0,0.0,0.0,0.0,0.0,0.0,0.0,0.0,0.0,0.0,0.0,0.0,0.0,0.0,0.0,0.0,0.0,0.0,0.0,0.0,0.0,0.0,0.0,0.0,0.0,0.0,0.0,0.0,0.0,0.0,0.0,0.0,0.0,0.0,0.0,0.0,0.0,0.0,0.0,0.0,0.0,0.0,0.0,0.0,0.0,0.0,0.0,0.0,0.0,0.0,0.0,0.0,0.0,0.0,0.0,0.0,0.0,0.0,0.0,0.0,0.0,0.0,0.0,0.0,0.0,0.0,0.0,0.0,0.0,0.0,0.0,0.0,0.0,0.0,0.0,0.0,0.0,0.0,-3.8048,-3.7684,-3.7295,-3.6362,-3.4944,-3.4318,-3.2803,0.0,0.0,0.0,0.0,0.0,0.0,0.0,0.0,0.0,0.0,0.0,0.0,0.0,0.0,0.0,0.0,0.0,0.0,0.0,0.0,0.0,0.0,0.0,0.0,0.0,0.0,0.0,0.0,0.0,0.0,0.0,0.0,0.0,0.0,0.0,0.0,0.0,0.0,0.0,0.0,0.0,0.0,0.0,0.0,0.0,0.0,0.0,0.0,0.0,0.0,0.0,0.0,0.0,0.0,0.0,0.0,0.0,0.0,0.0,0.0,0.0,0.0,0.0,0.0,0.0,0.0,0.0,0.0,0.0,0.0,0.0,0.0,0.0,0.0,0.0,0.0,0.0,0.0,0.0,0.0,0.0,0.0,0.0,0.0,0.0,0.0,0.0,0.0,0.0,0.0,0.0,0.0,0.0,0.0,0.0,0.0,0.0,0.0,0.0,0.0,0.0,0.0,0.0,0.0,0.0,0.0,0.0,0.0,0.0,-3.6366,-3.6202,-3.6319,-3.664,-3.4655,-3.3308,0.0,0.0,0.0,0.0,0.0,0.0,0.0,0.0,0.0,0.0,0.0,0.0,0.0,0.0,0.0,0.0,0.0,0.0,0.0,0.0,0.0,0.0,0.0,0.0,0.0,0.0,0.0,0.0,0.0,0.0,0.0,0.0,0.0,0.0,0.0,0.0,0.0,0.0,0.0,0.0,0.0,0.0,0.0,0.0,0.0,0.0,0.0,0.0,0.0,0.0,0.0,0.0,0.0,0.0,0.0,0.0,0.0,0.0,0.0,0.0,0.0,0.0,0.0,0.0,0.0,0.0,0.0,0.0,0.0,0.0,0.0,0.0,0.0,0.0,0.0,0.0,0.0,0.0,0.0,0.0,0.0,0.0,0.0,0.0,0.0,0.0,0.0,0.0,0.0,0.0,0.0,0.0,0.0,0.0,0.0,0.0,0.0,0.0,0.0,0.0,0.0,0.0,0.0,0.0,0.0,0.0,0.0,0.0,0.0,-3.6389,-3.6652,-3.6991,-3.7463,-3.5137,-3.3621,-3.3116,0.0,0.0,0.0,0.0,0.0,0.0,0.0,0.0,0.0,0.0,0.0,0.0,0.0,0.0,0.0,0.0,0.0,0.0,0.0,0.0,0.0,0.0,0.0,0.0,0.0,0.0,0.0,0.0,0.0,0.0,0.0,0.0,0.0,0.0,0.0,0.0,0.0,0.0,0.0,0.0,0.0,0.0,0.0,0.0,0.0,0.0,0.0,0.0,0.0,0.0,0.0,0.0,0.0,0.0,0.0,0.0,0.0,0.0,0.0,0.0,0.0,0.0,0.0,0.0,0.0,0.0,0.0,0.0,0.0,0.0,0.0,0.0,0.0,0.0,0.0,0.0,0.0,0.0,0.0,0.0,0.0,0.0,0.0,0.0,0.0,0.0,0.0,0.0,0.0,0.0,0.0,0.0,0.0,0.0,0.0,0.0,0.0,0.0,0.0,0.0,0.0,0.0,0.0,0.0,0.0,0.0,0.0,0.0,-3.7571,-3.8439,-3.8431,-3.7473,-3.5785,-3.3958,0.0,0.0,0.0,0.0,0.0,0.0,0.0,0.0,0.0,0.0,0.0,0.0,0.0,0.0,0.0,0.0,0.0,0.0,0.0,0.0,0.0,0.0,0.0,0.0,0.0,0.0,0.0,0.0,0.0,0.0,0.0,0.0,0.0,0.0,0.0,0.0,0.0,0.0,0.0,0.0,0.0,0.0,0.0,0.0,0.0,0.0,0.0,0.0,0.0,0.0,0.0,0.0,0.0,0.0,0.0,0.0,0.0,0.0,0.0,0.0,0.0,0.0,0.0,0.0,0.0,0.0,0.0,0.0,0.0,0.0,0.0,0.0,0.0,0.0,0.0,0.0,0.0,0.0,0.0,0.0,0.0,0.0,0.0,0.0,0.0,0.0,0.0,0.0,0.0,0.0,0.0,0.0,0.0,0.0,0.0,0.0,0.0,0.0,0.0,0.0,0.0,0.0,0.0,0.0,0.0,0.0,0.0,0.0,0.0,-3.8491,-3.9487,-3.9937,-3.9819,-3.7332,-3.5376,0.0,0.0,0.0,0.0,0.0,0.0,0.0,0.0,0.0,0.0,0.0,0.0,0.0,0.0,0.0,0.0,0.0,0.0,0.0,0.0,0.0,0.0,0.0,0.0,0.0,0.0,0.0,0.0,0.0,0.0,0.0,0.0,0.0,0.0,0.0,0.0,0.0,0.0,0.0,0.0,0.0,0.0,0.0,0.0,0.0,0.0,0.0,0.0,0.0,0.0,0.0,0.0,0.0,0.0,0.0,0.0,0.0,0.0,0.0,0.0,0.0,0.0,0.0,0.0,0.0,0.0,0.0,0.0,0.0,0.0,0.0,0.0,0.0,0.0,0.0,0.0,0.0,0.0,0.0,0.0,0.0,0.0,0.0,0.0,0.0,0.0,0.0,0.0,0.0,0.0,0.0,0.0,0.0,0.0,0.0,0.0,0.0,0.0,0.0,0.0,0.0,0.0,0.0,0.0,0.0,0.0,0.0,0.0,-3.6949,-3.88,-3.9843,-4.0305,-4.0131,-3.8036,-3.5736,0.0,0.0,0.0,0.0,0.0,0.0,0.0,0.0,0.0,0.0,0.0,0.0,0.0,0.0,0.0,0.0,0.0,0.0,0.0,0.0,0.0,0.0,0.0,0.0,0.0,0.0,0.0,0.0,0.0,0.0,0.0,0.0,0.0,0.0,0.0,0.0,0.0,0.0,0.0,0.0,0.0,0.0,0.0,0.0,0.0,0.0,0.0,0.0,0.0,0.0,0.0,0.0,0.0,0.0,0.0,0.0,0.0,0.0,0.0,0.0,0.0,0.0,0.0,0.0,0.0,0.0,0.0,0.0,0.0,0.0,0.0,0.0,0.0,0.0,0.0,0.0,0.0,0.0,0.0,0.0,0.0,0.0,0.0,0.0,0.0,0.0,0.0,0.0,0.0,0.0,0.0,0.0,0.0,0.0,0.0,0.0,0.0,0.0,0.0,0.0,0.0,0.0,0.0,0.0,0.0,0.0,0.0,0.0,-3.6867,-3.8936,-3.997,-4.0063,-3.9121,-3.8045,-3.5611,0.0,0.0,0.0,0.0,0.0,0.0,0.0,0.0,0.0,0.0,0.0,0.0,0.0,0.0,0.0,0.0,0.0,0.0,0.0,0.0,0.0,0.0,0.0,0.0,0.0,0.0,0.0,0.0,0.0,0.0,0.0,0.0,0.0,0.0,0.0,0.0,0.0,0.0,0.0,0.0,0.0,0.0,0.0,0.0,0.0,0.0,0.0,0.0,0.0,0.0,0.0,0.0,0.0,0.0,0.0,0.0,0.0,0.0,0.0,0.0,0.0,0.0,0.0,0.0,0.0,0.0,0.0,0.0,0.0,0.0,0.0,0.0,0.0,0.0,0.0,0.0,0.0,0.0,0.0,0.0,0.0,0.0,0.0,0.0,0.0,0.0,0.0,0.0,0.0,0.0,0.0,0.0,0.0,0.0,0.0,0.0,0.0,0.0,0.0,0.0,0.0,0.0,0.0,0.0,0.0,0.0,0.0,0.0,-3.831,-4.0018,-4.0691,-4.0177,-3.8404,-3.7879,-3.5901,0.0,0.0,0.0,0.0,0.0,0.0,0.0,0.0,0.0,0.0,0.0,0.0,0.0,0.0,0.0,0.0,0.0,0.0,0.0,0.0,0.0,0.0,0.0,0.0,0.0,0.0,0.0,0.0,0.0,0.0,0.0,0.0,0.0,0.0,0.0,0.0,0.0,0.0,0.0,0.0,0.0,0.0,0.0,0.0,0.0,0.0,0.0,0.0,-3.605,0.0,0.0,0.0,0.0,0.0,0.0,0.0,0.0,0.0,0.0,0.0,0.0,0.0,0.0,0.0,0.0,0.0,0.0,0.0,0.0,0.0,0.0,0.0,0.0,0.0,0.0,0.0,0.0,0.0,0.0,0.0,0.0,0.0,0.0,0.0,0.0,0.0,0.0,0.0,0.0,0.0,0.0,0.0,0.0,0.0,0.0,0.0,0.0,0.0,0.0,0.0,0.0,0.0,0.0,0.0,0.0,0.0,0.0,0.0,-3.9513,-4.1076,-4.1046,-4.0094,-3.817,-3.7347,-3.5128,0.0,0.0,0.0,0.0,0.0,0.0,0.0,0.0,0.0,0.0,0.0,0.0,0.0,0.0,0.0,0.0,0.0,0.0,0.0,0.0,0.0,0.0,0.0,0.0,0.0,0.0,0.0,0.0,0.0,0.0,0.0,0.0,0.0,0.0,0.0,0.0,0.0,0.0,0.0,0.0,0.0,0.0,0.0,0.0,0.0,0.0,0.0,0.0,0.0,0.0,0.0,0.0,0.0,0.0,0.0,0.0,0.0,0.0,0.0,0.0,0.0,0.0,0.0,0.0,0.0,0.0,0.0,0.0,0.0,0.0,0.0,0.0,0.0,0.0,0.0,0.0,0.0,0.0,0.0,0.0,0.0,0.0,0.0,0.0,0.0,0.0,0.0,0.0,0.0,0.0,0.0,0.0,0.0,0.0,0.0,0.0,0.0,0.0,0.0,0.0,0.0,0.0,0.0,0.0,0.0,0.0,0.0,-3.8599,-4.0379,-4.2134,-4.1238,-3.9914,-3.8262,-3.6749,-3.4167,-3.035,0.0,0.0,0.0,0.0,0.0,0.0,0.0,0.0,0.0,0.0,0.0,0.0,0.0,0.0,0.0,0.0,0.0,0.0,0.0,0.0,0.0,0.0,0.0,0.0,0.0,0.0,0.0,0.0,0.0,0.0,0.0,0.0,0.0,0.0,0.0,0.0,0.0,0.0,-3.3982,-3.6026,0.0,0.0,0.0,0.0,0.0,0.0,0.0,0.0,-3.8599,0.0,0.0,0.0,0.0,0.0,0.0,0.0,0.0,0.0,0.0,0.0,0.0,0.0,0.0,0.0,0.0,0.0,0.0,0.0,0.0,0.0,0.0,0.0,0.0,0.0,0.0,0.0,0.0,0.0,0.0,0.0,0.0,0.0,0.0,0.0,0.0,0.0,0.0,0.0,0.0,0.0,0.0,0.0,0.0,0.0,0.0,0.0,0.0,0.0,0.0,0.0,0.0,0.0,0.0,0.0,0.0,-3.9008,-3.9008,-4.0355,-4.3168,-4.1588,-4.0072,-3.8784,-3.6981,-3.4167,-3.0447,0.0,0.0,0.0,0.0,0.0,0.0,0.0,0.0,0.0,0.0,0.0,0.0,0.0,0.0,0.0,0.0,0.0,0.0,0.0,0.0,0.0,0.0,0.0,0.0,0.0,0.0,0.0,0.0,0.0,0.0,0.0,0.0,0.0,0.0,0.0,0.0,0.0,0.0,0.0,-3.8094,-3.9272,0.0,0.0,0.0,0.0,0.0,0.0,0.0,0.0,-3.8864,0.0,0.0,0.0,0.0,0.0,0.0,0.0,0.0,0.0,0.0,0.0,0.0,0.0,0.0,0.0,0.0,0.0,0.0,0.0,0.0,0.0,0.0,0.0,0.0,0.0,0.0,0.0,0.0,0.0,0.0,0.0,0.0,0.0,0.0,0.0,0.0,0.0,0.0,0.0,0.0,0.0,0.0,0.0,0.0,0.0,0.0,0.0,0.0,0.0,0.0,0.0,0.0,0.0,0.0,0.0,-3.7489,-3.8113,-3.9451,-4.1639,-4.0018,-3.8696,-3.7762,-3.5129,-3.2376,0.0,0.0,0.0,0.0,0.0,0.0,0.0,0.0,0.0,0.0,0.0,0.0,0.0,0.0,0.0,0.0,0.0,0.0,0.0,0.0,0.0,0.0,0.0,0.0,0.0,0.0,0.0,0.0,0.0,0.0,0.0,0.0,0.0,0.0,0.0,0.0,0.0,0.0,0.0,0.0,-3.8166,-3.9393,-3.9946,0.0,0.0,0.0,0.0,0.0,0.0,-3.8864,-3.9128,0.0,0.0,0.0,0.0,0.0,0.0,0.0,0.0,0.0,0.0,0.0,0.0,0.0,0.0,0.0,0.0,0.0,0.0,0.0,0.0,0.0,0.0,0.0,0.0,0.0,0.0,0.0,0.0,0.0,0.0,0.0,0.0,0.0,0.0,0.0,0.0,0.0,0.0,0.0,0.0,0.0,0.0,0.0,0.0,0.0,0.0,0.0,0.0,0.0,0.0,0.0,0.0,0.0,0.0,0.0,-3.553,-3.6964,-3.8448,-4.0018,-3.846,-3.7283,-3.6765,-3.3593,-3.0918,0.0,0.0,0.0,0.0,0.0,0.0,0.0,0.0,0.0,0.0,0.0,0.0,0.0,0.0,0.0,0.0,0.0,0.0,0.0,0.0,0.0,0.0,0.0,0.0,0.0,0.0,0.0,0.0,0.0,0.0,0.0,0.0,0.0,0.0,0.0,0.0,0.0,0.0,0.0,0.0,0.0,-3.9729,-4.0018,-4.0066,0.0,0.0,0.0,0.0,-3.8527,-3.9242,0.0,0.0,0.0,0.0,0.0,0.0,0.0,0.0,0.0,0.0,0.0,0.0,0.0,0.0,0.0,0.0,0.0,0.0,0.0,0.0,0.0,0.0,0.0,0.0,0.0,0.0,0.0,0.0,0.0,0.0,0.0,0.0,0.0,0.0,0.0,0.0,0.0,0.0,0.0,0.0,0.0,0.0,0.0,0.0,0.0,0.0,0.0,0.0,0.0,0.0,0.0,0.0,0.0,0.0,0.0,0.0,-3.4493,-3.5918,-3.7754,-3.9974,-3.846,-3.7283,-3.6786,-3.4452,-3.1735,0.0,0.0,0.0,0.0,0.0,0.0,0.0,0.0,0.0,0.0,0.0,0.0,0.0,0.0,0.0,0.0,0.0,0.0,0.0,0.0,0.0,0.0,0.0,0.0,0.0,0.0,0.0,0.0,0.0,0.0,0.0,0.0,0.0,0.0,0.0,0.0,0.0,0.0,0.0,0.0,0.0,-4.1485,-3.932,-4.0547,-4.1533,0.0,0.0,-4.0186,-4.0138,-4.0392,0.0,0.0,0.0,0.0,0.0,0.0,0.0,0.0,0.0,0.0,0.0,0.0,0.0,0.0,0.0,0.0,0.0,0.0,0.0,0.0,0.0,0.0,0.0,0.0,0.0,0.0,0.0,0.0,0.0,0.0,0.0,0.0,0.0,0.0,0.0,0.0,0.0,0.0,0.0,0.0,0.0,0.0,0.0,0.0,0.0,0.0,0.0,0.0,0.0,0.0,0.0,0.0,0.0,0.0,0.0,-3.0859,-3.3233,-3.4715,-3.6213,-3.7693,-3.6374,-3.554,-3.5321,-3.2552,-3.0064,0.0,0.0,0.0,0.0,0.0,0.0,0.0,0.0,0.0,0.0,0.0,0.0,0.0,0.0,0.0,0.0,0.0,0.0,0.0,0.0,0.0,0.0,0.0,0.0,0.0,0.0,0.0,0.0,0.0,0.0,0.0,0.0,0.0,0.0,0.0,0.0,0.0,0.0,0.0,0.0,0.0,0.0,-3.9417,-4.0412,0.0,0.0,0.0,-4.0248,-4.0502,0.0,0.0,0.0,0.0,0.0,0.0,0.0,0.0,0.0,0.0,0.0,0.0,0.0,0.0,0.0,0.0,0.0,0.0,0.0,0.0,0.0,0.0,0.0,0.0,0.0,0.0,0.0,0.0,0.0,0.0,0.0,0.0,0.0,0.0,0.0,0.0,0.0,0.0,0.0,0.0,0.0,0.0,0.0,0.0,0.0,0.0,0.0,0.0,0.0,0.0,0.0,0.0,0.0,0.0,0.0,0.0,0.0,-3.175,-3.347,-3.4754,-3.5685,-3.4739,-3.4164,-3.4011,-3.1351,0.0,0.0,0.0,0.0,0.0,0.0,0.0,0.0,0.0,0.0,0.0,0.0,0.0,0.0,0.0,0.0,0.0,0.0,0.0,0.0,0.0,0.0,0.0,0.0,0.0,0.0,0.0,-2.4055,0.0,0.0,0.0,0.0,0.0,0.0,0.0,0.0,0.0,0.0,0.0,0.0,0.0,0.0,-3.8039,-3.9073,-3.9825,-4.0246,0.0,0.0,-3.9417,-3.9695,-3.8191,-3.7094,0.0,0.0,0.0,0.0,0.0,0.0,0.0,0.0,0.0,0.0,0.0,0.0,0.0,0.0,0.0,0.0,0.0,0.0,0.0,0.0,0.0,0.0,0.0,0.0,0.0,0.0,0.0,0.0,0.0,0.0,0.0,0.0,0.0,0.0,0.0,0.0,0.0,0.0,0.0,0.0,0.0,0.0,0.0,0.0,0.0,0.0,0.0,0.0,0.0,0.0,0.0,0.0,0.0,0.0,0.0,-3.0117,-3.215,-3.3757,-3.4914,-3.4554,-3.4136,-3.3719,-3.2346,-3.02,0.0,0.0,0.0,0.0,0.0,0.0,0.0,0.0,0.0,0.0,0.0,0.0,0.0,0.0,0.0,0.0,0.0,0.0,0.0,0.0,0.0,0.0,0.0,0.0,0.0,0.0,0.0,0.0,0.0,0.0,0.0,0.0,0.0,0.0,0.0,0.0,0.0,0.0,0.0,0.0,0.0,-3.8018,-3.7339,-3.8631,-3.9462,0.0,0.0,-3.7506,-3.7183,-3.7211,-3.6475,-3.4381,0.0,0.0,0.0,0.0,0.0,0.0,0.0,0.0,0.0,0.0,0.0,0.0,0.0,0.0,0.0,0.0,0.0,0.0,0.0,0.0,0.0,0.0,0.0,0.0,0.0,0.0,0.0,0.0,0.0,0.0,0.0,0.0,0.0,0.0,0.0,0.0,0.0,0.0,0.0,0.0,0.0,0.0,0.0,0.0,0.0,0.0,0.0,0.0,0.0,0.0,0.0,0.0,0.0,-2.7788,-2.8865,-3.0089,-3.1112,-3.1983,-3.1461,-3.1064,-3.0926,-2.9384,-2.7526,0.0,0.0,0.0,0.0,0.0,0.0,0.0,0.0,0.0,0.0,0.0,0.0,0.0,0.0,0.0,0.0,0.0,0.0,0.0,0.0,0.0,0.0,0.0,0.0,0.0,0.0,0.0,0.0,-2.5509,-2.6054,-2.6994,0.0,0.0,0.0,0.0,0.0,0.0,0.0,0.0,0.0,0.0,-3.6877,-3.7307,-3.8081,0.0,0.0,-3.7794,-3.7632,-3.7908,-3.6218,-3.4835,-3.4774,-3.3628,0.0,0.0,0.0,0.0,0.0,0.0,0.0,0.0,0.0,0.0,0.0,0.0,0.0,0.0,0.0,0.0,0.0,0.0,0.0,0.0,0.0,0.0,0.0,0.0,0.0,0.0,0.0,0.0,0.0,0.0,0.0,0.0,0.0,0.0,0.0,0.0,0.0,0.0,0.0,0.0,0.0,0.0,0.0,0.0,0.0,0.0,0.0,0.0,0.0,0.0,0.0,0.0,-2.6338,-2.7503,-2.8279,-2.9139,-2.9955,-2.946,-2.9142,-2.9013,-2.7602,-2.6134,0.0,0.0,0.0,0.0,0.0,0.0,0.0,0.0,0.0,0.0,0.0,0.0,0.0,0.0,0.0,0.0,0.0,0.0,0.0,0.0,0.0,0.0,0.0,0.0,0.0,0.0,0.0,0.0,-2.5128,-2.5618,-2.6342,0.0,0.0,0.0,0.0,0.0,0.0,0.0,0.0,0.0,0.0,-3.5991,-3.6778,-3.7176,-3.7215,-3.6952,-3.6621,-3.6596,-3.693,-3.5139,-3.3856,-3.4286,0.0,0.0,0.0,0.0,0.0,0.0,0.0,0.0,0.0,0.0,0.0,0.0,0.0,0.0,0.0,0.0,0.0,0.0,0.0,0.0,0.0,0.0,0.0,0.0,0.0,0.0,0.0,0.0,0.0,0.0,-2.5298,0.0,0.0,0.0,0.0,0.0,0.0,0.0,0.0,0.0,0.0,0.0,0.0,0.0,0.0,0.0,0.0,0.0,0.0,0.0,0.0,0.0,0.0,-2.4811,-2.5945,-2.7035,-2.8132,-2.9099,-2.9202,-2.8885,-2.8569,-2.7873,-2.678,-2.5125,0.0,0.0,0.0,0.0,0.0,0.0,0.0,0.0,0.0,0.0,0.0,0.0,0.0,0.0,0.0,0.0,0.0,0.0,0.0,0.0,0.0,0.0,0.0,0.0,0.0,0.0,-2.3862,-2.4174,-2.4177,0.0,0.0,0.0,0.0,0.0,0.0,0.0,0.0,0.0,0.0,-3.4382,-3.5577,-3.5687,-3.5687,-3.5668,-3.5191,-3.4508,-3.3845,-3.3582,-3.3992,-3.3886,0.0,0.0,0.0,0.0,0.0,0.0,0.0,0.0,0.0,0.0,0.0,0.0,0.0,0.0,0.0,0.0,0.0,0.0,0.0,0.0,0.0,0.0,0.0,0.0,0.0,0.0,0.0,-2.5124,-2.4386,0.0,0.0,0.0,0.0,0.0,0.0,0.0,0.0,0.0,0.0,0.0,-2.4195,-2.4489,0.0,0.0,0.0,0.0,0.0,0.0,0.0,0.0,0.0,0.0,0.0,0.0,-2.372,-2.4743,-2.512,-2.5626,-2.6123,-2.6137,-2.6095,-2.5909,-2.5186,-2.3965,-2.2256,0.0,0.0,0.0,0.0,0.0,0.0,0.0,0.0,0.0,0.0,0.0,0.0,0.0,0.0,0.0,0.0,0.0,0.0,0.0,0.0,0.0,0.0,0.0,0.0,0.0,-2.1718,0.0,0.0,0.0,0.0,0.0,0.0,0.0,0.0,0.0,0.0,0.0,-3.2384,-3.3988,-3.5485,-3.6439,-3.6421,-3.6421,-3.6384,0.0,0.0,0.0,0.0,0.0,0.0,0.0,0.0,0.0,0.0,0.0,0.0,0.0,0.0,-3.6683,-3.3984,-3.2456,-3.1633,-3.184,0.0,0.0,0.0,0.0,0.0,0.0,0.0,0.0,0.0,0.0,0.0,0.0,0.0,0.0,-2.3273,0.0,-2.2252,0.0,0.0,0.0,0.0,0.0,0.0,0.0,0.0,-2.309,-2.3532,-2.3688,-2.3859,-2.3626,0.0,-2.3467,-2.2632,0.0,0.0,0.0,0.0,0.0,0.0,0.0,0.0,-2.3107,-2.402,-2.4276,-2.4502,-2.477,-2.469,-2.4636,-2.4623,-2.3981,-2.2886,-2.1336,-2.1189,-2.0468,0.0,0.0,0.0,0.0,0.0,0.0,0.0,0.0,0.0,0.0,0.0,0.0,0.0,0.0,0.0,0.0,0.0,0.0,0.0,0.0,0.0,0.0,0.0,-2.0539,0.0,0.0,0.0,0.0,0.0,0.0,0.0,0.0,0.0,-2.9715,-3.0956,-3.2043,-3.3186,-3.4446,-3.5351,-3.5592,0.0,0.0,0.0,0.0,0.0,0.0,0.0,-3.5449,-3.543,-3.5229,-3.4972,-3.466,-3.6182,-3.7206,-3.6714,0.0,0.0,-3.4733,-3.3523,-3.2826,-3.268,-3.2423,-3.2221,-3.2221,-3.2366,-3.2619,0.0,0.0,0.0,0.0,0.0,0.0,0.0,0.0,-2.079,-2.0611,0.0,-2.0554,0.0,0.0,0.0,0.0,0.0,-2.1179,0.0,0.0,-2.1437,-2.1716,-2.1087,-2.1066,-2.0952,-2.093,-2.2504,-2.2627,-2.1507,-2.1124,0.0,0.0,0.0,0.0,0.0,0.0,-2.2873,-2.3825,-2.4356,-2.4783,-2.505,-2.4783,-2.4549,-2.4609,-2.4356,-2.3661,-2.2539,-2.2712,-2.1951,-1.9987,-2.0047,0.0,0.0,0.0,0.0,0.0,0.0,0.0,0.0,0.0,0.0,0.0,0.0,0.0,0.0,0.0,0.0,0.0,0.0,0.0,0.0,-2.0867,0.0,0.0,0.0,0.0,0.0,0.0,0.0,0.0,0.0,0.0,-2.8342,-2.9946,-3.0759,-3.0351,0.0,0.0,0.0,0.0,-3.4505,-3.6464,-3.6474,-3.6236,-3.6311,-3.684,-3.706,-3.6421,0.0,0.0,-3.5449,-3.7023,-3.8048,-3.6604,-3.7264,-3.7869,-3.7352,-3.6311,-3.5449,-3.5064,-3.4348,-3.389,-3.3798,-3.3243,-3.2914,-2.4757,0.0,0.0,0.0,0.0,-2.2865,-2.2772,-2.2818,-2.254,-2.2126,-2.162,-2.1285,0.0,0.0,0.0,0.0,0.0,0.0,-1.9933,-2.019,-2.0597,-2.1047,-2.1511,-2.1194,-2.1009,-2.0938,-2.0878,-2.0607,-2.0093,-1.9297,-1.9739,-2.1323,0.0,0.0,0.0,0.0,-2.318,-2.4048,-2.4663,-2.4997,-2.5077,-2.4796,-2.4529,-2.4342,-2.4449,-2.4155,-2.3407,-2.3474,-2.2939,-2.1724,-2.0895,0.0,0.0,0.0,0.0,0.0,0.0,0.0,0.0,0.0,0.0,0.0,0.0,0.0,0.0,0.0,0.0,0.0,0.0,0.0,-1.9883,-2.0464,-2.1158,0.0,0.0,0.0,0.0,0.0,0.0,0.0,0.0,0.0,-2.6643,-2.8758,-3.0418,0.0,0.0,-3.1848,-3.2395,-3.2539,-3.3476,-3.5877,0.0,0.0,0.0,-3.6546,-3.6111,-3.7654,-3.8144,-3.8218,-3.7975,-3.8146,-3.8097,-3.792,-3.7509,-3.7154,-3.7352,-3.6934,-3.6366,-3.5944,-3.5449,-3.5009,-3.4715,-3.4238,-3.3739,-2.1612,-2.053,-2.2371,-2.2516,-2.1681,-2.1521,-2.1261,-2.0872,-2.0722,-2.0445,-2.015,-1.9811,-1.9377,-1.8733,-1.8758,0.0,0.0,0.0,-1.8348,-1.8569,-1.8497,-1.8605,-1.8934,-1.8709,-1.847,-1.8457,-1.8699,-1.8787,-1.8808,-1.8749,-1.9296,-2.0426,0.0,0.0,-2.0003,-2.1299,-2.2456,-2.3311,-2.4367,-2.498,-2.5251,-2.485,-2.4436,-2.4062,-2.4276,-2.4276,-2.3968,-2.3879,-2.3445,-2.2717,-2.1839,-2.0812,0.0,0.0,0.0,0.0,0.0,0.0,0.0,0.0,0.0,0.0,0.0,-2.1196,-2.0463,0.0,0.0,0.0,-2.0459,-2.06,-2.0759,-2.1422,0.0,0.0,0.0,0.0,0.0,0.0,0.0,-2.5383,-2.5543,-2.564,-2.6081,-2.7529,-2.8698,-2.923,-2.938,-2.9717,-3.0586,0.0,-3.1752,-3.405,-3.4424,-3.4765,-3.5833,-3.4722,-3.4219,-3.5543,-3.6609,-3.7151,-3.7178,-3.7445,-3.7845,-3.795,-3.7528,-3.7072,-3.7162,-3.6954,-3.6652,-3.6087,-3.5686,-3.5267,-3.4867,-3.4378,-3.378,-1.8558,-1.825,-2.1883,-2.2054,-1.99,-1.9643,-1.8626,-1.7143,-1.6845,-1.6787,-1.7054,-1.715,-1.7445,-1.7928,-1.8293,0.0,-1.7026,-1.6927,-1.6534,-1.5824,-1.5683,-1.5279,-1.4792,-1.4778,-1.4686,-1.4529,-1.6026,-1.7019,-1.7483,-1.8458,-1.8811,-1.8327,-1.7281,-1.7005,-1.759,-1.9465,-2.0882,-2.1796,-2.3429,-2.4605,-2.5272,-2.4666,-2.405,-2.3535,-2.3559,-2.3542,-2.3674,-2.3576,-2.3351,-2.2806,-2.2599,-2.1641,-1.9834,0.0,0.0,0.0,0.0,0.0,0.0,0.0,0.0,0.0,0.0,0.0,0.0,0.0,0.0,0.0,-2.1438,0.0,-2.2669,-2.32,0.0,0.0,0.0,-2.3676,-2.4037,-2.4855,-2.5494,-2.5554,0.0,0.0,-2.6351,0.0,-2.6327,-2.5566,-2.5905,-2.6826,-2.8335,-2.8703,-2.9502,-3.1557,-3.1805,-3.1872,-3.2366,-3.2253,-3.2063,-3.1686,-3.3249,-3.4572,-3.4259,-3.5405,-3.6769,-3.7108,-3.717,-3.6993,-3.6798,-3.6666,-3.6448,-3.5599,-3.5335,-3.5026,-3.4643,-3.3927,-3.3465,-1.8476,-1.8424,-1.9389,-1.9227,-1.8277,-1.8188,-1.7765,-1.7173,-1.7098,-1.7039,-1.6986,-1.686,-1.6554,-1.6017,-1.5653,-1.5381,-1.5137,-1.4987,-1.4819,-1.4701,-1.4666,-1.4543,-1.4421,-1.4304,-1.4167,-1.4016,-1.4231,-1.4448,-1.4492,-1.4743,-1.4825,-1.4653,-1.4266,-1.5396,-1.7915,-1.8805,-1.9528,-2.0111,-2.1601,-2.2906,-2.3792,-2.246,-2.1616,-2.1497,-2.0174,-1.9511,-1.9541,-2.0858,-2.0858,-1.9464,-2.0947,-2.0495,-1.7323,-1.7138,0.0,0.0,0.0,0.0,0.0,0.0,0.0,0.0,0.0,-2.1389,-1.8733,0.0,-2.1704,0.0,-2.165,-2.2899,-2.3237,-2.3652,0.0,0.0,-2.5252,-2.5384,-2.6713,-2.6194,-2.5965,-2.658,-2.6761,-2.6749,-2.6556,-2.6411,-2.6182,-2.5784,-2.5677,-2.5945,-2.6866,-2.6932,-2.7591,-2.9762,-3.0153,-3.048,-3.1542,-3.2037,-3.1445,-3.0116,-3.149,-3.2674,-3.2535,-3.2648,-3.3381,-3.4847,-3.4809,-3.4907,-3.6035,-3.6095,-3.561,-3.4923,-3.5103,-3.5296,-3.4566,-3.4067,-3.3624,-1.7859,-1.7789,-1.7867,-1.7573,-1.7022,-1.7223,-1.6957,-1.6505,-1.6505,-1.6455,-1.6362,-1.6204,-1.5774,-1.5209,-1.4776,-1.4577,-1.4502,-1.4367,-1.4299,-1.4299,-1.4299,-1.4265,-1.4197,-1.4109,-1.4027,-1.3939,-1.379,-1.3715,-1.3695,-1.3634,-1.3566,-1.3505,-1.3485,-1.4326,-1.5976,-1.6871,-1.7542,-1.8126,-1.9744,-2.0814,-2.1101,-2.0221,-1.9493,-1.9199,-1.8311,-1.7774,-1.7694,-1.8601,-1.8675,-1.7776,-1.879,-1.8395,-1.637,-1.5886,-1.5738,0.0,0.0,0.0,0.0,0.0,0.0,0.0,0.0,0.0,0.0,0.0,-2.0727,-2.075,-2.2809,-2.4359,-2.4987,-2.5228,-2.5892,-2.6882,-2.6484,-2.6496,-2.7377,-2.6918,-2.6665,-2.6991,-2.7003,-2.6894,-2.6665,-2.6508,-2.6254,-2.588,-2.5699,-2.5749,-2.6055,-2.613,-2.6648,-2.7766,-2.7892,-2.8061,-2.8937,-2.9187,-2.8892,-2.8039,-2.9187,-3.0404,-3.0343,-3.071,-3.1392,-3.2581,-3.2461,-3.2485,-3.3611,-3.4379,-3.4467,-3.4048,-3.4588,-3.487,-3.4101,-3.3625,-3.3314,-1.7054,-1.6912,-1.7106,-1.6796,-1.6254,-1.6532,-1.6254,-1.5608,-1.5588,-1.5581,-1.5567,-1.5425,-1.5215,-1.4964,-1.4787,-1.4638,-1.4502,-1.4367,-1.4299,-1.4299,-1.4299,-1.4231,-1.4102,-1.4102,-1.4095,-1.4068,-1.3933,-1.3919,-1.4014,-1.3878,-1.3664,-1.3641,-1.3664,-1.3688,-1.3541,-1.4571,-1.5586,-1.6304,-1.7878,-1.8611,-1.8293,-1.8035,-1.7546,-1.6933,-1.6817,-1.6621,-1.6471,-1.663,-1.6638,-1.6471,-1.6558,-1.6311,-1.5675,-1.5078,-1.4837,0.0,-1.4547,0.0,0.0,0.0,0.0,0.0,0.0,0.0,0.0,-1.8037,-1.9256,-2.1607,-2.3656,-2.5348,-2.6478,-2.6656,-2.697,-2.7297,-2.728,-2.716,-2.7099,-2.728,-2.7317,-2.7063,-2.7232,-2.7184,-2.6773,-2.6665,-2.6447,-2.6049,-2.5916,-2.588,-2.5904,-2.6025,-2.6137,-2.5892,-2.5844,-2.6056,-2.5848,-2.5786,-2.5835,-2.5763,-2.6936,-2.7964,-2.7799,-2.8814,-2.9875,-3.0339,-3.0292,-3.0325,-3.0612,-3.2011,-3.2761,-3.2331,-3.3397,-3.4238,-3.3672,-3.3174,-3.2818,-1.6882,-1.6755,-1.7054,-1.6796,-1.618,-1.6505,-1.6201,-1.5445,-1.5323,-1.5269,-1.5255,-1.512,-1.5025,-1.495,-1.4679,-1.4543,-1.4502,-1.436,-1.4299,-1.4299,-1.4299,-1.4285,-1.4258,-1.4258,-1.419,-1.4075,-1.4041,-1.3919,-1.3715,-1.3682,-1.3654,-1.3634,-1.3654,-1.3702,-1.3749,0.0,0.0,0.0,-1.6102,-1.6854,-1.7792,-1.6359,-1.5446,-1.5125,-1.3597,0.0,-1.2529,-1.4123,-1.4318,-1.2969,-1.561,0.0,0.0,0.0,0.0,0.0,0.0,0.0,0.0,0.0,0.0,0.0,-1.6468,-1.6477,-1.5966,-1.707,-1.8601,-2.0299,-2.1436,-2.278,-2.435,-2.5059,-2.602,-2.7289,-2.7751,-2.7811,-2.7413,-2.7389,-2.7329,-2.7063,-2.7075,-2.7075,-2.6966,-2.6773,-2.6604,-2.6447,-2.6291,-2.6158,-2.6122,-2.6001,-2.5977,-2.6085,-2.5965,-2.5735,-2.5384,-2.5494,-2.5542,-2.5446,-2.5629,-2.5995,-2.603,-2.6139,-2.7019,-2.8265,-2.8547,-2.8841,-2.9708,-3.0262,-3.037,-2.971,-3.1137,-3.2834,-3.395,-3.3631,-3.3209,-1.6309,0.0,-1.6259,-1.6106,0.0,-1.5841,-1.5725,-1.5303,-1.5377,-1.5323,-1.5167,-1.495,-1.4814,-1.474,-1.4584,-1.4475,-1.4401,-1.4333,-1.4299,-1.4299,-1.4299,-1.4299,-1.4299,-1.4299,-1.4258,-1.4183,-1.4109,-1.3994,-1.3844,-1.3702,-1.3627,-1.3627,-1.3553,-1.3593,-1.3736,-1.3804,-1.4062,-1.4659,-1.4579,-1.4868,-1.5562,-1.4359,-1.3647,-1.3491,0.0,0.0,0.0,0.0,0.0,0.0,0.0,0.0,0.0,0.0,0.0,-1.3399,-1.3406,-1.3934,-1.4892,-1.5239,-1.5355,-1.5337,-1.5455,-1.5411,-1.4909,-1.6716,-1.8234,-1.914,-2.0428,-2.1766,-2.2826,-2.4177,-2.5279,-2.5889,-2.7085,-2.7655,-2.7317,-2.7341,-2.7317,-2.7123,-2.7256,-2.7329,-2.7063,-2.6918,-2.6713,-2.646,-2.6194,-2.5989,-2.588,-2.5953,-2.6073,-2.6194,-2.6001,-2.5784,-2.5663,-2.5627,-2.5566,-2.5482,-2.5348,-2.5348,-2.5348,-2.5325,-2.5616,-2.655,-2.6669,-2.6813,-2.7486,-2.8317,-2.8865,-2.8667,-2.9873,-3.125,-3.2253,-3.3083,-3.3768,-1.575,-1.5594,-1.552,-1.5384,-1.5228,-1.5309,-1.5296,-1.5235,0.0,0.0,0.0,-1.4828,-1.4631,-1.4509,-1.4482,-1.4407,-1.4299,-1.4299,-1.4299,-1.4299,-1.4299,-1.4312,-1.434,-1.434,-1.434,-1.4333,-1.4238,-1.415,-1.4068,-1.3851,-1.3715,-1.3661,-1.3566,-1.3593,-1.3749,-1.3865,-1.3912,-1.3865,-1.3593,-1.3437,-1.3424,-1.2901,-1.2556,-1.2413,-1.2257,-1.204,-1.1755,-1.2047,-1.2149,-1.2006,-1.2189,-1.2393,-1.261,-1.2766,-1.3003,-1.3329,-1.3532,-1.3695,-1.3831,-1.4014,-1.4238,-1.4529,-1.4808,-1.4875,-1.4645,-1.6256,-1.748,-1.7795,-1.9276,-2.0518,-2.1252,-2.276,-2.3811,-2.3913,-2.537,-2.6352,-2.645,-2.6695,-2.6846,-2.7032,-2.7377,-2.7522,-2.7099,-2.7027,-2.687,-2.646,-2.6206,-2.5844,-2.5639,-2.5868,-2.6134,-2.6182,-2.6049,-2.5904,-2.5892,-2.5832,-2.5747,-2.5566,-2.5396,-2.5348,-2.5409,-2.5252,-2.5216,-2.5483,-2.5252,-2.5301,-2.541,-2.6559,-2.7499,-2.7543,-2.8717,-2.9717,-3.0001,-3.1806,-3.3276,-1.5696,-1.5466,-1.5696,-1.5635,-1.5404,-1.5791,-1.5737,-1.5371,-1.516,-1.5038,-1.4977,-1.4679,-1.4529,-1.4502,-1.438,-1.4319,-1.4299,-1.4299,-1.4299,0.0,-1.4299,-1.4367,-1.4482,-1.4482,-1.4482,-1.4489,-1.459,-1.4448,-1.4116,-1.4163,-1.4075,-1.3858,-1.3919,-1.4048,-1.4197,-1.4224,-1.417,-1.4041,-1.3749,-1.36,-1.3587,-1.3254,-1.301,-1.2947,-1.2712,-1.2501,-1.2216,-1.2603,-1.2766,-1.2623,-1.2996,-1.3173,-1.3091,-1.3227,-1.3275,-1.3227,-1.3471,-1.3688,-1.3838,-1.4109,-1.4394,-1.4679,-1.4869,-1.5004,-1.5072,-1.5165,-1.5299,-1.5783,-1.6068,-1.6834,-1.8633,-1.9431,-2.0319,-2.143,-2.2221,-2.3125,-2.4313,-2.4811,-2.5523,-2.6699,-2.7087,-2.716,-2.7063,-2.7027,-2.6991,-2.6882,-2.6532,-2.6303,-2.588,-2.5832,-2.5977,-2.6158,-2.6194,-2.6158,-2.6122,-2.5965,-2.582,-2.5784,-2.5566,-2.5348,-2.5348,-2.53,-2.5373,-2.5348,-2.53,-2.5313,-2.518,-2.518,-2.5564,-2.5583,-2.6843,-2.8014,-2.811,-2.9535,-3.057,-1.6188,-1.5771,-1.575,-1.5662,-1.554,-1.5581,-1.5432,-1.516,-1.4943,-1.4801,-1.4706,-1.4489,-1.4401,-1.4394,-1.4326,-1.4299,-1.4299,-1.4299,-1.4299,-1.4299,-1.4299,-1.4373,-1.4502,-1.4516,-1.4557,-1.4638,-1.4615,-1.4631,-1.4441,-1.4353,-1.4224,-1.4095,-1.4082,-1.4109,-1.4177,-1.4258,-1.4265,-1.419,-1.3899,-1.3709,-1.3627,-1.3329,-1.3139,-1.3071,-1.2929,-1.2793,-1.2664,-1.3009,-1.3078,-1.3091,-1.337,-1.3526,-1.3539,-1.3682,-1.3729,-1.3675,-1.3871,-1.4021,-1.4082,-1.4367,-1.4597,-1.4726,-1.4808,-1.4943,-1.5167,-1.4909,-1.4794,-1.4909,-1.4855,-1.5243,-1.6324,-1.7592,-1.865,-1.9314,-2.0658,-2.1776,-2.2462,-2.3599,-2.4551,-2.5389,-2.6497,-2.7184,-2.7039,-2.7027,-2.6966,-2.6822,-2.6484,-2.6109,-2.588,-2.5832,-2.5928,-2.6146,-2.6097,-2.6085,-2.6182,-2.6001,-2.5796,-2.5651,-2.5518,-2.536,-2.5348,-2.5348,-2.5348,-2.5348,-2.5348,-2.5397,-2.518,-2.518,-2.5192,-2.5144,-2.565,-2.6411,-2.6567,-2.7051,-2.7648,-1.6772,-1.6254,-1.6056,-1.5904,-1.5849,-1.5451,-1.5252,-1.5142,-1.4808,-1.4638,-1.4462,-1.4346,-1.4299,-1.4299,-1.4299,-1.4299,-1.4299,-1.4299,-1.4299,-1.4299,-1.4299,-1.438,-1.4502,-1.4516,-1.459,-1.4733,-1.4774,-1.4774,-1.4719,-1.4509,-1.438,-1.4333,-1.4163,-1.4102,-1.417,-1.4258,-1.4285,-1.4238,-1.4014,-1.3824,-1.3675,-1.3376,-1.322,-1.322,-1.3152,-1.3112,-1.3119,-1.3247,-1.3376,-1.3498,-1.3614,-1.3722,-1.3838,-1.3987,-1.4055,-1.4041,-1.4197,-1.4312,-1.436,-1.459,-1.4726,-1.4692,-1.4726,-1.4808,-1.4936,-1.4808,-1.4679,-1.4618,-1.4577,-1.4597,-1.5062,-1.6276,-1.734,-1.7348,-1.8736,-1.9846,-2.0492,-2.1771,-2.3177,-2.3973,-2.5616,-2.6683,-2.6905,-2.7027,-2.6966,-2.6737,-2.6303,-2.6037,-2.6013,-2.5965,-2.6013,-2.6109,-2.6037,-2.6061,-2.623,-2.6037,-2.5784,-2.5542,-2.5384,-2.536,-2.5348,-2.5348,-2.5348,-2.5348,-2.5348,-2.5433,-2.5348,-2.5348,-2.5324,-2.5385,-2.5483,-2.5507,-2.5568,-2.5446,-2.5941,-1.7268,-1.692,-1.6933,-1.6906,-1.6642,-1.5953,-1.5625,-1.5491,-1.4984,-1.4584,-1.4333,-1.4306,-1.4299,-1.4299,-1.4299,-1.4299,-1.4299,-1.4299,-1.4299,-1.4299,-1.4299,-1.438,-1.4502,-1.4516,-1.459,-1.474,-1.4869,-1.4855,-1.474,-1.4699,-1.4618,-1.4475,-1.4211,-1.4204,-1.4421,-1.4353,-1.4238,-1.4095,-1.4068,-1.398,-1.3732,-1.3532,-1.3383,-1.3383,-1.3498,-1.3566,-1.3539,-1.3702,-1.3783,-1.3797,-1.381,-1.3824,-1.3858,-1.3987,-1.4014,-1.3899,-1.4143,-1.4353,-1.4482,-1.4645,-1.4679,-1.4563,-1.4658,-1.4645,-1.4455,-1.4496,-1.4652,-1.4794,-1.4665,-1.4631,-1.4909,-1.522,-1.5491,-1.5498,-1.5704,-1.6265,-1.7916,-1.8359,-1.9887,-2.3758,-2.4064,-2.5012,-2.6356,-2.6924,-2.7015,-2.6966,-2.6677,-2.6383,-2.646,-2.6278,-2.6146,-2.6206,-2.617,-2.6266,-2.6411,-2.6146,-2.582,-2.5735,-2.5578,-2.547,-2.5348,-2.5348,-2.5348,-2.5348,-2.5348,-2.5348,-2.5348,-2.5348,-2.5348,-2.5348,-2.5348,-2.5348,-2.5348,-2.5373,-2.5999,-1.7953,-1.7345,-1.7321,-1.7173,-1.6817,-1.6119,-1.5732,-1.5554,-1.495,-1.457,-1.4319,-1.4299,-1.4299,-1.4299,-1.4299,-1.4299,-1.4299,-1.4299,-1.4299,-1.4299,-1.4299,-1.4373,-1.4502,-1.4516,-1.459,-1.4733,-1.4808,-1.4801,-1.4733,-1.4652,-1.4529,-1.4394,-1.4258,-1.4272,-1.4373,-1.4326,-1.4265,-1.4204,-1.4122,-1.4041,-1.3953,-1.3688,-1.3492,-1.3417,-1.3464,-1.3539,-1.362,-1.3688,-1.3797,-1.396,-1.398,-1.4021,-1.4109,-1.4251,-1.4306,-1.4251,-1.4353,-1.4414,-1.4394,-1.4523,-1.4577,-1.4516,-1.457,-1.4584,-1.4563,-1.4536,-1.4604,-1.4753,-1.4563,-1.4509,-1.478,-1.4753,-1.4733,-1.4808,-1.4835,-1.5236,-1.6059,-1.7162,-1.8615,-2.0244,-2.1471,-2.294,-2.4788,-2.6194,-2.6924,-2.7003,-2.681,-2.6677,-2.6629,-2.6399,-2.6242,-2.6194,-2.6097,-2.6037,-2.6122,-2.5856,-2.5639,-2.559,-2.5518,-2.536,-2.5348,-2.5348,-2.5348,-2.5348,-2.5348,-2.5348,-2.5348,-2.5348,-2.5348,-2.5348,-2.5348,-2.5348,-2.5348,-2.5228,-2.5493,-1.8482,-1.7833,-1.7592,-1.7409,-1.723,-1.6501,-1.611,-1.5715,-1.5209,-1.4681,-1.4373,-1.436,-1.436,-1.4353,-1.4319,-1.4299,-1.4299,-1.4299,-1.4299,-1.4299,-1.4299,-1.4373,-1.4502,-1.4516,-1.459,-1.4733,-1.4835,-1.4848,-1.4787,-1.4597,-1.4455,-1.4367,-1.4319,-1.4319,-1.4353,-1.4326,-1.4299,-1.4292,-1.419,-1.4116,-1.4048,-1.3858,-1.3661,-1.3492,-1.3505,-1.3573,-1.3682,-1.3722,-1.3865,-1.4116,-1.4129,-1.4183,-1.4299,-1.4434,-1.4516,-1.4516,-1.455,-1.4509,-1.4367,-1.4496,-1.4557,-1.4516,-1.4516,-1.4543,-1.459,-1.455,-1.4584,-1.4706,-1.4509,-1.4489,-1.4733,-1.4665,-1.4645,-1.478,-1.4801,-1.4855,-1.5128,-1.6286,-1.7175,-1.7908,-1.9363,-2.0941,-2.2973,-2.4907,-2.6236,-2.6131,-2.6525,-2.681,-2.6725,-2.6532,-2.6327,-2.623,-2.6001,-2.5856,-2.5808,-2.5639,-2.5384,-2.536,-2.5348,-2.5348,-2.5348,-2.5348,-2.5348,-2.5348,-2.5348,-2.5348,-2.5348,-2.5348,-2.5348,-2.5348,-2.5348,-2.5348,-2.5348,-2.5264,-2.5071,-1.8968,-1.8387,-1.7927,-1.7828,-1.8083,-1.7374,-1.6819,-1.6313,-1.5715,-1.5098,-1.4516,-1.4502,-1.4502,-1.4496,-1.4469,-1.4306,-1.4306,-1.4299,-1.4299,-1.4299,-1.4299,-1.4373,-1.4509,-1.4516,-1.459,-1.4655,-1.497,-1.5045,-1.4936,-1.4665,-1.4509,-1.4496,-1.438,-1.4373,-1.4448,-1.4353,-1.4299,-1.4292,-1.4285,-1.4217,-1.4095,-1.4055,-1.3905,-1.3668,-1.3743,-1.381,-1.3851,-1.3973,-1.4122,-1.4285,-1.4278,-1.4292,-1.4312,-1.4441,-1.4523,-1.4523,-1.4645,-1.4652,-1.4529,-1.4618,-1.4652,-1.4543,-1.4523,-1.4468,-1.4421,-1.4502,-1.4618,-1.4726,-1.4604,-1.4631,-1.4903,-1.4808,-1.478,-1.4916,-1.495,-1.4957,-1.497,-1.5018,-1.5887,-1.7382,-1.8196,-1.9337,-2.148,-2.3496,-2.4383,-2.4813,-2.6053,-2.7085,-2.6755,-2.6606,-2.6544,-2.6303,-2.6061,-2.5832,-2.5808,-2.5602,-2.5384,-2.5348,-2.5348,-2.5348,-2.5348,-2.5348,-2.5348,-2.5348,-2.5348,-2.5348,-2.5348,-2.5348,-2.5348,-2.5348,-2.5348,-2.5348,-2.5348,-2.5433,-2.5216,-1.9182,-1.876,-1.8464,-1.8327,-1.8347,-1.7804,-1.7103,-1.6442,-1.5923,-1.5251,-1.4672,-1.4658,-1.4833,-1.5105,-1.5049,-1.4792,-1.4428,-1.434,-1.4299,-1.4299,-1.4299,-1.4373,-1.4502,-1.4516,-1.459,-1.474,-1.4848,-1.493,-1.495,-1.476,-1.4658,-1.4631,-1.4509,-1.4421,-1.4373,-1.4326,-1.4299,-1.4299,-1.4299,-1.4272,-1.4224,-1.4217,-1.4122,-1.3926,-1.3865,-1.3933,-1.4129,-1.4095,-1.4183,-1.4421,-1.4353,-1.4299,-1.4319,-1.4529,-1.4611,-1.4536,-1.4652,-1.4631,-1.4434,-1.4516,-1.457,-1.4529,-1.4604,-1.4631,-1.4618,-1.4719,-1.4828,-1.4848,-1.4746,-1.4828,-1.5079,-1.495,-1.4801,-1.4936,-1.4977,-1.4984,-1.4943,-1.4841,-1.5096,-1.611,-1.7157,-1.853,-1.9492,-2.1254,-2.2438,-2.2556,-2.4223,-2.5314,-2.5593,-2.613,-2.6527,-2.6599,-2.6375,-2.6025,-2.5832,-2.5517,-2.5348,-2.5348,-2.5348,-2.5348,-2.5348,-2.5348,-2.5348,-2.5348,-2.5348,-2.5348,-2.5348,-2.5348,-2.5348,-2.5348,-2.5348,-2.5348,-2.5348,-2.5385,-2.5168,-1.9151,-1.8964,-1.8736,-1.8566,-1.8452,-1.8002,-1.7476,-1.671,-1.6239,-1.5597,-1.5103,-1.4906,-1.5089,-1.5526,-1.5483,-1.544,-1.5098,-1.4868,-1.4592,-1.4373,-1.4367,-1.4441,-1.4563,-1.4584,-1.4665,-1.4787,-1.476,-1.4841,-1.4984,-1.4787,-1.4672,-1.4652,-1.4516,-1.4401,-1.4312,-1.4299,-1.4299,-1.4299,-1.4299,-1.4299,-1.4299,-1.4299,-1.4258,-1.415,-1.4041,-1.4055,-1.4224,-1.4217,-1.4272,-1.4407,-1.4346,-1.4319,-1.4387,-1.4652,-1.4726,-1.4557,-1.4652,-1.4611,-1.4367,-1.4434,-1.4516,-1.4516,-1.4604,-1.4679,-1.4733,-1.4835,-1.4889,-1.4869,-1.4814,-1.4903,-1.5106,-1.4991,-1.4896,-1.5065,-1.5113,-1.5086,-1.5038,-1.4903,-1.4903,-1.5324,-1.6357,-1.7253,-1.7741,-1.9378,-2.033,-2.0508,-2.226,-2.3489,-2.3749,-2.4275,-2.5377,-2.5764,-2.5449,-2.5478,-2.564,-2.5697,-2.5444,-2.5408,-2.536,-2.5348,-2.5348,-2.5348,-2.5348,-2.5348,-2.5348,-2.5348,-2.5348,-2.5348,-2.5348,-2.5348,-2.5348,-2.5348,-2.5385,-2.5313,-2.5216,-1.8834,-1.8915,-1.8598,-1.8571,-1.8436,-1.829,-1.7912,-1.7328,-1.6853,-1.629,-1.5618,-1.5248,-1.5334,-1.5675,-1.566,-1.5836,-1.6191,-1.58,-1.5195,-1.4612,-1.4516,-1.4597,-1.4733,-1.474,-1.4821,-1.4957,-1.4828,-1.4909,-1.5147,-1.4808,-1.4597,-1.4523,-1.4434,-1.436,-1.4299,-1.4299,-1.4299,-1.4306,-1.4312,-1.4312,-1.4299,-1.4312,-1.4306,-1.4292,-1.4278,-1.4224,-1.4109,-1.434,-1.4414,-1.4333,-1.4319,-1.4373,-1.4529,-1.478,-1.4821,-1.4604,-1.4658,-1.4577,-1.4367,-1.4441,-1.4516,-1.4536,-1.4529,-1.4631,-1.478,-1.4787,-1.4794,-1.4814,-1.4794,-1.4841,-1.4991,-1.5018,-1.5092,-1.535,-1.5371,-1.533,-1.5215,-1.5072,-1.5025,-1.5275,-1.5697,-1.5615,-1.6167,-1.7644,-1.8842,-1.8912,-2.0357,-2.166,-2.1603,-2.1791,-2.2089,-2.3216,-2.3694,-2.3784,-2.486,-2.5914,-2.5586,-2.5383,-2.5396,-2.5348,-2.5348,-2.5348,-2.5348,-2.5348,-2.5348,-2.5348,-2.5348,-2.5348,-2.5348,-2.5348,-2.5348,-2.536,-2.5397,-2.5349,-2.5277,-1.8761,-1.8793,-1.8688,-1.8566,-1.8452,-1.8387,-1.8016,-1.7437,-1.7242,-1.6651,-1.5961,-1.568,-1.586,-1.6319,-1.6361,-1.6647,-1.7072,-1.6539,-1.5916,-1.5251,-1.4853,-1.4753,-1.4875,-1.4903,-1.4977,-1.5092,-1.5072,-1.514,-1.5248,-1.5079,-1.493,-1.4821,-1.4672,-1.4496,-1.4312,-1.4299,-1.4299,-1.4312,-1.4401,-1.4401,-1.4326,-1.4394,-1.4401,-1.4319,-1.4394,-1.4373,-1.4245,-1.4319,-1.4387,-1.4434,-1.4448,-1.4516,-1.4658,-1.4753,-1.4767,-1.4679,-1.4604,-1.4557,-1.4475,-1.4489,-1.457,-1.4645,-1.4672,-1.4801,-1.4991,-1.495,-1.4943,-1.5004,-1.4964,-1.4991,-1.5208,-1.5276,-1.5316,-1.5404,-1.5506,-1.554,-1.5466,-1.5438,-1.535,-1.5255,-1.5533,-1.5716,-1.5689,-1.6698,-1.6915,-1.6942,-1.8408,-1.962,-1.9647,-2.027,-2.1337,-2.2128,-2.2057,-2.202,-2.2951,-2.3907,-2.4097,-2.4475,-2.4933,-2.5529,-2.5492,-2.5468,-2.5444,-2.5408,-2.5396,-2.5396,-2.5384,-2.5348,-2.5348,-2.536,-2.5372,-2.5372,-2.536,-2.5312,-2.5252,-1.8728,-1.872,-1.8655,-1.8598,-1.8525,-1.842,-1.8236,-1.7812,-1.7624,-1.7124,-1.6516,-1.6372,-1.6582,-1.6958,-1.7053,-1.7373,-1.7813,-1.7246,-1.6661,-1.5975,-1.5144,-1.4909,-1.5045,-1.5113,-1.5133,-1.5174,-1.5181,-1.5228,-1.5309,-1.5181,-1.5059,-1.4957,-1.4814,-1.4618,-1.4407,-1.4434,-1.4448,-1.4407,-1.4523,-1.4557,-1.4502,-1.455,-1.455,-1.4489,-1.455,-1.4516,-1.4401,-1.4434,-1.4448,-1.4462,-1.4529,-1.4645,-1.474,-1.4835,-1.4882,-1.4814,-1.4746,-1.4685,-1.4685,-1.4699,-1.4719,-1.4814,-1.4875,-1.497,-1.5126,-1.5086,-1.5092,-1.5079,-1.5025,-1.5065,-1.5269,-1.5377,-1.5452,-1.5574,-1.5608,-1.5615,-1.5581,-1.5608,-1.5567,-1.5466,-1.5608,-1.5689,-1.5696,-1.5757,-1.5818,-1.5925,-1.6867,-1.7762,-1.7824,-1.8519,-1.9397,-2.0076,-2.0207,-2.0483,-2.0941,-2.1738,-2.2372,-2.3319,-2.4337,-2.5219,-2.5856,-2.5856,-2.5844,-2.5735,-2.5699,-2.5699,-2.5687,-2.542,-2.536,-2.5372,-2.5444,-2.5372,-2.5348,-2.5348,-2.53,-1.8704,-1.8671,-1.8525,-1.8541,-1.8606,-1.8347,-1.829,-1.8309,-1.7939,-1.7569,-1.7296,-1.7004,-1.7197,-1.7591,-1.7576,-1.7939,-1.8416,-1.772,-1.7202,-1.6686,-1.5786,-1.5199,-1.5167,-1.5289,-1.5289,-1.5194,-1.5201,-1.5201,-1.5201,-1.5086,-1.4977,-1.4957,-1.4835,-1.4679,-1.457,-1.4665,-1.4645,-1.4563,-1.4672,-1.474,-1.4719,-1.4719,-1.474,-1.4733,-1.4706,-1.4652,-1.4597,-1.4645,-1.4597,-1.4428,-1.4638,-1.4767,-1.4821,-1.5031,-1.5092,-1.4984,-1.4977,-1.497,-1.4977,-1.4957,-1.4964,-1.4984,-1.5052,-1.5181,-1.5167,-1.514,-1.5092,-1.5038,-1.5011,-1.5059,-1.5215,-1.5357,-1.5554,-1.5778,-1.5757,-1.5655,-1.5493,-1.5588,-1.5608,-1.5601,-1.5628,-1.5635,-1.5622,-1.573,-1.5798,-1.5909,-1.5993,-1.621,-1.6335,-1.6778,-1.6787,-1.7444,-1.8152,-1.8392,-1.8837,-1.9959,-2.061,-2.1283,-2.264,-2.4085,-2.5419,-2.5735,-2.6073,-2.5977,-2.5904,-2.5904,-2.588,-2.5735,-2.5687,-2.5784,-2.5723,-2.5444,-2.5384,-2.5408,-2.5348,-1.8444,-1.833,-1.8412,-1.8403,-1.8338,-1.8347,-1.8322,-1.8257,-1.8163,-1.7788,-1.746,-1.7288,-1.7576,-1.785,-1.7844,-1.8129,-1.8544,-1.8118,-1.749,-1.7016,-1.6347,-1.5709,-1.5343,-1.5337,-1.5343,-1.5322,-1.5397,-1.5296,-1.5187,-1.5247,-1.5172,-1.497,-1.495,-1.4841,-1.4713,-1.474,-1.4719,-1.4706,-1.4835,-1.4862,-1.478,-1.4767,-1.4801,-1.4889,-1.4713,-1.4699,-1.4808,-1.4774,-1.478,-1.4808,-1.4855,-1.4964,-1.5052,-1.5153,-1.5187,-1.5153,-1.5133,-1.5133,-1.5133,-1.5133,-1.5133,-1.5113,-1.5113,-1.5072,-1.5174,-1.5086,-1.5072,-1.5092,-1.5133,-1.5187,-1.5337,-1.5493,-1.5669,-1.5818,-1.59,-1.5879,-1.5757,-1.5764,-1.5723,-1.5533,-1.5581,-1.5581,-1.5574,-1.5608,-1.571,-1.5716,-1.573,-1.575,-1.5818,-1.5778,-1.6243,-1.5904,-1.6247,-1.6343,-1.6812,-1.8042,-1.8837,-1.9225,-2.0538,-2.2424,-2.3903,-2.5094,-2.5678,-2.6158,-2.6085,-2.6061,-2.6109,-2.6073,-2.6109,-2.6085,-2.5928,-2.5747,-2.5651,-2.5627,-2.5494,-1.8525,-1.8298,-1.8403,-1.8481,-1.8314,-1.8506,-1.8436,-1.8412,-1.8403,-1.8214,-1.7939,-1.7939,-1.8089,-1.8423,-1.8415,-1.8648,-1.9068,-1.8611,-1.8126,-1.7651,-1.6814,-1.6173,-1.5841,-1.5815,-1.5904,-1.6064,-1.6128,-1.6121,-1.6043,-1.5783,-1.564,-1.5538,-1.5275,-1.5072,-1.4957,-1.5065,-1.5038,-1.4997,-1.5126,-1.5201,-1.5126,-1.512,-1.516,-1.5201,-1.5011,-1.4977,-1.5045,-1.497,-1.495,-1.4984,-1.5031,-1.5126,-1.5269,-1.5343,-1.5371,-1.5377,-1.5377,-1.5377,-1.5377,-1.5377,-1.5377,-1.5364,-1.5289,-1.5262,-1.5269,-1.5194,-1.5194,-1.5174,-1.5181,-1.5289,-1.5493,-1.5696,-1.5845,-1.5947,-1.6029,-1.5995,-1.5791,-1.5805,-1.5771,-1.5655,-1.5615,-1.5642,-1.5588,-1.5628,-1.5662,-1.5716,-1.5757,-1.5798,-1.5845,-1.5764,-1.5689,-1.5581,-1.5486,-1.5704,-1.586,-1.6743,-1.7294,-1.7585,-1.8698,-2.0536,-2.2083,-2.3774,-2.4699,-2.5293,-2.5743,-2.609,-2.5932,-2.5956,-2.6291,-2.6218,-2.6085,-2.5953,-2.5832,-2.5663,-2.5542,-1.8761,-1.8452,-1.8452,-1.853,-1.842,-1.8485,-1.8574,-1.8671,-1.8712,-1.872,-1.86,-1.8712,-1.8713,-1.9021,-1.8971,-1.9313,-1.9516,-1.902,-1.872,-1.8198,-1.7454,-1.6648,-1.6828,-1.6544,-1.6695,-1.698,-1.7195,-1.7099,-1.6936,-1.6539,-1.6376,-1.6191,-1.5746,-1.5459,-1.5276,-1.5445,-1.5438,-1.5276,-1.5391,-1.5466,-1.5432,-1.5425,-1.5438,-1.5472,-1.5432,-1.5309,-1.5269,-1.5228,-1.5201,-1.5079,-1.5174,-1.5303,-1.5438,-1.5574,-1.5622,-1.5635,-1.5642,-1.5669,-1.5635,-1.5615,-1.5615,-1.5567,-1.5581,-1.5574,-1.5432,-1.5364,-1.533,-1.5242,-1.5208,-1.5371,-1.5628,-1.5906,-1.6022,-1.6056,-1.6076,-1.5947,-1.5764,-1.5778,-1.5852,-1.5839,-1.5716,-1.5696,-1.5723,-1.571,-1.5635,-1.5703,-1.575,-1.5818,-1.5866,-1.5859,-1.5798,-1.5723,-1.5642,-1.5567,-1.554,-1.5705,-1.5911,-1.611,-1.7245,-1.8653,-2.0123,-2.163,-2.3066,-2.3913,-2.3911,-2.4408,-2.506,-2.5364,-2.5706,-2.6068,-2.5719,-2.5782,-2.5928,-2.5711,-2.5554,-1.8647,-1.8452,-1.8452,-1.8371,-1.8314,-1.8671,-1.8728,-1.8541,-1.8818,-1.8858,-1.8761,-1.8736,-1.8923,-1.9191,-1.9159,-1.9281,-1.9646,-1.9292,-1.9016,-1.8381,-1.7621,-1.7674,-1.7825,-1.725,-1.6962,-1.7307,-1.7561,-1.7524,-1.727,-1.727,-1.6964,-1.6505,-1.6298,-1.5959,-1.565,-1.5513,-1.5445,-1.5377,-1.5452,-1.5452,-1.5384,-1.5371,-1.5411,-1.5479,-1.5547,-1.5574,-1.5554,-1.554,-1.5581,-1.5622,-1.5594,-1.5581,-1.5642,-1.5744,-1.5771,-1.5744,-1.5866,-1.5886,-1.5716,-1.5723,-1.5703,-1.554,-1.5567,-1.5574,-1.5432,-1.5411,-1.5398,-1.5364,-1.5371,-1.5499,-1.5757,-1.5967,-1.6062,-1.6083,-1.6083,-1.6029,-1.5866,-1.5832,-1.5852,-1.5805,-1.5649,-1.5479,-1.5513,-1.5452,-1.5479,-1.5635,-1.575,-1.5825,-1.5879,-1.5934,-1.5886,-1.5811,-1.5703,-1.5622,-1.5628,-1.5635,-1.5683,-1.5716,-1.6397,-1.6942,-1.8431,-1.9592,-2.098,-2.1522,-2.1755,-2.2455,-2.3606,-2.3924,-2.425,-2.4789,-2.5215,-2.5075,-2.5021,-2.5125,-2.4781,-1.8891,-1.8582,-1.8582,-1.842,-1.8273,-1.8655,-1.8753,-1.8671,-1.8956,-1.9061,-1.9013,-1.9053,-1.9159,-1.9281,-1.9419,-1.9646,-1.9727,-1.9703,-1.9239,-1.8713,-1.8183,-1.8206,-1.8428,-1.8061,-1.7841,-1.8312,-1.8512,-1.8449,-1.825,-1.7946,-1.7697,-1.7299,-1.6843,-1.6418,-1.6056,-1.5814,-1.5703,-1.5662,-1.5696,-1.5683,-1.5615,-1.5608,-1.5527,-1.5533,-1.5594,-1.5615,-1.5527,-1.5676,-1.5805,-1.5913,-1.5954,-1.5954,-1.5954,-1.6015,-1.5988,-1.592,-1.6042,-1.6035,-1.5852,-1.5791,-1.5784,-1.5622,-1.5581,-1.5533,-1.5486,-1.5459,-1.5452,-1.5499,-1.5533,-1.5622,-1.5825,-1.5988,-1.6069,-1.6096,-1.6144,-1.6144,-1.6062,-1.5947,-1.5852,-1.5832,-1.573,-1.5615,-1.5527,-1.5438,-1.5466,-1.5689,-1.5784,-1.5852,-1.5934,-1.5974,-1.594,-1.5866,-1.5744,-1.5683,-1.5703,-1.5744,-1.5818,-1.5866,-1.611,-1.6349,-1.681,-1.7851,-1.883,-1.9441,-2.0046,-2.1074,-2.2063,-2.2373,-2.2475,-2.2698,-2.3081,-2.3512,-2.3486,-2.2906,-2.2476,-1.9151,-1.8728,-1.8728,-1.8525,-1.8306,-1.8647,-1.8809,-1.8818,-1.9175,-1.9305,-1.9289,-1.9435,-1.937,-1.9378,-1.9703,-1.9857,-1.9857,-1.989,-1.9549,-1.8907,-1.8767,-1.8713,-1.8757,-1.8734,-1.8928,-1.9735,-1.9481,-1.9375,-1.9187,-1.8845,-1.8364,-1.8312,-1.7531,-1.6973,-1.6806,-1.6362,-1.6124,-1.6028,-1.5991,-1.5927,-1.5927,-1.5934,-1.5845,-1.5723,-1.5676,-1.5676,-1.5669,-1.5811,-1.6001,-1.6144,-1.6273,-1.6354,-1.6395,-1.6341,-1.6273,-1.613,-1.6232,-1.6117,-1.59,-1.5845,-1.593,-1.5825,-1.5649,-1.5567,-1.5615,-1.5594,-1.5588,-1.5628,-1.5689,-1.5737,-1.5872,-1.6001,-1.6069,-1.6096,-1.6198,-1.6273,-1.6259,-1.6069,-1.5981,-1.594,-1.5852,-1.5737,-1.5703,-1.5655,-1.5689,-1.5723,-1.5805,-1.5893,-1.5981,-1.6008,-1.5981,-1.5913,-1.5798,-1.5628,-1.5615,-1.5649,-1.575,-1.5886,-1.5974,-1.5981,-1.5927,-1.6657,-1.7598,-1.8065,-1.8744,-1.956,-2.0019,-2.0125,-2.0299,-2.0511,-2.1168,-2.184,-2.1452,-2.053,-2.0381,-1.8931,-1.8728,-1.8728,-1.8598,-1.8501,-1.8948,-1.9151,-1.9045,-1.9642,-1.9516,-1.9396,-1.9535,-1.9618,-1.9378,-1.9484,-1.967,-1.9825,-1.9882,-1.9658,-1.9364,-1.9332,-1.9292,-1.9227,-1.9211,-1.9456,-1.9678,-1.9597,-1.9492,-1.9508,-1.9351,-1.8908,-1.8564,-1.8221,-1.7909,-1.7378,-1.6947,-1.6518,-1.6384,-1.6117,-1.5893,-1.5845,-1.5866,-1.5893,-1.5798,-1.5791,-1.5832,-1.5954,-1.611,-1.63,-1.6429,-1.6469,-1.6612,-1.6714,-1.6598,-1.6442,-1.6334,-1.6293,-1.6185,-1.5961,-1.5859,-1.5791,-1.5723,-1.5703,-1.5757,-1.5791,-1.5791,-1.5771,-1.5818,-1.5845,-1.5886,-1.6029,-1.6069,-1.6076,-1.609,-1.6144,-1.6212,-1.6279,-1.6279,-1.6232,-1.6225,-1.6049,-1.5957,-1.5845,-1.5811,-1.5784,-1.5798,-1.5859,-1.5967,-1.6076,-1.6076,-1.6035,-1.5954,-1.5852,-1.5662,-1.5506,-1.5527,-1.5601,-1.5778,-1.5893,-1.6001,-1.5988,-1.6042,-1.6539,-1.7023,-1.6884,-1.6875,-1.7265,-1.7853,-1.8207,-1.8584,-1.9405,-2.0252,-1.9527,-1.8792,-1.9176,-2.0124,-1.8988,-1.8809,-1.8671,-1.8647,-1.8858,-1.9661,-2.0571,-2.1012,-2.1092,-2.1012,-2.0992,-2.0457,-1.9767,-1.9687,-1.989,-1.9995,-1.9963,-1.9833,-1.9687,-1.9654,-1.9532,-1.941,-1.9386,-1.9492,-1.9549,-1.9475,-1.9435,-1.9492,-1.941,-1.9246,-1.8984,-1.8655,-1.8358,-1.7954,-1.7202,-1.6856,-1.6658,-1.6257,-1.5934,-1.5852,-1.5879,-1.595,-1.5859,-1.5859,-1.5893,-1.5967,-1.611,-1.6252,-1.6381,-1.6476,-1.6646,-1.6761,-1.6795,-1.668,-1.6544,-1.6402,-1.6266,-1.6076,-1.5967,-1.5818,-1.5771,-1.5771,-1.5784,-1.5832,-1.5859,-1.592,-1.6042,-1.609,-1.6117,-1.6191,-1.6123,-1.6083,-1.611,-1.6198,-1.632,-1.6408,-1.6483,-1.651,-1.649,-1.63,-1.6117,-1.5974,-1.5934,-1.5879,-1.5886,-1.5927,-1.6035,-1.6164,-1.6178,-1.6151,-1.6117,-1.6029,-1.5859,-1.5689,-1.5649,-1.5649,-1.5778,-1.5893,-1.6001,-1.6062,-1.611,-1.6069,-1.6229,-1.5807,-1.5533,-1.5642,-1.6567,-1.6617,-1.6636,-1.7234,-1.762,-1.7459,-1.7298,-1.759,-2.1551,-1.9765,-1.9134,-1.8809,-1.8881,-1.93,-2.0448,-2.2045,-2.2896,-2.2894,-2.2463,-2.2482,-2.1504,-2.0041,-1.9849,-2.0085,-2.0239,-2.0076,-1.9906,-1.9792,-1.9711,-1.954,-1.9337,-1.9272,-1.9337,-1.9419,-1.9362,-1.9345,-1.9451,-1.9362,-1.9281,-1.9173,-1.8877,-1.8679,-1.8457,-1.7695,-1.729,-1.697,-1.6573,-1.6282,-1.6247,-1.6165,-1.5998,-1.59,-1.59,-1.5913,-1.5947,-1.6083,-1.6205,-1.6327,-1.6449,-1.6598,-1.6734,-1.6836,-1.6856,-1.6768,-1.6537,-1.6415,-1.6293,-1.6171,-1.6035,-1.5981,-1.5852,-1.5852,-1.5866,-1.5947,-1.6001,-1.6205,-1.6239,-1.6218,-1.6198,-1.6151,-1.6117,-1.6171,-1.6327,-1.6497,-1.6571,-1.6639,-1.6714,-1.6646,-1.6503,-1.6374,-1.6239,-1.6117,-1.6069,-1.6022,-1.6062,-1.6096,-1.6225,-1.6334,-1.6334,-1.632,-1.6246,-1.6096,-1.5967,-1.5893,-1.5893,-1.5947,-1.6042,-1.6144,-1.6164,-1.6185,-1.6123,-1.6083,-1.6042,-1.5866,-1.5655,-1.5418,-1.5769,-1.5772,-1.5362,-1.5459,-1.5952,-1.6012,-1.5978,-2.2346,-2.162,-1.9919,-1.9102,-1.9272,-2.0933,-2.2,-2.2652,-2.4778,-2.4475,-2.3118,-2.3083,-2.2268,-2.0393,-1.9987,-2.0041,-2.0003,-1.9938,-1.9833,-1.9776,-1.9638,-1.9467,-1.9281,-1.9264,-1.9289,-1.9345,-1.9297,-1.9362,-1.9435,-1.9345,-1.9248,-1.9256,-1.9246,-1.9295,-1.8936,-1.8137,-1.7991,-1.8084,-1.7268,-1.6772,-1.6765,-1.6736,-1.6432,-1.6141,-1.6042,-1.6134,-1.6141,-1.6251,-1.6353,-1.6394,-1.6435,-1.6585,-1.67,-1.6625,-1.6748,-1.6822,-1.6795,-1.6639,-1.6497,-1.6381,-1.6279,-1.6191,-1.6157,-1.6151,-1.609,-1.6056,-1.6083,-1.6083,-1.613,-1.6151,-1.6164,-1.6103,-1.6151,-1.6232,-1.6334,-1.6517,-1.6646,-1.6754,-1.6829,-1.6849,-1.6714,-1.6619,-1.6503,-1.6381,-1.6273,-1.6218,-1.6191,-1.6225,-1.6313,-1.6449,-1.6517,-1.6503,-1.6435,-1.6293,-1.6198,-1.613,-1.6123,-1.6144,-1.6198,-1.6279,-1.6293,-1.63,-1.6266,-1.6232,-1.6212,-1.6157,-1.594,-1.5689,-1.5418,-1.5276,-1.5242,-1.5201,-1.524,-1.5031,-1.4889,-2.4809,-2.228,-2.128,-2.0187,-1.9519,-2.1341,-2.3033,-2.4448,-2.6702,-2.7195,-2.6474,-2.6551,-2.496,-2.2205,-2.159,-2.0994,-2.0295,-1.9975,-1.9792,-1.9853,-1.9698,-1.9419,-1.9297,-1.9272,-1.9289,-1.9345,-1.9329,-1.9354,-1.9402,-1.9345,-1.9224,-1.9151,-1.9272,-1.9264,-1.9175,-1.8587,-1.8405,-1.8275,-1.7764,-1.7169,-1.697,-1.6864,-1.6672,-1.6182,-1.6083,-1.6282,-1.6494,-1.6622,-1.6678,-1.6706,-1.6818,-1.672,-1.6599,-1.6524,-1.6632,-1.6802,-1.6788,-1.6673,-1.6537,-1.6463,-1.6368,-1.6239,-1.6198,-1.6164,-1.6185,-1.6212,-1.6252,-1.6334,-1.6252,-1.6212,-1.6171,-1.6123,-1.6185,-1.6266,-1.6374,-1.6544,-1.6707,-1.6829,-1.691,-1.6924,-1.6924,-1.6815,-1.668,-1.6497,-1.6374,-1.6327,-1.63,-1.6313,-1.6469,-1.6673,-1.6707,-1.6693,-1.6605,-1.649,-1.6415,-1.6347,-1.6354,-1.6361,-1.6361,-1.6422,-1.6435,-1.6429,-1.6415,-1.6408,-1.6402,-1.6313,-1.6185,-1.5934,-1.5628,-1.5459,-1.5309,-1.5289,-1.5255,-1.5079,-1.495,-2.749,-2.4024,-2.2732,-2.1643,-2.0996,-2.2383,-2.4242,-2.6454,-2.8753,-2.9456,-2.8957,-2.8508,-2.655,-2.4538,-2.3803,-2.333,-2.1865,-2.0977,-2.0705,-2.0418,-1.9866,-1.9378,-1.9289,-1.9272,-1.9321,-1.9451,-1.9313,-1.9329,-1.9362,-1.9321,-1.9191,-1.9061,-1.9289,-1.924,-1.906,-1.8746,-1.8535,-1.8457,-1.8259,-1.7764,-1.7268,-1.7169,-1.6772,-1.6374,-1.6182,-1.6374,-1.6772,-1.6878,-1.6878,-1.7106,-1.7178,-1.7077,-1.6745,-1.672,-1.6626,-1.6769,-1.6603,-1.668,-1.6585,-1.651,-1.6388,-1.6293,-1.6198,-1.6286,-1.6341,-1.6368,-1.6354,-1.6415,-1.6354,-1.6286,-1.6239,-1.613,-1.6218,-1.6327,-1.6456,-1.6619,-1.6761,-1.6876,-1.6944,-1.6951,-1.6958,-1.6965,-1.6809,-1.6598,-1.6476,-1.6429,-1.6415,-1.6415,-1.6598,-1.6836,-1.6863,-1.6836,-1.6734,-1.6639,-1.6585,-1.6544,-1.6558,-1.6558,-1.6558,-1.6564,-1.6578,-1.6605,-1.6619,-1.6605,-1.6571,-1.649,-1.6374,-1.6103,-1.5852,-1.5737,-1.5615,-1.5459,-1.5343,-1.5181,-1.5099,-3.0236,-2.79,-2.3998,-2.3413,-2.4785,-2.5163,-2.6409,-2.8008,-3.0696,-3.0644,-2.9164,-2.7622,-2.6993,-2.6182,-2.6275,-2.619,-2.5802,-2.3783,-2.2819,-2.1776,-2.0656,-1.9552,-1.9305,-1.9297,-1.9305,-1.9329,-1.9289,-1.9272,-1.9281,-1.9305,-1.9248,-1.9256,-1.9337,-1.9337,-1.9198,-1.8908,-1.8749,-1.8686,-1.8762,-1.8465,-1.787,-1.7474,-1.707,-1.6381,-1.6182,-1.6381,-1.6871,-1.707,-1.7268,-1.7672,-1.7702,-1.7462,-1.7156,-1.6998,-1.6895,-1.6756,-1.6659,-1.6653,-1.6625,-1.6714,-1.6795,-1.67,-1.6558,-1.6449,-1.6503,-1.6503,-1.6463,-1.6374,-1.6347,-1.6246,-1.6164,-1.6117,-1.6239,-1.6395,-1.6544,-1.6693,-1.6822,-1.691,-1.6971,-1.6978,-1.6978,-1.6978,-1.6931,-1.6714,-1.6625,-1.6578,-1.6517,-1.6517,-1.6727,-1.6931,-1.6965,-1.6944,-1.6842,-1.6761,-1.6714,-1.6686,-1.6659,-1.6673,-1.6693,-1.6707,-1.672,-1.6754,-1.6781,-1.6727,-1.668,-1.6625,-1.6558,-1.6347,-1.6171,-1.6056,-1.5906,-1.5689,-1.5533,-1.5404,-1.5391,-3.127,-3.021,-2.7407,-2.5173,-2.3823,-2.6335,-2.7118,-2.7345,-3.0504,-3.1825,-3.0971,-3.0241,-2.9114,-2.8363,-2.8054,-2.7515,-2.6225,-2.4194,-2.35,-2.2397,-2.0937,-1.9725,-1.9467,-1.951,-1.9467,-1.9584,-1.9486,-1.9337,-1.9419,-1.9412,-1.9264,-1.9289,-1.9337,-1.9224,-1.9101,-1.9107,-1.9024,-1.9,-1.9067,-1.877,-1.797,-1.7672,-1.7367,-1.6672,-1.6573,-1.707,-1.7764,-1.7855,-1.8061,-1.8168,-1.8175,-1.7938,-1.7592,-1.7299,-1.712,-1.6898,-1.681,-1.6666,-1.6754,-1.6815,-1.6761,-1.6646,-1.6551,-1.6564,-1.6639,-1.6585,-1.6517,-1.6435,-1.6368,-1.6286,-1.613,-1.6178,-1.6307,-1.6476,-1.6625,-1.6768,-1.6876,-1.6951,-1.6978,-1.6978,-1.6978,-1.6978,-1.6917,-1.6829,-1.6775,-1.6624,-1.6666,-1.6659,-1.6849,-1.6992,-1.7019,-1.7039,-1.6944,-1.6897,-1.6849,-1.6802,-1.6748,-1.6775,-1.6809,-1.6815,-1.6829,-1.6883,-1.6897,-1.6842,-1.6815,-1.6795,-1.6734,-1.6612,-1.6435,-1.6218,-1.6035,-1.5859,-1.5723,-1.5608,-1.5574,-3.1677,-3.1569,-3.0115,-2.7888,-2.5561,-2.701,-2.7599,-2.7815,-2.9825,-3.1583,-3.2291,-3.2115,-3.1548,-3.0446,-3.0366,-3.0032,-2.8473,-2.6667,-2.5152,-2.3614,-2.2086,-2.0401,-1.9883,-2.0124,-2.0712,-2.0442,-2.0422,-2.0402,-2.047,-1.9701,-1.9371,-1.9264,-1.9256,-1.9199,-1.9256,-1.9305,-1.9394,-1.9345,-1.9238,-1.898,-1.8206,-1.8015,-1.7717,-1.7326,-1.7248,-1.7654,-1.8283,-1.8513,-1.8744,-1.8844,-1.8836,-1.8628,-1.8221,-1.7743,-1.7538,-1.727,-1.7104,-1.6907,-1.6815,-1.6863,-1.6768,-1.6727,-1.67,-1.6741,-1.6754,-1.6714,-1.6686,-1.6592,-1.6497,-1.6374,-1.6232,-1.632,-1.6442,-1.6598,-1.6666,-1.6788,-1.6897,-1.6978,-1.6978,-1.6978,-1.6978,-1.6978,-1.6958,-1.6897,-1.6836,-1.6809,-1.6815,-1.6809,-1.6917,-1.7019,-1.7046,-1.706,-1.7046,-1.7012,-1.6985,-1.6876,-1.6781,-1.6842,-1.6876,-1.689,-1.6917,-1.6965,-1.6978,-1.6924,-1.6924,-1.6965,-1.6904,-1.6781,-1.6558,-1.63,-1.613,-1.5967,-1.5886,-1.5771,-1.5635,-3.1664,-3.1677,-3.1569,-3.1379,-3.0414,-2.7214,-2.7803,-3.021,-2.9758,-3.0179,-3.1742,-3.2198,-3.2425,-3.2239,-3.2261,-3.216,-3.1476,-2.9767,-2.7792,-2.5477,-2.2807,-2.1171,-2.0552,-2.0724,-2.1416,-2.2219,-2.163,-2.1273,-2.2069,-2.0204,-1.9495,-1.9321,-1.9362,-1.9345,-1.95,-1.967,-1.9662,-1.9532,-1.9492,-1.9163,-1.8901,-1.8529,-1.8191,-1.7966,-1.7866,-1.8151,-1.8722,-1.9009,-1.925,-1.9468,-1.9577,-1.9274,-1.8971,-1.8776,-1.8323,-1.7669,-1.7593,-1.7251,-1.6775,-1.6897,-1.6924,-1.6904,-1.6863,-1.6904,-1.6944,-1.6931,-1.6849,-1.6707,-1.668,-1.6619,-1.6551,-1.6517,-1.6605,-1.6673,-1.6734,-1.6822,-1.6931,-1.6978,-1.6978,-1.7012,-1.6998,-1.6978,-1.6978,-1.6951,-1.6883,-1.6876,-1.6924,-1.6978,-1.7026,-1.7032,-1.7046,-1.708,-1.7087,-1.7026,-1.6971,-1.6876,-1.6829,-1.689,-1.6944,-1.6971,-1.6965,-1.6971,-1.6978,-1.6985,-1.6978,-1.6978,-1.6978,-1.6951,-1.6727,-1.6497,-1.6239,-1.6076,-1.6008,-1.592,-1.5778,-3.1383,-3.1396,-3.1583,-3.1677,-3.15,-3.051,-2.9896,-2.9841,-3.0306,-3.1093,-3.1595,-3.1917,-3.1957,-3.2144,-3.2572,-3.2893,-3.2274,-2.9102,-2.6802,-2.6086,-2.2992,-2.0871,-2.0025,-2.0465,-2.1641,-2.204,-2.1795,-2.1741,-2.2703,-2.0548,-1.9708,-1.9573,-1.954,-1.95,-1.9402,-1.9435,-1.9427,-1.95,-1.9424,-1.938,-1.9018,-1.8761,-1.8606,-1.8559,-1.8482,-1.8784,-1.9282,-1.9479,-1.9613,-1.9833,-1.9841,-1.9731,-1.941,-1.9308,-1.8939,-1.8386,-1.8196,-1.7418,-1.7071,-1.6965,-1.6971,-1.6978,-1.6978,-1.6978,-1.6978,-1.6978,-1.689,-1.6802,-1.6775,-1.6686,-1.6551,-1.6632,-1.6714,-1.6748,-1.6809,-1.6897,-1.6978,-1.6978,-1.6992,-1.706,-1.7073,-1.7032,-1.7019,-1.7066,-1.7026,-1.6992,-1.7032,-1.7053,-1.7093,-1.7039,-1.7026,-1.708,-1.7087,-1.7019,-1.6958,-1.6937,-1.6917,-1.6965,-1.7026,-1.7073,-1.7053,-1.7039,-1.7019,-1.7046,-1.7012,-1.6978,-1.6992,-1.6985,-1.6904,-1.6714,-1.6449,-1.6171,-1.6015,-1.5961,-1.5906,-3.1289,-3.1396,-3.1583,-3.1677,-3.1595,-3.1086,-3.0018,-2.9295,-3.1042,-3.1971,-3.1984,-3.1984,-3.2011,-3.2144,-3.2438,-3.2692,-3.2313,-2.9447,-2.6802,-2.5997,-2.2819,-2.0828,-2.0017,-2.035,-2.242,-2.2794,-2.2139,-2.1786,-2.4008,-2.0907,-1.9708,-1.9622,-1.9752,-1.9605,-1.9467,-1.9451,-1.9492,-1.9557,-1.9481,-1.9618,-1.9378,-1.9244,-1.9189,-1.9268,-1.9252,-1.9298,-1.9731,-1.9898,-1.9914,-1.9938,-1.9963,-1.9963,-1.986,-1.9679,-1.9411,-1.9076,-1.8292,-1.7509,-1.7161,-1.6971,-1.6978,-1.6978,-1.6978,-1.6978,-1.6978,-1.6978,-1.6937,-1.687,-1.6829,-1.6775,-1.6714,-1.6802,-1.6815,-1.6849,-1.6883,-1.6971,-1.7039,-1.7046,-1.7066,-1.7127,-1.7209,-1.7154,-1.7114,-1.7154,-1.7182,-1.7161,-1.7148,-1.7148,-1.7141,-1.7073,-1.7012,-1.7046,-1.708,-1.7026,-1.7032,-1.708,-1.7066,-1.7053,-1.7134,-1.7229,-1.7216,-1.7216,-1.7161,-1.7127,-1.7154,-1.7154,-1.7066,-1.7005,-1.6951,-1.6836,-1.6646,-1.6361,-1.6069,-1.6035,-1.6069,-3.137,-3.1623,-3.165,-3.165,-3.1392,-3.0013,-2.9176,-2.9396,-3.1594,-3.2576,-3.2492,-3.2425,-3.2372,-3.2505,-3.2799,-3.2893,-3.2123,-3.0255,-2.8088,-2.5833,-2.3031,-2.1145,-2.0363,-2.0922,-2.2879,-2.3938,-2.3622,-2.2485,-2.5246,-2.1613,-1.9641,-1.9557,-1.9695,-1.963,-1.9597,-1.9549,-1.9573,-1.9557,-1.967,-1.9825,-1.9718,-1.9788,-1.9812,-1.9852,-1.982,-1.982,-2.0011,-2.0076,-2.015,-2.0214,-2.0279,-2.0296,-2.0304,-2.0312,-1.9903,-1.9388,-1.8447,-1.7839,-1.725,-1.7264,-1.7012,-1.7026,-1.7012,-1.6992,-1.6978,-1.6978,-1.6958,-1.6944,-1.6924,-1.6944,-1.6958,-1.6951,-1.6944,-1.6951,-1.6951,-1.7032,-1.7121,-1.7154,-1.7175,-1.7249,-1.7358,-1.7365,-1.7331,-1.7344,-1.7324,-1.7304,-1.7263,-1.7188,-1.7168,-1.7093,-1.7039,-1.6998,-1.7026,-1.7026,-1.7073,-1.7195,-1.7229,-1.7222,-1.7365,-1.746,-1.7433,-1.7392,-1.7372,-1.7358,-1.7372,-1.7317,-1.7168,-1.7073,-1.7026,-1.6897,-1.6768,-1.6578,-1.63,-1.6313,-1.632,-3.0782,-3.1062,-3.1263,-3.1476,-3.1622,-3.1526,-3.1562,-3.1979,-3.2217,-3.2238,-3.2225,-3.2225,-3.2291,-3.2265,-3.2532,-3.2652,-3.13,-2.9186,-2.7187,-2.4997,-2.268,-2.0664,-1.9933,-2.0405,-2.2884,-2.3708,-2.3446,-2.2634,-2.478,-2.1992,-1.982,-1.9743,-1.9695,-1.967,-1.9638,-1.9524,-1.9508,-1.9549,-1.9687,-1.9849,-2.0003,-1.9987,-2.0076,-2.0125,-2.0044,-2.0068,-2.0174,-2.0206,-2.0263,-2.0304,-2.032,-2.032,-2.032,-2.0328,-2.0031,-1.9762,-1.9046,-1.8441,-1.7882,-1.7401,-1.7134,-1.7233,-1.7226,-1.706,-1.7019,-1.6992,-1.6992,-1.7005,-1.6985,-1.6978,-1.6978,-1.6978,-1.6978,-1.6978,-1.6985,-1.7026,-1.7114,-1.7202,-1.7236,-1.7405,-1.7514,-1.7521,-1.7494,-1.7467,-1.7446,-1.7433,-1.7392,-1.7317,-1.7229,-1.7168,-1.7087,-1.7046,-1.7093,-1.7134,-1.7229,-1.7351,-1.7378,-1.7419,-1.7568,-1.765,-1.7575,-1.7548,-1.7568,-1.7561,-1.7541,-1.7392,-1.7202,-1.7161,-1.7195,-1.7032,-1.6897,-1.672,-1.6585,-1.6564,-1.653,-3.0875,-3.1156,-3.133,-3.1637,-3.2024,-3.2265,-3.2585,-3.2853,-3.2599,-3.2398,-3.2278,-3.2291,-3.2278,-3.2318,-3.2478,-3.2559,-3.2239,-2.9335,-2.7018,-2.5142,-2.2199,-2.0677,-1.98,-1.9742,-2.1686,-2.2662,-2.2553,-2.1691,-2.3638,-2.2467,-1.9979,-1.9906,-1.976,-1.98,-1.9784,-1.9613,-1.9459,-1.9516,-1.963,-1.9784,-1.9914,-2.0036,-2.0166,-2.0247,-2.0141,-2.0182,-2.0279,-2.0279,-2.0255,-2.0304,-2.032,-2.032,-2.032,-2.0328,-2.0192,-1.9793,-1.9515,-1.8855,-1.8302,-1.8181,-1.7718,-1.759,-1.7662,-1.7685,-1.7431,-1.7298,-1.7186,-1.708,-1.7019,-1.6978,-1.6978,-1.6978,-1.6978,-1.6978,-1.6992,-1.7005,-1.7107,-1.7216,-1.7372,-1.7555,-1.7623,-1.7629,-1.7616,-1.7589,-1.7602,-1.7629,-1.7623,-1.7555,-1.7446,-1.7338,-1.7222,-1.7127,-1.7209,-1.729,-1.7399,-1.7494,-1.7534,-1.7616,-1.7779,-1.7819,-1.7731,-1.7785,-1.7874,-1.7799,-1.7677,-1.7534,-1.7405,-1.7412,-1.7405,-1.7216,-1.7046,-1.6924,-1.6788,-1.6707,-1.6666,-3.1356,-3.161,-3.1664,-3.1957,-3.2522,-3.2225,-3.2412,-3.2879,-3.2812,-3.2732,-3.2492,-3.2492,-3.2438,-3.2385,-3.2438,-3.2549,-3.1763,-2.9675,-2.7284,-2.5776,-2.3268,-2.1165,-1.9726,-1.9495,-2.1206,-2.1622,-2.1374,-2.0704,-2.1732,-2.1097,-1.9995,-2.0044,-1.9946,-1.9914,-1.9882,-1.9581,-1.9427,-1.9435,-1.95,-1.9597,-1.9808,-1.9971,-2.0141,-2.0263,-2.0214,-2.0166,-2.0239,-2.0223,-2.0158,-2.0263,-2.032,-2.032,-2.032,-2.0369,-2.0151,-2.0067,-1.9828,-1.957,-1.9115,-1.8899,-1.8553,-1.8381,-1.8395,-1.8359,-1.8024,-1.76,-1.7466,-1.7367,-1.7326,-1.7186,-1.708,-1.7053,-1.7046,-1.7005,-1.6985,-1.7012,-1.7073,-1.7236,-1.7467,-1.7629,-1.7717,-1.7731,-1.7751,-1.7731,-1.7717,-1.7799,-1.7758,-1.7697,-1.7629,-1.7494,-1.7378,-1.7249,-1.7344,-1.7446,-1.7534,-1.7629,-1.7697,-1.7806,-1.7982,-1.8009,-1.7928,-1.8043,-1.8213,-1.8063,-1.7894,-1.7792,-1.7697,-1.7616,-1.748,-1.7317,-1.7175,-1.7121,-1.7019,-1.689,-1.6815,-3.1062,-3.1356,-3.157,-3.1877,-3.2185,-3.2131,-3.2171,-3.2305,-3.2305,-3.2278,-3.2211,-3.2211,-3.2225,-3.2238,-3.2251,-3.2251,-3.1675,-3.0215,-2.7619,-2.5766,-2.3638,-2.1845,-1.9776,-1.961,-2.0764,-2.1513,-2.1147,-1.9882,-2.041,-2.0207,-1.9849,-1.9841,-1.9784,-1.9752,-1.9857,-1.9532,-1.9378,-1.9386,-1.9427,-1.9549,-1.9776,-1.9971,-2.0141,-2.0255,-2.0263,-2.0255,-2.0304,-2.0296,-2.0271,-2.032,-2.032,-2.032,-2.032,-2.045,-2.0604,-2.0554,-2.0344,-2.0085,-1.9898,-1.9657,-1.927,-1.9184,-1.9139,-1.8864,-1.8445,-1.8053,-1.7748,-1.7655,-1.7542,-1.7295,-1.7148,-1.7121,-1.71,-1.7039,-1.6985,-1.7012,-1.7053,-1.7304,-1.7555,-1.7684,-1.7792,-1.7833,-1.7853,-1.786,-1.786,-1.7812,-1.7724,-1.7663,-1.767,-1.7589,-1.7528,-1.7439,-1.7514,-1.7609,-1.7697,-1.7779,-1.786,-1.8009,-1.8186,-1.8179,-1.8124,-1.8111,-1.8131,-1.8186,-1.8118,-1.7975,-1.7806,-1.7609,-1.7473,-1.7412,-1.7344,-1.7297,-1.7182,-1.7046,-1.6978,-3.1076,-3.1249,-3.1543,-3.1837,-3.2051,-3.1971,-3.1971,-3.2064,-3.1971,-3.1917,-3.1944,-3.2038,-3.2104,-3.2104,-3.2104,-3.2091,-3.1832,-3.0721,-2.9004,-2.6925,-2.4601,-2.2808,-2.1273,-1.9808,-2.0117,-2.0863,-2.0376,-1.9654,-1.9613,-1.9613,-1.967,-1.9735,-1.963,-1.9597,-1.9727,-1.9516,-1.9362,-1.9386,-1.9419,-1.9589,-1.9784,-1.9914,-2.0093,-2.0223,-2.032,-2.032,-2.032,-2.032,-2.032,-2.032,-2.032,-2.032,-2.0336,-2.0393,-2.0596,-2.0676,-2.0639,-2.0621,-2.0592,-2.0395,-1.9959,-1.9887,-2.0131,-1.9892,-1.9536,-1.9033,-1.8295,-1.8074,-1.7449,-1.7195,-1.7093,-1.7039,-1.71,-1.7087,-1.7046,-1.7039,-1.7202,-1.7439,-1.7636,-1.7779,-1.784,-1.7846,-1.786,-1.786,-1.786,-1.786,-1.7758,-1.7684,-1.7677,-1.7677,-1.7616,-1.7602,-1.7663,-1.7785,-1.7907,-1.7975,-1.8036,-1.8206,-1.8369,-1.8362,-1.8308,-1.8111,-1.8023,-1.8131,-1.8172,-1.8091,-1.7907,-1.7758,-1.7704,-1.7684,-1.7589,-1.7487,-1.7351,-1.7222,-1.7154,-3.1183,-3.1263,-3.1503,-3.1784,-3.1984,-3.1784,-3.181,-3.1971,-3.1784,-3.169,-3.1717,-3.1931,-3.2038,-3.2051,-3.2051,-3.2051,-3.1862,-3.1376,-3.0128,-2.8272,-2.6238,-2.3951,-2.1906,-2.0359,-2.0141,-1.9874,-1.9722,-1.963,-1.9622,-1.9597,-1.9613,-1.9719,-1.9695,-1.963,-1.9687,-1.9613,-1.9475,-1.9467,-1.9532,-1.9703,-1.9776,-1.9808,-2.002,-2.0198,-2.0296,-2.0304,-2.0312,-2.032,-2.032,-2.032,-2.032,-2.032,-2.0353,-2.0401,-2.0547,-2.0742,-2.0856,-2.0751,-2.0748,-2.1015,-2.0592,-2.038,-2.0895,-2.0799,-2.0333,-1.97,-1.8948,-1.8302,-1.7783,-1.7507,-1.7397,-1.7172,-1.724,-1.7274,-1.7233,-1.7141,-1.7365,-1.7555,-1.7697,-1.7846,-1.786,-1.786,-1.786,-1.786,-1.7853,-1.7853,-1.7819,-1.7751,-1.7704,-1.7704,-1.7684,-1.7704,-1.7758,-1.7901,-1.805,-1.8091,-1.8111,-1.8308,-1.8443,-1.8498,-1.8464,-1.8213,-1.8084,-1.8131,-1.8145,-1.807,-1.8104,-1.803,-1.7989,-1.7901,-1.7724,-1.7582,-1.7555,-1.7433,-1.7338,-3.1022,-3.1236,-3.1289,-3.1476,-3.1717,-3.1677,-3.1704,-3.173,-3.1704,-3.1677,-3.169,-3.1704,-3.1757,-3.1757,-3.1757,-3.177,-3.181,-3.169,-3.0414,-2.8464,-2.6528,-2.4407,-2.2387,-2.0565,-1.9602,-1.9378,-1.9435,-1.9386,-1.9467,-1.95,-1.9589,-1.9727,-1.9752,-1.9711,-1.9711,-1.9605,-1.9467,-1.9451,-1.9532,-1.967,-1.9776,-1.9849,-2.0003,-2.0125,-2.019,-2.0231,-2.0271,-2.032,-2.032,-2.032,-2.0328,-2.0328,-2.0369,-2.0442,-2.0572,-2.0726,-2.0832,-2.1043,-2.1129,-2.1169,-2.0897,-2.104,-2.1226,-2.0931,-2.0434,-2.01,-1.9555,-1.9105,-1.8606,-1.8514,-1.835,-1.7989,-1.7946,-1.7718,-1.7583,-1.7493,-1.7555,-1.7636,-1.7717,-1.7812,-1.786,-1.786,-1.786,-1.7846,-1.7812,-1.7799,-1.7758,-1.7697,-1.7677,-1.7704,-1.7738,-1.7772,-1.7819,-1.7941,-1.8057,-1.8084,-1.8145,-1.8348,-1.8484,-1.8477,-1.8409,-1.8253,-1.8172,-1.8165,-1.8091,-1.8009,-1.8063,-1.8158,-1.8091,-1.7968,-1.7772,-1.765,-1.7656,-1.7602,-1.746]},{"header":{"parameterUnit":"m.s-1","parameterCategory":1,"la1":31.0,"la2":29.5877,"lo1":-88.7671,"lo2":-86.6584,"dy":0.0162,"dx":0.0185,"nx":115,"ny":88,"refTime":"2023-10-23T12:00:00:Z","depth":0,"parameterNumber":3,"parameterNumberName":"V-component_of_WINDS"},"data":[0.0,0.0,0.0,0.0,0.0,0.0,0.0,0.0,0.0,0.0,0.0,0.0,0.0,0.0,0.0,0.0,0.0,0.0,0.0,0.0,0.0,0.0,0.0,0.0,0.0,0.0,0.0,0.0,0.0,0.0,0.0,0.0,0.0,0.0,0.0,0.0,0.0,0.0,0.0,0.0,0.0,0.0,0.0,0.0,0.0,0.0,0.0,0.0,0.0,0.0,0.0,0.0,0.0,0.0,0.0,0.0,0.0,0.0,0.0,0.0,0.0,0.0,0.0,0.0,0.0,0.0,0.0,0.0,0.0,0.0,0.0,0.0,0.0,0.0,0.0,0.0,0.0,0.0,0.0,0.0,0.0,0.0,0.0,0.0,0.0,0.0,0.0,0.0,0.0,0.0,0.0,0.0,0.0,0.0,0.0,0.0,0.0,0.0,0.0,0.0,0.0,0.0,0.0,0.0,0.0,0.0,0.0,0.0,0.0,0.0,0.0,0.0,0.0,0.0,0.0,0.0,0.0,0.0,0.0,0.0,0.0,0.0,0.0,0.0,0.0,0.0,0.0,0.0,0.0,0.0,0.0,0.0,0.0,0.0,0.0,0.0,0.0,0.0,0.0,0.0,0.0,0.0,0.0,0.0,0.0,0.0,0.0,0.0,0.0,0.0,0.0,0.0,0.0,0.0,0.0,0.0,0.0,0.0,0.0,0.0,0.0,0.0,0.0,0.0,0.0,0.0,0.0,0.0,0.0,0.0,0.0,0.0,0.0,0.0,0.0,0.0,0.0,0.0,0.0,0.0,0.0,0.0,0.0,0.0,0.0,0.0,0.0,0.0,0.0,0.0,0.0,0.0,0.0,0.0,0.0,0.0,0.0,0.0,0.0,0.0,0.0,0.0,0.0,0.0,0.0,0.0,0.0,0.0,0.0,0.0,0.0,0.0,0.0,0.0,0.0,0.0,0.0,0.0,0.0,0.0,0.0,0.0,0.0,0.0,0.0,0.0,0.0,0.0,0.0,0.0,0.0,0.0,0.0,0.0,0.0,0.0,0.0,0.0,0.0,0.0,0.0,0.0,0.0,0.0,0.0,0.0,0.0,0.0,0.0,0.0,0.0,0.0,0.0,0.0,0.0,0.0,0.0,0.0,0.0,0.0,0.0,0.0,0.0,0.0,0.0,0.0,0.0,0.0,0.0,0.0,0.0,0.0,0.0,0.0,0.0,0.0,0.0,0.0,0.0,0.0,0.0,0.0,0.0,0.0,0.0,0.0,0.0,0.0,0.0,0.0,0.0,0.0,0.0,0.0,0.0,0.0,0.0,0.0,0.0,0.0,0.0,0.0,0.0,0.0,0.0,0.0,0.0,0.0,0.0,0.0,0.0,0.0,0.0,0.0,0.0,0.0,0.0,0.0,0.0,0.0,0.0,0.0,0.0,0.0,0.0,0.0,0.0,0.0,0.0,0.0,0.0,0.0,0.0,0.0,0.0,0.0,0.0,0.0,0.0,0.0,0.0,0.0,0.0,0.0,0.0,0.0,0.0,0.0,0.0,0.0,0.0,0.0,0.0,0.0,0.0,0.0,0.0,0.0,0.0,0.0,0.0,0.0,0.0,0.0,0.0,0.0,0.0,0.0,0.0,0.0,0.0,0.0,0.0,0.0,0.0,0.0,0.0,0.0,0.0,0.0,0.0,0.0,0.0,0.0,0.0,0.0,0.0,0.0,0.0,0.0,0.0,0.0,0.0,0.0,0.0,0.0,0.0,0.0,0.0,0.0,0.0,0.0,0.0,0.0,0.0,0.0,0.0,0.0,0.0,0.0,0.0,0.0,0.0,0.0,0.0,0.0,0.0,0.0,0.0,0.0,0.0,0.0,0.0,0.0,0.0,0.0,0.0,0.0,0.0,0.0,0.0,0.0,0.0,0.0,0.0,0.0,0.0,0.0,0.0,0.0,0.0,0.0,0.0,0.0,0.0,0.0,0.0,0.0,0.0,0.0,0.0,0.0,0.0,0.0,0.0,0.0,0.0,0.0,0.0,0.0,0.0,0.0,0.0,0.0,0.0,0.0,0.0,0.0,0.0,0.0,0.0,0.0,0.0,0.0,0.0,0.0,0.0,0.0,0.0,0.0,0.0,0.0,0.0,0.0,0.0,0.0,0.0,0.0,0.0,0.0,0.0,0.0,0.0,0.0,0.0,0.0,0.0,0.0,0.0,0.0,0.0,0.0,0.0,0.0,0.0,0.0,0.0,0.0,0.0,0.0,0.0,0.0,0.0,0.0,0.0,0.0,0.0,0.0,0.0,0.0,0.0,0.0,0.0,0.0,0.0,0.0,0.0,0.0,0.0,0.0,0.0,0.0,0.0,0.0,0.0,0.0,0.0,0.0,0.0,0.0,0.0,0.0,0.0,0.0,0.0,0.0,0.0,0.0,0.0,0.0,0.0,0.0,0.0,0.0,0.0,0.0,0.0,0.0,0.0,0.0,0.0,0.0,0.0,0.0,0.0,0.0,0.0,0.0,0.0,0.0,0.0,0.0,0.0,0.0,0.0,0.0,0.0,0.0,0.0,0.0,0.0,0.0,0.0,0.0,0.0,0.0,0.0,0.0,0.0,0.0,0.0,0.0,0.0,0.0,0.0,0.0,0.0,0.0,0.0,0.0,0.0,0.0,0.0,0.0,0.0,0.0,0.0,0.0,0.0,0.0,0.0,0.0,0.0,0.0,0.0,0.0,0.0,0.0,0.0,0.0,0.0,0.0,0.0,0.0,0.0,0.0,0.0,0.0,0.0,0.0,0.0,0.0,0.0,0.0,0.0,0.0,0.0,0.0,0.0,0.0,0.0,0.0,0.0,0.0,0.0,0.0,0.0,0.0,0.0,0.0,0.0,0.0,0.0,0.0,0.0,0.0,0.0,0.0,0.0,0.0,0.0,0.0,0.0,0.0,0.0,0.0,0.0,0.0,0.0,0.0,0.0,0.0,0.0,0.0,0.0,0.0,0.0,0.0,0.0,0.0,0.0,0.0,0.0,0.0,0.0,0.0,0.0,0.0,0.0,0.0,0.0,0.0,0.0,0.0,0.0,0.0,0.0,0.0,0.0,0.0,0.0,0.0,0.0,0.0,0.0,0.0,0.0,0.0,0.0,0.0,0.0,0.0,0.0,0.0,0.0,0.0,0.0,0.0,0.0,0.0,0.0,0.0,0.0,0.0,0.0,0.0,0.0,0.0,0.0,0.0,0.0,0.0,0.0,0.0,0.0,0.0,0.0,0.0,0.0,0.0,0.0,0.0,0.0,0.0,0.0,0.0,0.0,0.0,0.0,0.0,0.0,0.0,0.0,0.0,0.0,0.0,0.0,0.0,0.0,0.0,0.0,0.0,0.0,0.0,0.0,0.0,0.0,0.0,0.0,0.0,0.0,0.0,0.0,0.0,0.0,0.0,0.0,0.0,0.0,0.0,0.0,0.0,0.0,0.0,0.0,0.0,0.0,0.0,0.0,0.0,0.0,0.0,0.0,0.0,0.0,0.0,0.0,0.0,0.0,0.0,0.0,0.0,0.0,0.0,0.0,0.0,0.0,0.0,0.0,0.0,0.0,0.0,0.0,0.0,0.0,0.0,0.0,0.0,0.0,0.0,0.0,0.0,0.0,0.0,0.0,0.0,0.0,0.0,0.0,0.0,0.0,0.0,0.0,0.0,0.0,0.0,0.0,0.0,0.0,0.0,0.0,0.0,0.0,0.0,0.0,0.0,0.0,0.0,0.0,0.0,0.0,0.0,0.0,0.0,0.0,0.0,0.0,0.0,0.0,0.0,0.0,0.0,0.0,0.0,0.0,0.0,0.0,0.0,0.0,0.0,0.0,0.0,0.0,0.0,0.0,0.0,0.0,0.0,0.0,0.0,0.0,0.0,0.0,0.0,0.0,0.0,0.0,0.0,0.0,0.0,0.0,0.0,0.0,0.0,0.0,0.0,0.0,0.0,0.0,0.0,0.0,0.0,0.0,0.0,0.0,0.0,0.0,0.0,0.0,0.0,0.0,0.0,0.0,0.0,0.0,0.0,0.0,0.0,0.0,0.0,0.0,0.0,0.0,0.0,0.0,0.0,0.0,0.0,0.0,0.0,0.0,0.0,0.0,0.0,0.0,0.0,0.0,0.0,0.0,0.0,0.0,0.0,0.0,0.0,0.0,0.0,0.0,0.0,0.0,0.0,0.0,0.0,0.0,0.0,0.0,0.0,0.0,0.0,0.0,0.0,0.0,0.0,0.0,0.0,0.0,0.0,3.7554,0.0,0.0,0.0,0.0,0.0,0.0,0.0,0.0,0.0,0.0,0.0,0.0,0.0,0.0,0.0,0.0,0.0,0.0,0.0,0.0,0.0,0.0,0.0,0.0,0.0,0.0,0.0,0.0,0.0,0.0,0.0,0.0,0.0,0.0,0.0,0.0,0.0,0.0,0.0,0.0,0.0,0.0,0.0,0.0,0.0,0.0,0.0,0.0,0.0,0.0,0.0,0.0,0.0,0.0,0.0,0.0,0.0,0.0,0.0,0.0,0.0,0.0,0.0,0.0,0.0,0.0,0.0,0.0,0.0,0.0,0.0,0.0,0.0,0.0,0.0,0.0,0.0,0.0,0.0,0.0,0.0,0.0,0.0,0.0,0.0,0.0,0.0,0.0,0.0,0.0,0.0,0.0,0.0,0.0,0.0,0.0,0.0,0.0,0.0,0.0,0.0,0.0,0.0,0.0,0.0,0.0,0.0,0.0,0.0,0.0,4.1124,4.0074,4.0078,3.9582,3.8631,0.0,0.0,0.0,0.0,0.0,0.0,0.0,0.0,0.0,0.0,0.0,0.0,0.0,0.0,0.0,0.0,0.0,0.0,0.0,0.0,0.0,0.0,0.0,0.0,0.0,0.0,0.0,0.0,0.0,0.0,0.0,0.0,0.0,0.0,0.0,0.0,0.0,0.0,0.0,0.0,0.0,0.0,0.0,0.0,0.0,0.0,0.0,0.0,0.0,0.0,0.0,0.0,0.0,0.0,0.0,0.0,0.0,0.0,0.0,0.0,0.0,0.0,0.0,0.0,0.0,0.0,0.0,0.0,0.0,0.0,0.0,0.0,0.0,0.0,0.0,0.0,0.0,0.0,0.0,0.0,0.0,0.0,0.0,0.0,0.0,0.0,0.0,0.0,0.0,0.0,0.0,0.0,0.0,0.0,0.0,0.0,0.0,0.0,0.0,0.0,0.0,0.0,0.0,0.0,0.0,0.0,0.0,0.0,0.0,0.0,0.0,0.0,4.1181,4.072,3.9736,0.0,0.0,0.0,0.0,0.0,0.0,0.0,0.0,0.0,0.0,0.0,0.0,0.0,0.0,0.0,0.0,0.0,0.0,0.0,0.0,0.0,0.0,0.0,0.0,0.0,0.0,0.0,0.0,0.0,0.0,0.0,0.0,0.0,0.0,0.0,0.0,0.0,0.0,0.0,0.0,0.0,0.0,0.0,0.0,0.0,0.0,0.0,0.0,0.0,0.0,0.0,0.0,0.0,0.0,0.0,0.0,0.0,0.0,0.0,0.0,0.0,0.0,0.0,0.0,0.0,0.0,0.0,0.0,0.0,0.0,0.0,0.0,0.0,0.0,0.0,0.0,0.0,0.0,0.0,0.0,0.0,0.0,0.0,0.0,0.0,0.0,0.0,0.0,0.0,0.0,0.0,0.0,0.0,0.0,0.0,0.0,0.0,0.0,0.0,0.0,0.0,0.0,0.0,0.0,0.0,0.0,0.0,0.0,0.0,0.0,4.1388,4.3248,4.3316,0.0,4.057,0.0,0.0,0.0,0.0,0.0,0.0,0.0,0.0,0.0,0.0,0.0,0.0,0.0,0.0,0.0,0.0,0.0,0.0,0.0,0.0,0.0,0.0,0.0,0.0,0.0,0.0,0.0,0.0,0.0,0.0,0.0,0.0,0.0,0.0,0.0,0.0,0.0,0.0,0.0,0.0,0.0,0.0,0.0,0.0,0.0,0.0,0.0,0.0,0.0,0.0,0.0,0.0,0.0,0.0,0.0,0.0,0.0,0.0,0.0,0.0,0.0,0.0,0.0,0.0,0.0,0.0,0.0,0.0,0.0,0.0,0.0,0.0,0.0,0.0,0.0,0.0,0.0,0.0,0.0,0.0,0.0,0.0,0.0,0.0,0.0,0.0,0.0,0.0,0.0,0.0,0.0,0.0,0.0,0.0,0.0,0.0,0.0,0.0,0.0,0.0,0.0,0.0,0.0,0.0,0.0,0.0,0.0,0.0,0.0,0.0,4.2047,4.3002,4.2602,4.1801,0.0,0.0,0.0,0.0,0.0,0.0,0.0,0.0,0.0,0.0,0.0,0.0,0.0,0.0,0.0,0.0,0.0,0.0,0.0,0.0,0.0,0.0,0.0,0.0,0.0,0.0,0.0,0.0,0.0,0.0,0.0,0.0,0.0,0.0,0.0,0.0,0.0,0.0,0.0,0.0,0.0,0.0,0.0,0.0,0.0,0.0,0.0,0.0,0.0,0.0,0.0,0.0,0.0,0.0,0.0,0.0,0.0,0.0,0.0,0.0,0.0,0.0,0.0,0.0,0.0,0.0,0.0,0.0,0.0,0.0,0.0,0.0,0.0,0.0,0.0,0.0,0.0,0.0,0.0,0.0,0.0,0.0,0.0,0.0,0.0,0.0,0.0,0.0,0.0,0.0,0.0,0.0,0.0,0.0,0.0,0.0,0.0,0.0,0.0,0.0,0.0,0.0,0.0,0.0,0.0,0.0,0.0,0.0,0.0,0.0,4.1578,4.2483,4.3328,4.2786,4.1832,4.0536,0.0,0.0,0.0,0.0,0.0,0.0,0.0,0.0,0.0,0.0,0.0,0.0,0.0,0.0,0.0,0.0,0.0,0.0,0.0,0.0,0.0,0.0,0.0,0.0,0.0,0.0,0.0,0.0,0.0,0.0,0.0,0.0,0.0,0.0,0.0,0.0,0.0,0.0,0.0,0.0,0.0,0.0,0.0,0.0,0.0,0.0,0.0,0.0,0.0,0.0,0.0,0.0,0.0,0.0,0.0,0.0,0.0,0.0,0.0,0.0,0.0,0.0,0.0,0.0,0.0,0.0,0.0,0.0,0.0,0.0,0.0,0.0,0.0,0.0,0.0,0.0,0.0,0.0,0.0,0.0,0.0,0.0,0.0,0.0,0.0,0.0,0.0,0.0,0.0,0.0,0.0,0.0,0.0,0.0,0.0,0.0,0.0,0.0,0.0,0.0,0.0,0.0,0.0,0.0,0.0,0.0,0.0,0.0,4.4384,4.2468,4.2644,4.5333,4.4825,4.3217,0.0,0.0,0.0,0.0,0.0,0.0,0.0,0.0,0.0,0.0,0.0,0.0,0.0,0.0,0.0,0.0,0.0,0.0,0.0,0.0,0.0,0.0,0.0,0.0,0.0,0.0,0.0,0.0,0.0,0.0,0.0,0.0,0.0,0.0,0.0,0.0,0.0,0.0,0.0,0.0,0.0,0.0,0.0,0.0,0.0,0.0,0.0,0.0,0.0,0.0,0.0,0.0,0.0,0.0,0.0,0.0,0.0,0.0,0.0,0.0,0.0,0.0,0.0,0.0,0.0,0.0,0.0,0.0,0.0,0.0,0.0,0.0,0.0,0.0,0.0,0.0,0.0,0.0,0.0,0.0,0.0,0.0,0.0,0.0,0.0,0.0,0.0,0.0,0.0,0.0,0.0,0.0,0.0,0.0,0.0,0.0,0.0,0.0,0.0,0.0,0.0,0.0,0.0,0.0,0.0,0.0,0.0,0.0,0.0,4.0535,4.2025,4.4065,4.6625,4.4172,4.2417,0.0,0.0,0.0,0.0,0.0,0.0,0.0,0.0,0.0,0.0,0.0,0.0,0.0,0.0,0.0,0.0,0.0,0.0,0.0,0.0,0.0,0.0,0.0,0.0,0.0,0.0,0.0,0.0,0.0,0.0,0.0,0.0,0.0,0.0,0.0,0.0,0.0,0.0,0.0,0.0,0.0,0.0,0.0,0.0,0.0,0.0,0.0,0.0,0.0,0.0,0.0,0.0,0.0,0.0,0.0,0.0,0.0,0.0,0.0,0.0,0.0,0.0,0.0,0.0,0.0,0.0,0.0,0.0,0.0,0.0,0.0,0.0,0.0,0.0,0.0,0.0,0.0,0.0,0.0,0.0,0.0,0.0,0.0,0.0,0.0,0.0,0.0,0.0,0.0,0.0,0.0,0.0,0.0,0.0,0.0,0.0,0.0,0.0,0.0,0.0,0.0,0.0,0.0,0.0,0.0,0.0,0.0,0.0,0.0,3.9383,0.0,4.5464,4.6449,4.3802,4.1955,0.0,0.0,0.0,0.0,0.0,0.0,0.0,0.0,0.0,0.0,0.0,0.0,0.0,0.0,0.0,0.0,0.0,0.0,0.0,0.0,0.0,0.0,0.0,0.0,0.0,0.0,0.0,0.0,0.0,0.0,0.0,0.0,0.0,0.0,0.0,0.0,0.0,0.0,0.0,0.0,0.0,0.0,0.0,0.0,0.0,0.0,0.0,0.0,0.0,0.0,0.0,0.0,0.0,0.0,0.0,0.0,0.0,0.0,0.0,0.0,0.0,0.0,0.0,0.0,0.0,0.0,0.0,0.0,0.0,0.0,0.0,0.0,0.0,0.0,0.0,0.0,0.0,0.0,0.0,0.0,0.0,0.0,0.0,0.0,0.0,0.0,0.0,0.0,0.0,0.0,0.0,0.0,0.0,0.0,0.0,0.0,0.0,0.0,0.0,0.0,0.0,0.0,0.0,0.0,0.0,0.0,0.0,0.0,3.8131,4.1761,4.5444,4.6542,4.4726,4.3925,4.1986,0.0,0.0,0.0,0.0,0.0,0.0,0.0,0.0,0.0,0.0,0.0,0.0,0.0,0.0,0.0,0.0,0.0,0.0,0.0,0.0,0.0,0.0,0.0,0.0,0.0,0.0,0.0,0.0,0.0,0.0,0.0,0.0,0.0,0.0,0.0,0.0,0.0,0.0,0.0,0.0,0.0,0.0,0.0,0.0,0.0,0.0,0.0,0.0,0.0,0.0,0.0,0.0,0.0,0.0,0.0,0.0,0.0,0.0,0.0,0.0,0.0,0.0,0.0,0.0,0.0,0.0,0.0,0.0,0.0,0.0,0.0,0.0,0.0,0.0,0.0,0.0,0.0,0.0,0.0,0.0,0.0,0.0,0.0,0.0,0.0,0.0,0.0,0.0,0.0,0.0,0.0,0.0,0.0,0.0,0.0,0.0,0.0,0.0,0.0,0.0,0.0,0.0,0.0,0.0,0.0,0.0,0.0,0.0,0.0,3.9686,4.3916,4.6278,4.6373,4.4158,4.2633,0.0,0.0,0.0,0.0,0.0,0.0,0.0,0.0,0.0,0.0,0.0,0.0,0.0,0.0,0.0,0.0,0.0,0.0,0.0,0.0,0.0,0.0,0.0,0.0,0.0,0.0,0.0,0.0,0.0,0.0,0.0,0.0,0.0,0.0,0.0,0.0,0.0,0.0,0.0,0.0,0.0,0.0,0.0,0.0,0.0,0.0,0.0,0.0,0.0,0.0,0.0,0.0,0.0,0.0,0.0,0.0,0.0,0.0,0.0,0.0,0.0,0.0,0.0,0.0,0.0,0.0,0.0,0.0,0.0,0.0,0.0,0.0,0.0,0.0,0.0,0.0,0.0,0.0,0.0,0.0,0.0,0.0,0.0,0.0,0.0,0.0,0.0,0.0,0.0,0.0,0.0,0.0,0.0,0.0,0.0,0.0,0.0,0.0,0.0,0.0,0.0,0.0,0.0,0.0,0.0,0.0,0.0,0.0,0.0,4.0771,4.486,4.724,4.7416,4.4772,4.3033,4.2386,0.0,0.0,0.0,0.0,0.0,0.0,0.0,0.0,0.0,0.0,0.0,0.0,0.0,0.0,0.0,0.0,0.0,0.0,0.0,0.0,0.0,0.0,0.0,0.0,0.0,0.0,0.0,0.0,0.0,0.0,0.0,0.0,0.0,0.0,0.0,0.0,0.0,0.0,0.0,0.0,0.0,0.0,0.0,0.0,0.0,0.0,0.0,0.0,0.0,0.0,0.0,0.0,0.0,0.0,0.0,0.0,0.0,0.0,0.0,0.0,0.0,0.0,0.0,0.0,0.0,0.0,0.0,0.0,0.0,0.0,0.0,0.0,0.0,0.0,0.0,0.0,0.0,0.0,0.0,0.0,0.0,0.0,0.0,0.0,0.0,0.0,0.0,0.0,0.0,0.0,0.0,0.0,0.0,0.0,0.0,0.0,0.0,0.0,0.0,0.0,0.0,0.0,0.0,0.0,0.0,0.0,0.0,0.0,4.3991,4.7787,4.9189,4.7855,4.5803,4.3464,0.0,0.0,0.0,0.0,0.0,0.0,0.0,0.0,0.0,0.0,0.0,0.0,0.0,0.0,0.0,0.0,0.0,0.0,0.0,0.0,0.0,0.0,0.0,0.0,0.0,0.0,0.0,0.0,0.0,0.0,0.0,0.0,0.0,0.0,0.0,0.0,0.0,0.0,0.0,0.0,0.0,0.0,0.0,0.0,0.0,0.0,0.0,0.0,0.0,0.0,0.0,0.0,0.0,0.0,0.0,0.0,0.0,0.0,0.0,0.0,0.0,0.0,0.0,0.0,0.0,0.0,0.0,0.0,0.0,0.0,0.0,0.0,0.0,0.0,0.0,0.0,0.0,0.0,0.0,0.0,0.0,0.0,0.0,0.0,0.0,0.0,0.0,0.0,0.0,0.0,0.0,0.0,0.0,0.0,0.0,0.0,0.0,0.0,0.0,0.0,0.0,0.0,0.0,0.0,0.0,0.0,0.0,0.0,0.0,4.5568,4.92,5.0887,5.0284,4.7569,4.528,0.0,0.0,0.0,0.0,0.0,0.0,0.0,0.0,0.0,0.0,0.0,0.0,0.0,0.0,0.0,0.0,0.0,0.0,0.0,0.0,0.0,0.0,0.0,0.0,0.0,0.0,0.0,0.0,0.0,0.0,0.0,0.0,0.0,0.0,0.0,0.0,0.0,0.0,0.0,0.0,0.0,0.0,0.0,0.0,0.0,0.0,0.0,0.0,0.0,0.0,0.0,0.0,0.0,0.0,0.0,0.0,0.0,0.0,0.0,0.0,0.0,0.0,0.0,0.0,0.0,0.0,0.0,0.0,0.0,0.0,0.0,0.0,0.0,0.0,0.0,0.0,0.0,0.0,0.0,0.0,0.0,0.0,0.0,0.0,0.0,0.0,0.0,0.0,0.0,0.0,0.0,0.0,0.0,0.0,0.0,0.0,0.0,0.0,0.0,0.0,0.0,0.0,0.0,0.0,0.0,0.0,0.0,0.0,4.5324,4.7595,5.0314,5.1938,5.2417,5.0134,4.7856,0.0,0.0,0.0,0.0,0.0,0.0,0.0,0.0,0.0,0.0,0.0,0.0,0.0,0.0,0.0,0.0,0.0,0.0,0.0,0.0,0.0,0.0,0.0,0.0,0.0,0.0,0.0,0.0,0.0,0.0,0.0,0.0,0.0,0.0,0.0,0.0,0.0,0.0,0.0,0.0,0.0,0.0,0.0,0.0,0.0,0.0,0.0,0.0,0.0,0.0,0.0,0.0,0.0,0.0,0.0,0.0,0.0,0.0,0.0,0.0,0.0,0.0,0.0,0.0,0.0,0.0,0.0,0.0,0.0,0.0,0.0,0.0,0.0,0.0,0.0,0.0,0.0,0.0,0.0,0.0,0.0,0.0,0.0,0.0,0.0,0.0,0.0,0.0,0.0,0.0,0.0,0.0,0.0,0.0,0.0,0.0,0.0,0.0,0.0,0.0,0.0,0.0,0.0,0.0,0.0,0.0,0.0,0.0,4.7188,4.9835,5.1159,5.2567,5.4094,5.2847,5.0505,0.0,0.0,0.0,0.0,0.0,0.0,0.0,0.0,0.0,0.0,0.0,0.0,0.0,0.0,0.0,0.0,0.0,0.0,0.0,0.0,0.0,0.0,0.0,0.0,0.0,0.0,0.0,0.0,0.0,0.0,0.0,0.0,0.0,0.0,0.0,0.0,0.0,0.0,0.0,0.0,0.0,0.0,0.0,0.0,0.0,0.0,0.0,0.0,0.0,0.0,0.0,0.0,0.0,0.0,0.0,0.0,0.0,0.0,0.0,0.0,0.0,0.0,0.0,0.0,0.0,0.0,0.0,0.0,0.0,0.0,0.0,0.0,0.0,0.0,0.0,0.0,0.0,0.0,0.0,0.0,0.0,0.0,0.0,0.0,0.0,0.0,0.0,0.0,0.0,0.0,0.0,0.0,0.0,0.0,0.0,0.0,0.0,0.0,0.0,0.0,0.0,0.0,0.0,0.0,0.0,0.0,0.0,0.0,4.9035,5.1221,5.2082,5.3559,5.5747,5.335,5.0682,0.0,0.0,0.0,0.0,0.0,0.0,0.0,0.0,0.0,0.0,0.0,0.0,0.0,0.0,0.0,0.0,0.0,0.0,0.0,0.0,0.0,0.0,0.0,0.0,0.0,0.0,0.0,0.0,0.0,0.0,0.0,0.0,0.0,0.0,0.0,0.0,0.0,0.0,0.0,0.0,0.0,0.0,0.0,0.0,0.0,0.0,0.0,0.0,4.6142,0.0,0.0,0.0,0.0,0.0,0.0,0.0,0.0,0.0,0.0,0.0,0.0,0.0,0.0,0.0,0.0,0.0,0.0,0.0,0.0,0.0,0.0,0.0,0.0,0.0,0.0,0.0,0.0,0.0,0.0,0.0,0.0,0.0,0.0,0.0,0.0,0.0,0.0,0.0,0.0,0.0,0.0,0.0,0.0,0.0,0.0,0.0,0.0,0.0,0.0,0.0,0.0,0.0,0.0,0.0,0.0,0.0,0.0,0.0,5.0574,5.2575,5.3734,5.4932,5.6192,5.5239,5.3198,0.0,0.0,0.0,0.0,0.0,0.0,0.0,0.0,0.0,0.0,0.0,0.0,0.0,0.0,0.0,0.0,0.0,0.0,0.0,0.0,0.0,0.0,0.0,0.0,0.0,0.0,0.0,0.0,0.0,0.0,0.0,0.0,0.0,0.0,0.0,0.0,0.0,0.0,0.0,0.0,0.0,0.0,0.0,0.0,0.0,0.0,0.0,0.0,0.0,0.0,0.0,0.0,0.0,0.0,0.0,0.0,0.0,0.0,0.0,0.0,0.0,0.0,0.0,0.0,0.0,0.0,0.0,0.0,0.0,0.0,0.0,0.0,0.0,0.0,0.0,0.0,0.0,0.0,0.0,0.0,0.0,0.0,0.0,0.0,0.0,0.0,0.0,0.0,0.0,0.0,0.0,0.0,0.0,0.0,0.0,0.0,0.0,0.0,0.0,0.0,0.0,0.0,0.0,0.0,0.0,0.0,0.0,4.9404,5.1682,5.3929,5.535,5.6217,5.6459,5.727,5.6029,5.2436,0.0,0.0,0.0,0.0,0.0,0.0,0.0,0.0,0.0,0.0,0.0,0.0,0.0,0.0,0.0,0.0,0.0,0.0,0.0,0.0,0.0,0.0,0.0,0.0,0.0,0.0,0.0,0.0,0.0,0.0,0.0,0.0,0.0,0.0,0.0,0.0,0.0,0.0,4.3494,4.6111,0.0,0.0,0.0,0.0,0.0,0.0,0.0,0.0,4.9404,0.0,0.0,0.0,0.0,0.0,0.0,0.0,0.0,0.0,0.0,0.0,0.0,0.0,0.0,0.0,0.0,0.0,0.0,0.0,0.0,0.0,0.0,0.0,0.0,0.0,0.0,0.0,0.0,0.0,0.0,0.0,0.0,0.0,0.0,0.0,0.0,0.0,0.0,0.0,0.0,0.0,0.0,0.0,0.0,0.0,0.0,0.0,0.0,0.0,0.0,0.0,0.0,0.0,0.0,0.0,0.0,4.9928,4.9928,5.1652,5.5253,5.582,5.6439,5.7096,5.7493,5.6029,5.247,0.0,0.0,0.0,0.0,0.0,0.0,0.0,0.0,0.0,0.0,0.0,0.0,0.0,0.0,0.0,0.0,0.0,0.0,0.0,0.0,0.0,0.0,0.0,0.0,0.0,0.0,0.0,0.0,0.0,0.0,0.0,0.0,0.0,0.0,0.0,0.0,0.0,0.0,0.0,4.8758,5.0266,0.0,0.0,0.0,0.0,0.0,0.0,0.0,0.0,4.9743,0.0,0.0,0.0,0.0,0.0,0.0,0.0,0.0,0.0,0.0,0.0,0.0,0.0,0.0,0.0,0.0,0.0,0.0,0.0,0.0,0.0,0.0,0.0,0.0,0.0,0.0,0.0,0.0,0.0,0.0,0.0,0.0,0.0,0.0,0.0,0.0,0.0,0.0,0.0,0.0,0.0,0.0,0.0,0.0,0.0,0.0,0.0,0.0,0.0,0.0,0.0,0.0,0.0,0.0,0.0,5.0203,5.2219,5.4675,5.7575,5.7956,5.805,5.801,5.6768,5.4554,0.0,0.0,0.0,0.0,0.0,0.0,0.0,0.0,0.0,0.0,0.0,0.0,0.0,0.0,0.0,0.0,0.0,0.0,0.0,0.0,0.0,0.0,0.0,0.0,0.0,0.0,0.0,0.0,0.0,0.0,0.0,0.0,0.0,0.0,0.0,0.0,0.0,0.0,0.0,0.0,4.885,5.042,5.1128,0.0,0.0,0.0,0.0,0.0,0.0,4.9743,5.0082,0.0,0.0,0.0,0.0,0.0,0.0,0.0,0.0,0.0,0.0,0.0,0.0,0.0,0.0,0.0,0.0,0.0,0.0,0.0,0.0,0.0,0.0,0.0,0.0,0.0,0.0,0.0,0.0,0.0,0.0,0.0,0.0,0.0,0.0,0.0,0.0,0.0,0.0,0.0,0.0,0.0,0.0,0.0,0.0,0.0,0.0,0.0,0.0,0.0,0.0,0.0,0.0,0.0,0.0,0.0,5.0274,5.4035,5.7135,5.9469,5.9792,5.9521,5.8694,5.6466,5.3687,0.0,0.0,0.0,0.0,0.0,0.0,0.0,0.0,0.0,0.0,0.0,0.0,0.0,0.0,0.0,0.0,0.0,0.0,0.0,0.0,0.0,0.0,0.0,0.0,0.0,0.0,0.0,0.0,0.0,0.0,0.0,0.0,0.0,0.0,0.0,0.0,0.0,0.0,0.0,0.0,0.0,5.0851,5.1221,5.1282,0.0,0.0,0.0,0.0,4.9312,5.034,0.0,0.0,0.0,0.0,0.0,0.0,0.0,0.0,0.0,0.0,0.0,0.0,0.0,0.0,0.0,0.0,0.0,0.0,0.0,0.0,0.0,0.0,0.0,0.0,0.0,0.0,0.0,0.0,0.0,0.0,0.0,0.0,0.0,0.0,0.0,0.0,0.0,0.0,0.0,0.0,0.0,0.0,0.0,0.0,0.0,0.0,0.0,0.0,0.0,0.0,0.0,0.0,0.0,0.0,0.0,0.0,5.0898,5.3376,5.6237,5.9404,5.9792,5.9521,5.8727,5.7909,5.5245,0.0,0.0,0.0,0.0,0.0,0.0,0.0,0.0,0.0,0.0,0.0,0.0,0.0,0.0,0.0,0.0,0.0,0.0,0.0,0.0,0.0,0.0,0.0,0.0,0.0,0.0,0.0,0.0,0.0,0.0,0.0,0.0,0.0,0.0,0.0,0.0,0.0,0.0,0.0,0.0,0.0,5.3098,5.0328,5.1898,5.316,0.0,0.0,5.1436,5.1374,5.2167,0.0,0.0,0.0,0.0,0.0,0.0,0.0,0.0,0.0,0.0,0.0,0.0,0.0,0.0,0.0,0.0,0.0,0.0,0.0,0.0,0.0,0.0,0.0,0.0,0.0,0.0,0.0,0.0,0.0,0.0,0.0,0.0,0.0,0.0,0.0,0.0,0.0,0.0,0.0,0.0,0.0,0.0,0.0,0.0,0.0,0.0,0.0,0.0,0.0,0.0,0.0,0.0,0.0,0.0,0.0,4.9625,5.1915,5.5691,5.8806,6.106,6.0537,6.0035,5.9665,5.6667,5.3409,0.0,0.0,0.0,0.0,0.0,0.0,0.0,0.0,0.0,0.0,0.0,0.0,0.0,0.0,0.0,0.0,0.0,0.0,0.0,0.0,0.0,0.0,0.0,0.0,0.0,0.0,0.0,0.0,0.0,0.0,0.0,0.0,0.0,0.0,0.0,0.0,0.0,0.0,0.0,0.0,0.0,0.0,5.3636,5.4989,0.0,0.0,0.0,5.1982,5.2427,0.0,0.0,0.0,0.0,0.0,0.0,0.0,0.0,0.0,0.0,0.0,0.0,0.0,0.0,0.0,0.0,0.0,0.0,0.0,0.0,0.0,0.0,0.0,0.0,0.0,0.0,0.0,0.0,0.0,0.0,0.0,0.0,0.0,0.0,0.0,0.0,0.0,0.0,0.0,0.0,0.0,0.0,0.0,0.0,0.0,0.0,0.0,0.0,0.0,0.0,0.0,0.0,0.0,0.0,0.0,0.0,0.0,5.2971,5.7535,6.0808,6.2436,6.1401,6.0693,6.0421,5.6269,0.0,0.0,0.0,0.0,0.0,0.0,0.0,0.0,0.0,0.0,0.0,0.0,0.0,0.0,0.0,0.0,0.0,0.0,0.0,0.0,0.0,0.0,0.0,0.0,0.0,0.0,0.0,4.5121,0.0,0.0,0.0,0.0,0.0,0.0,0.0,0.0,0.0,0.0,0.0,0.0,0.0,0.0,5.5477,5.6852,5.7946,5.8558,0.0,0.0,5.3636,5.4014,5.4039,5.3471,0.0,0.0,0.0,0.0,0.0,0.0,0.0,0.0,0.0,0.0,0.0,0.0,0.0,0.0,0.0,0.0,0.0,0.0,0.0,0.0,0.0,0.0,0.0,0.0,0.0,0.0,0.0,0.0,0.0,0.0,0.0,0.0,0.0,0.0,0.0,0.0,0.0,0.0,0.0,0.0,0.0,0.0,0.0,0.0,0.0,0.0,0.0,0.0,0.0,0.0,0.0,0.0,0.0,0.0,0.0,5.3916,5.7703,6.0742,6.2825,6.2176,6.1425,6.0674,5.8353,5.4764,0.0,0.0,0.0,0.0,0.0,0.0,0.0,0.0,0.0,0.0,0.0,0.0,0.0,0.0,0.0,0.0,0.0,0.0,0.0,0.0,0.0,0.0,0.0,0.0,0.0,0.0,0.0,0.0,0.0,0.0,0.0,0.0,0.0,0.0,0.0,0.0,0.0,0.0,0.0,0.0,0.0,5.8683,5.833,5.9915,6.0912,0.0,0.0,5.7479,5.6849,5.7437,5.6843,5.3452,0.0,0.0,0.0,0.0,0.0,0.0,0.0,0.0,0.0,0.0,0.0,0.0,0.0,0.0,0.0,0.0,0.0,0.0,0.0,0.0,0.0,0.0,0.0,0.0,0.0,0.0,0.0,0.0,0.0,0.0,0.0,0.0,0.0,0.0,0.0,0.0,0.0,0.0,0.0,0.0,0.0,0.0,0.0,0.0,0.0,0.0,0.0,0.0,0.0,0.0,0.0,0.0,0.0,5.2957,5.5303,5.9373,6.2401,6.4148,6.3623,6.3165,6.2885,6.0247,5.7068,0.0,0.0,0.0,0.0,0.0,0.0,0.0,0.0,0.0,0.0,0.0,0.0,0.0,0.0,0.0,0.0,0.0,0.0,0.0,0.0,0.0,0.0,0.0,0.0,0.0,0.0,0.0,0.0,5.0746,5.0996,5.0902,0.0,0.0,0.0,0.0,0.0,0.0,0.0,0.0,0.0,0.0,6.1374,6.1936,6.3066,0.0,0.0,6.063,5.907,5.9218,5.8528,5.7406,5.5516,5.4343,0.0,0.0,0.0,0.0,0.0,0.0,0.0,0.0,0.0,0.0,0.0,0.0,0.0,0.0,0.0,0.0,0.0,0.0,0.0,0.0,0.0,0.0,0.0,0.0,0.0,0.0,0.0,0.0,0.0,0.0,0.0,0.0,0.0,0.0,0.0,0.0,0.0,0.0,0.0,0.0,0.0,0.0,0.0,0.0,0.0,0.0,0.0,0.0,0.0,0.0,0.0,0.0,5.4301,5.6862,6.0645,6.3389,6.5163,6.4831,6.4504,6.4219,6.1813,5.9045,0.0,0.0,0.0,0.0,0.0,0.0,0.0,0.0,0.0,0.0,0.0,0.0,0.0,0.0,0.0,0.0,0.0,0.0,0.0,0.0,0.0,0.0,0.0,0.0,0.0,0.0,0.0,0.0,5.3278,5.3261,5.212,0.0,0.0,0.0,0.0,0.0,0.0,0.0,0.0,0.0,0.0,6.4103,6.5005,6.5542,6.561,6.4816,6.2481,6.0906,6.116,6.0405,5.9386,5.7917,0.0,0.0,0.0,0.0,0.0,0.0,0.0,0.0,0.0,0.0,0.0,0.0,0.0,0.0,0.0,0.0,0.0,0.0,0.0,0.0,0.0,0.0,0.0,0.0,0.0,0.0,0.0,0.0,0.0,0.0,5.5996,0.0,0.0,0.0,0.0,0.0,0.0,0.0,0.0,0.0,0.0,0.0,0.0,0.0,0.0,0.0,0.0,0.0,0.0,0.0,0.0,0.0,0.0,5.5401,5.8616,6.1081,6.3372,6.555,6.559,6.526,6.4546,6.2974,6.0682,5.7611,0.0,0.0,0.0,0.0,0.0,0.0,0.0,0.0,0.0,0.0,0.0,0.0,0.0,0.0,0.0,0.0,0.0,0.0,0.0,0.0,0.0,0.0,0.0,0.0,0.0,0.0,5.407,5.4616,5.4144,0.0,0.0,0.0,0.0,0.0,0.0,0.0,0.0,0.0,0.0,6.4493,6.6911,6.6941,6.6941,6.673,6.601,6.4559,6.3319,6.2662,6.3595,6.3563,0.0,0.0,0.0,0.0,0.0,0.0,0.0,0.0,0.0,0.0,0.0,0.0,0.0,0.0,0.0,0.0,0.0,0.0,0.0,0.0,0.0,0.0,0.0,0.0,0.0,0.0,0.0,6.588,6.3527,0.0,0.0,0.0,0.0,0.0,0.0,0.0,0.0,0.0,0.0,0.0,6.6476,6.7283,0.0,0.0,0.0,0.0,0.0,0.0,0.0,0.0,0.0,0.0,0.0,0.0,5.7443,6.0106,6.3366,6.5686,6.6959,6.6996,6.6887,6.6624,6.4558,6.1428,5.7231,0.0,0.0,0.0,0.0,0.0,0.0,0.0,0.0,0.0,0.0,0.0,0.0,0.0,0.0,0.0,0.0,0.0,0.0,0.0,0.0,0.0,0.0,0.0,0.0,0.0,5.6392,0.0,0.0,0.0,0.0,0.0,0.0,0.0,0.0,0.0,0.0,0.0,6.3728,6.426,6.6738,6.8532,6.8497,6.8497,6.8428,0.0,0.0,0.0,0.0,0.0,0.0,0.0,0.0,0.0,0.0,0.0,0.0,0.0,0.0,6.6177,6.1152,5.9007,5.7809,5.7294,0.0,0.0,0.0,0.0,0.0,0.0,0.0,0.0,0.0,0.0,0.0,0.0,0.0,0.0,7.0064,0.0,6.7234,0.0,0.0,0.0,0.0,0.0,0.0,0.0,0.0,6.926,7.0842,7.1572,7.2092,7.1387,0.0,6.8886,6.5497,0.0,0.0,0.0,0.0,0.0,0.0,0.0,0.0,6.0001,6.237,6.5364,6.732,6.8054,6.7834,6.7687,6.765,6.5888,6.2879,5.8621,5.8217,5.6235,0.0,0.0,0.0,0.0,0.0,0.0,0.0,0.0,0.0,0.0,0.0,0.0,0.0,0.0,0.0,0.0,0.0,0.0,0.0,0.0,0.0,0.0,0.0,5.8201,0.0,0.0,0.0,0.0,0.0,0.0,0.0,0.0,0.0,6.1606,6.5083,6.794,6.8041,6.9468,7.0326,6.9853,0.0,0.0,0.0,0.0,0.0,0.0,0.0,6.6669,6.6635,6.6255,6.5773,6.5186,6.8049,7.0159,6.9049,0.0,0.0,6.5324,6.3048,6.1737,6.1461,6.0978,6.0599,6.0599,5.9456,5.8246,0.0,0.0,0.0,0.0,0.0,0.0,0.0,0.0,7.4335,7.3695,0.0,7.4117,0.0,0.0,0.0,0.0,0.0,6.717,0.0,0.0,7.5695,7.7321,7.6685,7.6609,7.6195,7.5472,7.4773,7.2038,6.7188,6.1348,0.0,0.0,0.0,0.0,0.0,0.0,6.2842,6.5238,6.6916,6.8091,6.8825,6.8091,6.7677,6.7614,6.6916,6.5007,6.1924,6.2401,6.0309,5.4913,5.5265,0.0,0.0,0.0,0.0,0.0,0.0,0.0,0.0,0.0,0.0,0.0,0.0,0.0,0.0,0.0,0.0,0.0,0.0,0.0,0.0,6.0817,0.0,0.0,0.0,0.0,0.0,0.0,0.0,0.0,0.0,0.0,6.8213,7.0123,7.2027,7.2158,0.0,0.0,0.0,0.0,6.9395,6.949,6.8779,6.833,6.829,6.9469,6.9883,6.8497,0.0,0.0,6.6669,6.9814,7.1746,6.8842,7.0084,7.1222,7.0435,6.829,6.6669,6.5945,6.46,6.3738,6.3565,6.2356,6.0937,8.0661,0.0,0.0,0.0,0.0,7.8129,7.9091,8.0906,8.0254,7.9112,7.7631,7.6427,0.0,0.0,0.0,0.0,0.0,0.0,7.3113,7.535,7.6535,7.787,7.9241,7.8073,7.7394,7.713,7.5283,7.3372,7.1244,6.7856,6.3568,5.8584,0.0,0.0,0.0,0.0,6.3686,6.6072,6.776,6.8678,6.8898,6.8128,6.7393,6.688,6.7173,6.6366,6.431,6.4494,6.3025,5.9685,5.8198,0.0,0.0,0.0,0.0,0.0,0.0,0.0,0.0,0.0,0.0,0.0,0.0,0.0,0.0,0.0,0.0,0.0,0.0,0.0,6.0076,6.1159,6.278,0.0,0.0,0.0,0.0,0.0,0.0,0.0,0.0,0.0,7.4977,7.5656,7.5762,0.0,0.0,7.3685,7.319,7.287,7.2616,7.2551,0.0,0.0,0.0,7.134,7.1255,7.138,7.1739,7.1877,7.1608,7.2313,7.2604,7.1505,7.1104,7.0805,7.0435,6.9463,6.8394,6.7601,6.6669,6.5842,6.529,6.4393,6.3287,8.4708,8.0469,8.1355,8.1882,8.1986,8.1382,8.258,8.4894,8.4287,8.355,8.2738,8.1735,7.9187,7.5484,7.2858,0.0,0.0,0.0,7.606,7.8859,7.8555,7.9011,8.0017,7.9067,7.844,7.8002,7.6417,7.5349,7.474,7.2497,6.8993,6.4294,0.0,0.0,6.2256,6.3887,6.5681,6.77,6.8573,6.91,6.9376,6.8274,6.7136,6.6109,6.7153,6.7153,6.5852,6.6507,6.575,6.3272,6.1885,5.9595,0.0,0.0,0.0,0.0,0.0,0.0,0.0,0.0,0.0,0.0,0.0,6.0909,5.922,0.0,0.0,0.0,6.1367,6.2472,6.3653,6.5204,0.0,0.0,0.0,0.0,0.0,0.0,0.0,7.6977,7.8035,7.862,7.9092,7.9386,7.8846,7.6897,7.5794,7.52,7.5231,0.0,7.4576,7.4501,7.4458,7.4343,7.3878,7.3414,7.3175,7.328,7.3627,7.3705,7.356,7.3293,7.3088,7.2901,7.2284,7.1596,7.1197,7.0424,6.948,6.8409,6.7649,6.7031,6.6623,6.5689,6.4546,8.7307,8.4497,8.4235,8.4514,8.4926,8.3421,8.4894,8.8193,8.6659,8.6869,8.825,8.8231,8.5743,8.1288,7.6194,0.0,7.8007,7.7149,7.8632,8.1883,8.1155,8.0476,7.9812,7.9736,7.9236,7.8391,7.79,7.7569,7.7265,7.5431,7.3732,7.2162,6.8357,6.6654,6.7108,6.7605,6.857,6.9924,6.9517,6.9483,6.9908,6.8466,6.6985,6.5551,6.6994,6.7414,6.6622,6.8229,6.8058,6.5767,6.5632,6.3524,5.9063,0.0,0.0,0.0,0.0,0.0,0.0,0.0,0.0,0.0,0.0,0.0,0.0,0.0,0.0,0.0,6.6226,0.0,6.9769,7.1403,0.0,0.0,0.0,7.3138,7.4253,7.678,7.8462,7.8648,0.0,0.0,8.11,0.0,8.1025,7.8685,7.7422,7.6818,7.7065,7.6262,7.5621,7.5718,7.5614,7.5544,7.5334,7.5297,7.5081,7.4647,7.5119,7.4993,7.3889,7.3607,7.3547,7.3421,7.3345,7.2997,7.222,7.1191,7.0204,6.8752,6.7877,6.7465,6.7443,6.6406,6.515,8.6925,8.6217,8.6125,8.6282,8.6448,8.6028,8.6834,8.8346,8.7963,8.7656,8.7388,8.6736,8.5164,8.288,8.1001,8.0536,8.1179,8.0372,8.0443,8.1298,8.1106,8.093,8.0754,8.01,7.9331,7.8485,7.7731,7.7016,7.6332,7.5846,7.5392,7.4948,7.3392,7.1286,6.8961,7.018,7.132,7.2213,7.121,6.9979,6.8609,6.7864,6.7276,6.6905,6.703,6.6941,6.677,6.7434,6.7434,6.6507,6.544,6.4026,6.2203,5.8559,0.0,0.0,0.0,0.0,0.0,0.0,0.0,0.0,0.0,6.5585,6.1997,0.0,6.8315,0.0,6.9192,7.0475,7.1515,7.3064,0.0,0.0,7.8007,7.8415,8.2214,8.0617,7.9911,8.1806,8.2363,8.2326,8.1731,8.1285,8.058,7.9354,7.8443,7.8108,7.8581,7.7939,7.7376,7.728,7.6792,7.6158,7.5682,7.5474,7.568,7.5967,7.5789,7.5371,7.5048,7.5084,7.4975,7.4305,7.3805,7.298,7.1687,7.0649,6.9888,6.9098,6.8524,6.7985,6.7658,6.686,6.599,8.7293,8.6949,8.7331,8.7351,8.7062,8.6585,8.7234,8.8513,8.8513,8.8244,8.7745,8.69,8.5629,8.4105,8.3269,8.267,8.2247,8.1477,8.1093,8.1093,8.1093,8.09,8.0516,8.0015,7.9554,7.9054,7.8207,7.7784,7.7669,7.7323,7.6938,7.6592,7.6476,7.5011,7.2439,7.2356,7.2719,7.338,7.2111,7.0548,6.8749,6.7994,6.715,6.6137,6.6591,6.6332,6.518,6.651,6.6773,6.5765,6.4994,6.4417,6.3873,6.0609,5.8991,0.0,0.0,0.0,0.0,0.0,0.0,0.0,0.0,0.0,0.0,0.0,7.2282,7.2966,7.374,7.497,7.6902,7.7932,7.9688,8.2734,8.1508,8.1545,8.4257,8.2846,8.2066,8.3069,8.3106,8.2771,8.2066,8.1583,8.0802,7.9651,7.9094,7.8954,7.9306,7.924,7.9068,7.8682,7.8223,7.7623,7.6883,7.7039,7.7275,7.7298,7.7039,7.6693,7.6297,7.5771,7.5322,7.5156,7.4654,7.4047,7.3328,7.2279,7.1458,7.1182,7.0138,6.8993,6.8025,6.7258,6.6453,8.7733,8.7004,8.8001,8.7942,8.7169,8.656,8.7169,8.8517,8.8402,8.8363,8.8286,8.7478,8.6286,8.4863,8.3862,8.3016,8.2247,8.1477,8.1093,8.1093,8.1093,8.0708,7.9977,7.9977,7.9939,7.9785,7.9015,7.8938,7.9477,7.8707,7.7992,7.7361,7.7992,7.763,7.6308,7.4526,7.3722,7.3926,7.2717,7.1322,6.9791,6.8808,6.724,6.518,6.6218,6.5744,6.3403,6.5782,6.6424,6.4855,6.5196,6.5419,6.5293,6.3106,6.2401,0.0,6.2389,0.0,0.0,0.0,0.0,0.0,0.0,0.0,0.0,7.5492,7.652,7.8243,7.8913,8.0395,8.3029,8.3587,8.3938,8.4324,8.396,8.3589,8.3403,8.396,8.4072,8.3292,8.3812,8.3663,8.24,8.2066,8.1397,8.0171,7.9762,7.9651,7.9725,8.0097,8.0142,7.9688,7.9539,7.9018,7.8387,7.8777,7.8926,7.8415,7.8227,7.8155,7.7426,7.6303,7.56,7.6046,7.5687,7.5294,7.5768,7.4508,7.3583,7.3261,7.1619,7.0005,6.8847,6.783,6.6917,8.6851,8.6199,8.7733,8.7942,8.7302,8.8513,8.849,8.7594,8.6901,8.6594,8.6517,8.5747,8.5209,8.4786,8.3247,8.2477,8.2247,8.1439,8.1093,8.1093,8.1093,8.1016,8.0862,8.0862,8.0477,7.9823,7.9631,7.8938,7.7784,7.7592,7.7438,7.7323,7.7438,7.7707,7.7977,0.0,0.0,0.0,7.3771,7.3001,7.1692,7.051,6.9315,6.8226,6.6834,0.0,6.4457,6.6445,6.7362,6.672,6.8638,0.0,0.0,0.0,0.0,0.0,0.0,0.0,0.0,0.0,0.0,0.0,7.6249,7.5888,7.5518,7.9037,8.1378,8.1414,8.3261,8.428,8.3881,8.5627,8.6115,8.4614,8.5409,8.5595,8.4369,8.4295,8.4109,8.3292,8.3329,8.3329,8.2994,8.24,8.188,8.1397,8.0914,8.0505,8.0394,8.0022,7.9948,8.0282,7.9911,7.9205,7.8415,7.8462,7.8611,7.8313,7.8295,7.8256,7.808,7.7838,7.7371,7.7133,7.6862,7.6126,7.47,7.3971,7.3546,7.2171,7.1609,7.1019,7.0189,6.8954,6.79,8.7993,0.0,8.7725,8.7435,0.0,8.7602,8.7504,8.6786,8.7209,8.6901,8.6017,8.4786,8.4016,8.3593,8.2708,8.2093,8.167,8.1285,8.1093,8.1093,8.1093,8.1093,8.1093,8.1093,8.0862,8.0439,8.0015,7.9361,7.8515,7.7707,7.7284,7.7284,7.6861,7.7092,7.79,7.8284,7.7762,7.63,7.544,7.4746,7.4006,7.1781,7.0209,6.9404,0.0,0.0,0.0,0.0,0.0,0.0,0.0,0.0,0.0,0.0,0.0,7.0575,7.0613,7.1268,7.2789,7.4074,7.6322,7.9829,8.092,8.069,7.8996,8.1706,8.3541,8.3739,8.468,8.5314,8.5562,8.6448,8.6377,8.5012,8.5254,8.5112,8.4072,8.4146,8.4072,8.3477,8.3886,8.4109,8.3292,8.2846,8.2214,8.1434,8.0617,7.9985,7.9651,7.9874,8.0245,8.0617,8.0022,7.9354,7.8982,7.8871,7.8685,7.8425,7.8304,7.8304,7.8304,7.7942,7.7682,7.7657,7.7451,7.6781,7.6293,7.5739,7.5197,7.4436,7.3707,7.3177,7.2655,7.0947,6.9235,8.9325,8.844,8.8017,8.7248,8.6363,8.6824,8.6748,8.6401,0.0,0.0,0.0,8.4093,8.2978,8.2285,8.2131,8.1708,8.1093,8.1093,8.1093,8.1093,8.1093,8.117,8.1323,8.1323,8.1323,8.1285,8.0746,8.0246,7.9785,7.8554,7.7784,7.7476,7.6938,7.7092,7.7977,7.8631,7.89,7.8631,7.7092,7.6207,7.613,7.3168,7.1206,7.0398,6.9513,6.8282,6.6667,6.8321,6.8898,6.809,6.9129,7.0283,7.1514,7.2399,7.3745,7.5592,7.6746,7.7669,7.8438,7.9477,8.0746,8.2401,8.3978,8.4362,8.3054,8.363,8.45,8.5552,8.519,8.5462,8.6851,8.6832,8.6226,8.5143,8.4965,8.4543,8.357,8.4025,8.4182,8.3507,8.4257,8.4703,8.3403,8.318,8.2697,8.1434,8.0654,7.9539,7.8908,7.9614,8.0431,8.058,8.0171,7.9725,7.9688,7.9502,7.9242,7.8685,7.8453,7.8304,7.8202,7.7719,7.7608,7.8137,7.7719,7.758,7.7914,7.7406,7.7119,7.6978,7.6047,7.52,7.4961,7.315,7.1158,8.9017,8.7709,8.9017,8.8671,8.7363,8.9556,8.9248,8.7171,8.5978,8.5286,8.4939,8.3247,8.2401,8.2247,8.1554,8.1208,8.1093,8.1093,8.1093,0.0,8.1093,8.1477,8.2131,8.2131,8.2131,8.217,8.2747,8.1939,8.0054,8.0323,7.9823,7.8592,7.8938,7.9669,8.0516,8.0669,8.0362,7.9631,7.7977,7.713,7.7053,7.5168,7.3783,7.2962,7.2091,7.0898,6.9283,7.1475,7.2399,7.1591,7.3707,7.4707,7.4245,7.5014,7.5284,7.5014,7.6399,7.763,7.8477,8.0015,8.1631,8.3247,8.4324,8.5093,8.5478,8.439,8.4604,8.674,8.6171,8.6104,8.6732,8.7197,8.6714,8.5157,8.5923,8.5927,8.4095,8.4438,8.447,8.3409,8.3366,8.3589,8.3292,8.318,8.3069,8.2734,8.1657,8.0951,7.9651,7.9502,7.9948,8.0505,8.0617,8.0505,8.0394,7.9911,7.9465,7.9354,7.8685,7.8304,7.8304,7.8155,7.809,7.8304,7.8155,7.7905,7.7496,7.7209,7.6959,7.6458,7.6066,7.5935,7.5941,7.4978,7.3802,9.008,8.944,8.9325,8.8825,8.8132,8.8363,8.7517,8.5978,8.4747,8.3939,8.3401,8.217,8.167,8.1631,8.1246,8.1093,8.1093,8.1093,8.1093,8.1093,8.1093,8.1516,8.2247,8.2324,8.2554,8.3016,8.3417,8.2978,8.19,8.14,8.0669,7.9939,7.9862,8.0015,8.04,8.0862,8.09,8.0477,7.8823,7.7746,7.7284,7.5592,7.4514,7.413,7.3322,7.2552,7.1822,7.3308,7.4168,7.4245,7.5822,7.6707,7.6784,7.7592,7.7861,7.7553,7.8669,7.9515,7.9862,8.1477,8.2785,8.3516,8.3978,8.4747,8.6017,8.4555,8.3901,8.4555,8.4247,8.4297,8.4969,8.5514,8.5449,8.45,8.5227,8.5352,8.4568,8.4379,8.4229,8.3695,8.3719,8.3663,8.3217,8.318,8.2994,8.2549,8.1508,8.0357,7.9651,7.9502,7.9799,8.0468,8.032,8.0282,8.058,8.0022,7.9391,7.8945,7.8536,7.8341,7.8304,7.8304,7.8304,7.8304,7.8304,7.8165,7.7784,7.7784,7.7533,7.7385,7.7218,7.725,7.7156,7.6656,7.5195,9.1046,9.1021,8.935,8.8504,8.8196,8.6522,8.5406,8.4791,8.3978,8.3016,8.2016,8.1362,8.1093,8.1093,8.1093,8.1093,8.1093,8.1093,8.1093,8.1093,8.1093,8.1554,8.2247,8.2324,8.2747,8.3555,8.3785,8.3785,8.3478,8.2285,8.1554,8.1285,8.0323,7.9977,8.0362,8.0862,8.1016,8.0746,7.9477,7.84,7.7553,7.5861,7.4976,7.4976,7.4591,7.4361,7.4399,7.513,7.5861,7.6553,7.7207,7.7823,7.8477,7.9323,7.9708,7.9631,8.0516,8.117,8.1439,8.2747,8.3516,8.3324,8.3516,8.3978,8.4709,8.3978,8.3247,8.2901,8.267,8.2785,8.3814,8.4223,8.4289,8.4328,8.451,8.4698,8.4544,8.4183,8.3929,8.3949,8.4115,8.3988,8.3425,8.318,8.2994,8.2288,8.0951,8.0134,8.0059,7.9911,8.0059,8.0357,8.0134,8.0208,8.0728,8.0134,7.9354,7.8611,7.8415,7.8341,7.8304,7.8304,7.8304,7.8304,7.8304,7.8276,7.8304,7.8304,7.823,7.8128,7.8137,7.8211,7.8109,7.7738,7.642,9.0953,9.074,8.9188,8.8,8.7136,8.5556,8.4823,8.4609,8.3907,8.2708,8.1285,8.1131,8.1093,8.1093,8.1093,8.1093,8.1093,8.1093,8.1093,8.1093,8.1093,8.1554,8.2247,8.2324,8.2747,8.3593,8.4324,8.4247,8.3593,8.3362,8.2901,8.2093,8.0592,8.0554,8.1785,8.14,8.0746,7.9939,7.9785,7.9285,7.8376,7.6746,7.5899,7.5899,7.6553,7.6938,7.6784,7.7707,7.8169,7.8246,7.8323,7.84,7.8592,7.9323,7.9477,7.8823,8.0208,8.14,8.2131,8.3054,8.3247,8.2593,8.3131,8.3054,8.1977,8.2208,8.3093,8.3901,8.317,8.2978,8.4555,8.4698,8.4609,8.4648,8.4729,8.4662,8.4289,8.4113,8.4046,8.3888,8.3922,8.3767,8.3272,8.3172,8.3143,8.2994,8.2103,8.15,8.1434,8.0877,8.0468,8.0654,8.0542,8.084,8.1285,8.0468,7.9465,7.9205,7.8722,7.8388,7.8304,7.8304,7.8304,7.8304,7.8304,7.8304,7.8304,7.8304,7.8304,7.8304,7.8304,7.8304,7.8304,7.809,7.7143,9.1298,9.0819,8.9631,8.8346,8.7023,8.5923,8.4882,8.3922,8.3715,8.2631,8.1208,8.1093,8.1093,8.1093,8.1093,8.1093,8.1093,8.1093,8.1093,8.1093,8.1093,8.1516,8.2247,8.2324,8.2747,8.3555,8.3978,8.3939,8.3555,8.3093,8.2401,8.1631,8.0862,8.0939,8.1516,8.1246,8.09,8.0554,8.0092,7.9631,7.9131,7.763,7.6515,7.6092,7.6361,7.6784,7.7246,7.763,7.8246,7.9169,7.9285,7.9515,8.0015,8.0823,8.1131,8.0823,8.14,8.1747,8.1631,8.2362,8.267,8.2324,8.2631,8.2708,8.2593,8.2439,8.2824,8.367,8.2593,8.2285,8.3824,8.367,8.3555,8.3978,8.4132,8.4258,8.4583,8.3887,8.3537,8.3921,8.3776,8.3427,8.3019,8.3077,8.3172,8.3106,8.2511,8.2103,8.1954,8.1248,8.0765,8.0617,8.032,8.0134,8.0394,7.9576,7.8908,7.8759,7.8536,7.8341,7.8304,7.8304,7.8304,7.8304,7.8304,7.8304,7.8304,7.8304,7.8304,7.8304,7.8304,7.8304,7.8304,7.7932,7.7311,9.1352,9.0685,8.9458,8.8021,8.6623,8.589,8.4851,8.3773,8.3588,8.2731,8.1516,8.1439,8.1439,8.14,8.1208,8.1093,8.1093,8.1093,8.1093,8.1093,8.1093,8.1516,8.2247,8.2324,8.2747,8.3555,8.4132,8.4209,8.3862,8.2785,8.1977,8.1477,8.1208,8.1208,8.14,8.1246,8.1093,8.1054,8.0477,8.0054,7.9669,7.8592,7.7476,7.6515,7.6592,7.6976,7.7592,7.7823,7.8631,8.0054,8.0131,8.0439,8.1093,8.1862,8.2324,8.2324,8.2516,8.2285,8.1477,8.2208,8.2554,8.2324,8.2324,8.2477,8.2747,8.2516,8.2708,8.3401,8.2285,8.217,8.3555,8.317,8.3054,8.3824,8.3939,8.4247,8.4714,8.3783,8.3486,8.425,8.4289,8.3991,8.3904,8.4084,8.417,8.3834,8.3177,8.2511,8.2251,8.1657,8.1025,8.0728,8.0022,7.9576,7.9428,7.8908,7.8415,7.8341,7.8304,7.8304,7.8304,7.8304,7.8304,7.8304,7.8304,7.8304,7.8304,7.8304,7.8304,7.8304,7.8304,7.8304,7.8304,7.7756,7.7449,9.0694,9.0375,8.8116,8.6661,8.5531,8.492,8.4554,8.4415,8.3773,8.2973,8.2324,8.2247,8.2247,8.2208,8.1538,8.1131,8.1131,8.1093,8.1093,8.1093,8.1093,8.1516,8.2285,8.2324,8.2747,8.3648,8.4901,8.5324,8.4709,8.317,8.2285,8.2208,8.1554,8.1516,8.1939,8.14,8.1093,8.1054,8.1016,8.0631,7.9939,7.9708,7.8861,7.7515,7.7938,7.8323,7.8554,7.9246,8.0092,8.1016,8.0977,8.1054,8.117,8.19,8.2362,8.2362,8.3054,8.3093,8.2401,8.2901,8.3093,8.2477,8.2362,8.2054,8.1785,8.2247,8.2901,8.3516,8.2824,8.2978,8.4516,8.3978,8.3824,8.4593,8.4786,8.4824,8.4901,8.4099,8.4178,8.4959,8.5148,8.5457,8.6554,8.6555,8.5741,8.5129,8.4554,8.3982,8.3268,8.2495,8.1694,8.0951,8.0208,7.9502,7.9428,7.8796,7.8415,7.8304,7.8304,7.8304,7.8304,7.8304,7.8304,7.8304,7.8304,7.8304,7.8304,7.8304,7.8304,7.8304,7.8304,7.8304,7.8304,7.8276,7.7895,9.0729,8.97,8.8285,8.7156,8.6314,8.6068,8.5493,8.4588,8.437,8.3819,8.3208,8.3131,8.3061,8.3012,8.2704,8.2314,8.1823,8.1323,8.1093,8.1093,8.1093,8.1516,8.2247,8.2324,8.2747,8.3593,8.4209,8.467,8.4786,8.3708,8.3131,8.2978,8.2285,8.1785,8.1516,8.1246,8.1093,8.1093,8.1093,8.0939,8.0669,8.0631,8.0092,7.8977,7.8631,7.9015,8.0131,7.9939,8.0439,8.1785,8.14,8.1093,8.1208,8.2401,8.2862,8.2439,8.3093,8.2978,8.1862,8.2324,8.2631,8.2401,8.2824,8.2978,8.2901,8.3478,8.4093,8.4209,8.3632,8.4093,8.5517,8.4786,8.3939,8.4709,8.4939,8.4978,8.4747,8.417,8.4006,8.4851,8.5283,8.5795,8.6583,8.6449,8.5988,8.5674,8.5177,8.4778,8.4368,8.3507,8.2561,8.2169,8.1174,8.0097,7.9502,7.8824,7.8304,7.8304,7.8304,7.8304,7.8304,7.8304,7.8304,7.8304,7.8304,7.8304,7.8304,7.8304,7.8304,7.8304,7.8304,7.8304,7.8304,7.8128,7.7746,9.0096,8.9218,8.8148,8.7345,8.681,8.6546,8.5896,8.4974,8.5026,8.4669,8.4044,8.4,8.3967,8.3769,8.3538,8.3308,8.2973,8.2221,8.1715,8.1516,8.1477,8.19,8.2593,8.2708,8.317,8.3862,8.3708,8.417,8.4978,8.3862,8.3208,8.3093,8.2324,8.167,8.117,8.1093,8.1093,8.1093,8.1093,8.1093,8.1093,8.1093,8.0862,8.0246,7.9631,7.9708,8.0669,8.0631,8.0939,8.1708,8.1362,8.1208,8.1593,8.3093,8.3516,8.2554,8.3093,8.2862,8.1477,8.1862,8.2324,8.2324,8.2824,8.3247,8.3555,8.4132,8.4439,8.4324,8.4016,8.4516,8.567,8.5016,8.4478,8.544,8.5709,8.5555,8.5286,8.4516,8.4516,8.5274,8.6156,8.6738,8.7198,8.7409,8.7192,8.6669,8.6074,8.5788,8.5635,8.4309,8.3331,8.3294,8.196,8.0805,8.0098,7.9382,7.8601,7.849,7.8341,7.8304,7.8304,7.8304,7.8304,7.8304,7.8304,7.8304,7.8304,7.8304,7.8304,7.8304,7.8304,7.8304,7.8128,7.7905,7.7608,8.8606,8.8988,8.7498,8.6905,8.6734,8.6046,8.5647,8.5647,8.5702,8.5294,8.4784,8.4852,8.4796,8.4575,8.3982,8.3909,8.4279,8.3717,8.2995,8.2346,8.2324,8.2785,8.3555,8.3593,8.4055,8.4824,8.4093,8.4555,8.5901,8.3978,8.2785,8.2362,8.1862,8.1439,8.1093,8.1093,8.1093,8.1131,8.117,8.117,8.1093,8.117,8.1131,8.1054,8.0977,8.0669,8.0015,8.1323,8.1747,8.1285,8.1208,8.1516,8.2401,8.3824,8.4055,8.2824,8.3131,8.267,8.1477,8.19,8.2324,8.2439,8.2401,8.2978,8.3824,8.3862,8.3901,8.4016,8.3901,8.417,8.5016,8.517,8.5593,8.7055,8.7171,8.694,8.6286,8.5478,8.5209,8.6077,8.7351,8.8556,8.8853,8.9209,8.9124,8.803,8.7306,8.6872,8.6644,8.5025,8.3899,8.3715,8.2972,8.193,8.0997,8.0051,7.9335,7.8703,7.8453,7.8304,7.8304,7.8304,7.8304,7.8304,7.8304,7.8304,7.8304,7.8304,7.8304,7.8304,7.8304,7.8341,7.8165,7.8016,7.7793,8.8262,8.8415,8.7918,8.7345,8.681,8.6505,8.6144,8.5705,8.5704,8.5662,8.5595,8.5647,8.5574,8.5448,8.5161,8.5146,8.534,8.5087,8.4331,8.3303,8.3176,8.367,8.4362,8.4516,8.4939,8.5593,8.5478,8.5863,8.6478,8.5517,8.467,8.4055,8.3208,8.2208,8.117,8.1093,8.1093,8.117,8.167,8.167,8.1246,8.1631,8.167,8.1208,8.1631,8.1516,8.0785,8.1208,8.1593,8.1862,8.1939,8.2324,8.3131,8.367,8.3747,8.3247,8.2824,8.2554,8.2093,8.217,8.2631,8.3054,8.3208,8.3939,8.5016,8.4786,8.4747,8.5093,8.4863,8.5016,8.6247,8.6632,8.6863,8.7363,8.794,8.8132,8.7709,8.7555,8.7055,8.6517,8.8094,8.9133,8.8979,8.955,8.9629,8.8709,8.8017,8.7595,8.6828,8.6083,8.5181,8.518,8.4149,8.327,8.241,8.1691,8.1024,8.0053,7.9379,7.8861,7.875,7.8676,7.8601,7.849,7.8453,7.8453,7.8415,7.8304,7.8304,7.8341,7.8378,7.8378,7.8341,7.8192,7.8007,8.811,8.8071,8.7766,8.7498,8.7154,8.6658,8.6257,8.6106,8.6145,8.6087,8.5967,8.6233,8.6312,8.6239,8.622,8.6356,8.6585,8.67,8.6217,8.5155,8.4275,8.4555,8.5324,8.5709,8.5824,8.6055,8.6094,8.6363,8.6824,8.6094,8.5401,8.4824,8.4016,8.2901,8.1708,8.1862,8.1939,8.1708,8.2362,8.2554,8.2247,8.2516,8.2516,8.217,8.2516,8.2324,8.167,8.1862,8.1939,8.2016,8.2401,8.3054,8.3593,8.4132,8.4401,8.4016,8.3632,8.3285,8.3285,8.3362,8.3478,8.4016,8.4362,8.4901,8.5786,8.5555,8.5593,8.5517,8.5209,8.544,8.6594,8.7209,8.7632,8.8325,8.8517,8.8556,8.8363,8.8517,8.8286,8.7709,8.8517,8.8979,8.9017,8.9363,8.971,8.9175,8.8842,8.8788,8.8098,8.7595,8.7044,8.6529,8.5817,8.4908,8.3991,8.3304,8.2772,8.1657,8.0544,7.9985,7.9576,7.9576,7.9539,7.9205,7.9094,7.9094,7.9056,7.8527,7.8341,7.8378,7.8601,7.8378,7.8304,7.8304,7.8155,8.7995,8.7842,8.7154,8.7231,8.7536,8.6314,8.6046,8.6601,8.6718,8.6356,8.5973,8.6469,8.6948,8.6949,8.6873,8.7197,8.8056,8.8079,8.7982,8.7366,8.6223,8.5654,8.6017,8.6709,8.6709,8.617,8.6209,8.6209,8.6209,8.5555,8.4939,8.4824,8.4132,8.3247,8.2631,8.317,8.3054,8.2593,8.3208,8.3593,8.3478,8.3478,8.3593,8.3555,8.3401,8.3093,8.2785,8.3054,8.2785,8.1823,8.3016,8.3747,8.4055,8.5247,8.5593,8.4978,8.4939,8.4901,8.4939,8.4824,8.4863,8.4978,8.5363,8.6094,8.6017,8.5863,8.5593,8.5286,8.5132,8.5401,8.6286,8.7094,8.8209,8.9479,8.9363,8.8786,8.7863,8.8402,8.8517,8.8479,8.8632,8.8671,8.8594,8.921,8.9594,8.9654,8.956,8.964,8.9776,8.8899,8.842,8.7696,8.6794,8.6064,8.4968,8.435,8.3832,8.3421,8.2334,8.1638,8.0619,8.0395,8.0245,7.9948,7.9725,7.9725,7.9651,7.9205,7.9056,7.9354,7.9168,7.8601,7.8415,7.849,7.8304,8.6772,8.6237,8.6619,8.6581,8.6275,8.6314,8.6199,8.5893,8.5913,8.5992,8.582,8.5934,8.6873,8.7734,8.7217,8.7637,8.8667,8.8556,8.7926,8.7541,8.7668,8.6872,8.6462,8.6978,8.7017,8.6346,8.6769,8.6748,8.6132,8.5923,8.55,8.4901,8.4786,8.417,8.3439,8.3593,8.3478,8.3401,8.4132,8.4286,8.3824,8.3747,8.3939,8.4439,8.3439,8.3362,8.3978,8.3785,8.3824,8.3978,8.4247,8.4863,8.5363,8.594,8.6132,8.594,8.5824,8.5824,8.5824,8.5824,8.5824,8.5709,8.5709,8.5478,8.6055,8.5555,8.5478,8.5593,8.5824,8.6132,8.6978,8.7863,8.8863,8.971,9.0171,9.0056,8.9363,8.9402,8.9171,8.8094,8.8363,8.8363,8.8325,8.8517,8.9094,8.9133,8.921,8.9325,8.971,8.9479,8.872,8.7948,8.7131,8.6596,8.5989,8.534,8.4968,8.4961,8.4332,8.3688,8.2343,8.1129,8.0824,8.0505,8.0282,8.0208,8.0357,8.0245,8.0357,8.0282,7.9799,7.9242,7.8945,7.8871,7.8462,8.7154,8.6084,8.6581,8.6485,8.6161,8.6599,8.6734,8.6619,8.6581,8.6621,8.6718,8.6718,8.7445,8.8573,8.8535,8.9164,9.0194,8.997,8.9591,8.9248,8.9091,8.8336,8.7602,8.8004,8.7948,8.7204,8.755,8.7512,8.7089,8.674,8.6488,8.6466,8.6077,8.5478,8.4824,8.544,8.5286,8.5055,8.5786,8.6209,8.5786,8.5747,8.5978,8.6209,8.5132,8.4939,8.5324,8.4901,8.4786,8.4978,8.5247,8.5786,8.6594,8.7017,8.7171,8.7209,8.7209,8.7209,8.7209,8.7209,8.7209,8.7132,8.6709,8.6555,8.6594,8.617,8.617,8.6055,8.6094,8.6709,8.7863,8.9017,8.9863,9.0441,9.0902,9.071,8.9556,8.9633,8.944,8.8786,8.8556,8.8709,8.8402,8.8632,8.8825,8.9133,8.9363,8.9594,8.9863,8.9402,8.8979,8.8363,8.7825,8.7389,8.7162,8.6639,8.6451,8.6432,8.6118,8.5538,8.4627,8.2909,8.2393,8.209,8.1336,8.0897,8.1317,8.1391,8.0914,8.0691,8.0282,7.9874,7.9502,7.8982,7.8611,8.8262,8.681,8.681,8.6714,8.6658,8.6963,8.7384,8.7842,8.8033,8.8071,8.7977,8.8033,8.8512,8.9485,8.9735,9.0861,9.1816,9.1441,9.1503,9.0971,9.0321,8.9281,8.9168,8.9261,8.8994,8.8383,8.8461,8.848,8.8153,8.7633,8.7822,8.7896,8.762,8.7115,8.6632,8.7594,8.7555,8.6632,8.7286,8.7709,8.7517,8.7478,8.7555,8.7748,8.7517,8.6824,8.6594,8.6363,8.6209,8.5517,8.6055,8.6786,8.7555,8.8325,8.8594,8.8671,8.8709,8.8863,8.8671,8.8556,8.8556,8.8286,8.8363,8.8325,8.7517,8.7132,8.694,8.644,8.6247,8.7171,8.8632,9.021,9.0864,9.1056,9.1171,9.0441,8.9402,8.9479,8.9902,8.9825,8.9133,8.9017,8.9171,8.9094,8.8671,8.9056,8.9325,8.971,8.9979,8.994,8.9594,8.9171,8.8709,8.8286,8.8132,8.7944,8.7987,8.799,8.7695,8.7287,8.716,8.5953,8.4972,8.4087,8.2706,8.2398,8.2937,8.264,8.1839,8.1437,8.1261,8.0544,7.9799,7.9131,7.8648,8.7727,8.681,8.681,8.6428,8.6161,8.7842,8.811,8.7231,8.853,8.8721,8.8262,8.8148,8.9027,9.0287,9.0135,9.0708,9.2427,9.1743,9.0923,9.0854,9.0129,9.0398,9.0647,9.032,8.9341,8.9036,8.9823,8.9631,8.8845,8.8845,8.8824,8.8513,8.8472,8.8256,8.8192,8.7979,8.7594,8.7209,8.7632,8.7632,8.7248,8.7171,8.7401,8.7786,8.8171,8.8325,8.8209,8.8132,8.8363,8.8594,8.844,8.8363,8.8709,8.9286,8.944,8.9286,8.9979,9.0094,8.9133,8.9171,8.9056,8.8132,8.8286,8.8325,8.7517,8.7401,8.7325,8.7132,8.7171,8.7902,8.9363,9.0556,9.1095,9.121,9.121,9.0902,8.9979,8.9787,8.9902,8.9633,8.8748,8.7786,8.7979,8.7632,8.7786,8.8671,8.9325,8.9748,9.0056,9.0364,9.0094,8.9671,8.9056,8.8594,8.8632,8.8671,8.894,8.9133,8.901,8.8709,8.8611,8.7921,8.6556,8.5134,8.3744,8.3801,8.4052,8.3434,8.2526,8.2366,8.2155,8.1381,8.058,7.9687,7.8895,8.8874,8.7422,8.7422,8.6658,8.597,8.7766,8.8224,8.7842,8.9179,8.9676,8.9447,8.9638,9.0135,9.0708,9.1357,9.2427,9.2809,9.2695,9.1994,9.1465,9.0894,9.1009,9.1084,9.0799,9.0206,9.051,9.0987,9.0681,9.0203,8.9707,8.9477,8.9516,8.9245,8.9125,8.935,8.9115,8.9056,8.8825,8.9017,8.894,8.8556,8.8517,8.8055,8.8094,8.844,8.8556,8.8055,8.8902,8.9633,9.0248,9.0479,9.0479,9.0479,9.0825,9.0671,9.0287,9.0979,9.0941,8.9902,8.9556,8.9517,8.8594,8.8363,8.8094,8.7825,8.7671,8.7632,8.7902,8.8094,8.8594,8.9748,9.0671,9.1133,9.1287,9.1556,9.1556,9.1095,9.0441,8.9902,8.9787,8.921,8.8556,8.8055,8.7555,8.7709,8.8979,8.9517,8.9902,9.0364,9.0594,9.0402,8.9979,8.9286,8.894,8.9056,8.9286,8.971,8.9979,9.0213,8.9853,8.9609,8.873,8.7648,8.6354,8.5132,8.4522,8.4551,8.3864,8.3513,8.3614,8.3226,8.2334,8.1569,8.0881,8.0028,9.0096,8.811,8.811,8.7154,8.6123,8.7727,8.8492,8.853,9.0211,9.0822,9.0746,9.1434,9.1128,9.1166,9.2695,9.3421,9.3421,9.3573,9.2967,9.1903,9.1732,9.1465,9.1176,9.1062,9.15,9.2847,9.2143,9.1646,9.1246,9.06,9.026,9.051,9.0187,8.9936,9.0126,9.0485,9.029,8.9752,9.0115,9.0325,9.0325,9.0364,8.9863,8.9171,8.8902,8.8902,8.8863,8.9671,9.0748,9.1556,9.2287,9.2749,9.2979,9.2672,9.2287,9.1479,9.2056,9.1402,9.0171,8.9863,8.9769,8.9748,8.8748,8.8286,8.8556,8.844,8.8402,8.8632,8.8979,8.9248,9.0017,9.0748,9.1133,9.1287,9.1864,9.2287,9.221,9.1133,9.0633,9.0402,8.9902,8.9248,8.9056,8.8786,8.8979,8.9171,8.9633,9.0133,9.0633,9.0787,9.0633,9.0248,8.9594,8.8632,8.8556,8.8748,8.9325,9.0094,9.0594,9.0633,9.0325,8.9875,8.8979,8.7809,8.6788,8.6007,8.5018,8.4231,8.4148,8.462,8.3733,8.2227,8.1844,8.196,8.099,8.9065,8.811,8.811,8.7498,8.704,8.9141,8.9617,8.96,9.1429,9.1816,9.0763,9.1412,9.1315,9.1166,9.1663,9.2542,9.3268,9.3535,9.2984,9.2087,9.1935,9.1743,9.1438,9.1361,9.2028,9.258,9.2198,9.1701,9.1778,9.1531,9.0906,9.0737,9.0568,9.055,9.0455,9.0338,9.0219,9.0045,9.0252,9.0133,8.9863,8.9979,9.0133,8.9594,8.9556,8.9787,9.0479,9.1364,9.2441,9.3172,9.3403,9.421,9.4788,9.4134,9.3249,9.2633,9.2402,9.1787,9.0517,8.994,8.9556,8.9171,8.9056,8.9363,8.9556,8.9556,8.944,8.971,8.9863,9.0094,9.0902,9.1133,9.1171,9.1248,9.1556,9.1941,9.2326,9.2326,9.2056,9.2018,9.1018,8.9923,8.9863,8.9671,8.9517,8.9594,8.994,9.0556,9.1171,9.1171,9.0941,9.0479,8.9902,8.8825,8.794,8.8055,8.8479,8.9479,9.0133,9.0748,9.0671,9.0979,9.0334,8.9131,8.7885,8.6812,8.5819,8.4901,8.4746,8.5144,8.3637,8.1989,8.2124,8.2215,8.1043,8.9844,8.9332,8.8492,8.7842,8.7727,8.8721,8.9146,8.9101,9.0563,9.0905,9.0563,9.0928,9.1331,9.1522,9.2618,9.3573,9.407,9.3917,9.3306,9.2618,9.2465,9.1892,9.1319,9.1204,9.1701,9.1969,9.1625,9.1434,9.1701,9.1319,9.1034,9.077,9.0679,9.0739,9.078,9.0608,9.0395,9.0431,9.0465,9.0364,8.9902,9.0056,8.9885,8.994,8.994,9.0133,9.0556,9.1364,9.2172,9.2903,9.3441,9.4403,9.5057,9.5249,9.4595,9.3826,9.3018,9.2249,9.1171,9.0556,8.971,8.944,8.944,8.9517,8.9787,8.994,9.0287,9.0979,9.1248,9.1402,9.1825,9.1441,9.121,9.1364,9.1864,9.2556,9.3056,9.348,9.3633,9.3518,9.2441,9.1402,9.0594,9.0364,9.0056,9.0094,9.0325,9.0941,9.1672,9.1748,9.1595,9.1402,9.0902,8.994,8.8979,8.8748,8.8748,8.9479,9.0133,9.0748,9.1095,9.1364,9.1133,9.0311,8.9077,8.8094,8.7043,8.6235,8.5987,8.5585,8.471,8.3792,8.3028,8.2263,8.1442,9.0637,9.0084,8.9061,8.8492,8.8356,8.8426,8.8569,8.8829,8.9742,9.0146,9.0093,9.1014,9.1772,9.2302,9.3382,9.449,9.5216,9.4452,9.365,9.3115,9.2733,9.193,9.0975,9.0669,9.0975,9.1357,9.109,9.1013,9.151,9.109,9.0708,9.069,9.0753,9.0794,9.0719,9.103,9.1068,9.1009,9.1082,9.1175,9.0982,9.0521,9.0154,9.0171,9.0171,9.0248,9.0441,9.121,9.1902,9.2595,9.3287,9.4134,9.4903,9.548,9.5595,9.5095,9.3787,9.3095,9.2402,9.171,9.0941,9.0633,8.9902,8.9902,8.9979,9.0441,9.0748,9.1902,9.2095,9.1979,9.1864,9.1595,9.1402,9.171,9.2595,9.3557,9.398,9.4364,9.4788,9.4403,9.3595,9.2864,9.2095,9.1402,9.1133,9.0864,9.1095,9.1287,9.2018,9.2633,9.2633,9.2556,9.2133,9.1287,9.0556,9.0133,9.0133,9.0441,9.0979,9.1556,9.1672,9.1787,9.1441,9.121,9.0979,8.9979,8.8786,8.744,8.6663,8.6146,8.6022,8.5488,8.4523,8.3836,8.3166,9.0042,8.8772,8.985,8.9867,8.9231,8.9338,8.9484,8.9603,9.0497,9.0944,9.0613,9.2153,9.2755,9.2945,9.3033,9.3781,9.4108,9.3803,9.3306,9.3038,9.2389,9.1586,9.0708,9.0631,9.0746,9.1013,9.0784,9.109,9.1434,9.1013,9.0555,9.0593,9.1034,9.1264,9.0541,9.1182,9.149,9.0914,9.0953,9.1046,9.1008,9.0854,9.087,9.0962,9.0979,9.0923,9.0962,9.1577,9.2154,9.2385,9.321,9.4057,9.4711,9.4287,9.498,9.5403,9.5249,9.4364,9.3557,9.2903,9.2326,9.1825,9.1633,9.1595,9.1248,9.1056,9.121,9.121,9.1479,9.1595,9.1672,9.1325,9.1595,9.2056,9.2633,9.3672,9.4403,9.5018,9.5441,9.5557,9.4788,9.4249,9.3595,9.2903,9.2287,9.1979,9.1825,9.2018,9.2518,9.3287,9.3672,9.3595,9.321,9.2402,9.1864,9.1479,9.1441,9.1556,9.1864,9.2326,9.2402,9.2441,9.2249,9.2056,9.1941,9.1633,9.0402,8.8979,8.744,8.6632,8.644,8.6209,8.5885,8.5247,8.4439,8.984,8.9777,8.9497,8.967,8.9897,8.9322,8.9062,8.9291,8.9785,9.0004,9.0097,9.1092,9.1946,9.2489,9.2594,9.3252,9.3966,9.3475,9.3115,9.2902,9.2176,9.1357,9.0784,9.0669,9.0746,9.1013,9.0937,9.1052,9.1281,9.1013,9.044,9.0096,9.0669,9.0631,9.0211,9.0852,9.0969,9.0836,9.0858,9.0972,9.1009,9.0989,9.1064,9.1192,9.121,9.1175,9.1216,9.1351,9.1659,9.1813,9.2427,9.3041,9.3538,9.371,9.4326,9.5288,9.5211,9.4557,9.3787,9.3364,9.2826,9.2095,9.1864,9.1672,9.1787,9.1941,9.2172,9.2633,9.2172,9.1941,9.171,9.1441,9.1787,9.2249,9.2864,9.3826,9.4749,9.5441,9.5903,9.598,9.598,9.5365,9.4595,9.3557,9.2864,9.2595,9.2441,9.2518,9.3403,9.4557,9.4749,9.4672,9.4172,9.3518,9.3095,9.271,9.2749,9.2787,9.2787,9.3133,9.321,9.3172,9.3095,9.3056,9.3018,9.2518,9.1787,9.0364,8.8632,8.7671,8.6824,8.6709,8.6517,8.5517,8.4786,8.922,9.0053,8.9099,8.9289,9.0045,8.8945,8.8538,8.8596,8.8821,8.9002,8.9453,9.0417,9.1459,9.1978,9.2454,9.3138,9.3773,9.3176,9.2916,9.258,9.198,9.1166,9.0746,9.0669,9.0899,9.151,9.0861,9.0937,9.109,9.0899,9.0287,8.9676,9.0746,9.0517,9.0155,9.062,9.1102,9.0719,9.0759,9.0858,9.0953,9.0972,9.1046,9.1118,9.1192,9.1118,9.1046,9.1066,9.1066,9.1183,9.1567,9.2142,9.26,9.3041,9.3692,9.45,9.4767,9.4595,9.4057,9.3633,9.2941,9.2402,9.1864,9.2364,9.2672,9.2826,9.2749,9.3095,9.2749,9.2364,9.2095,9.1479,9.1979,9.2595,9.3326,9.4249,9.5057,9.5711,9.6095,9.6134,9.6172,9.6211,9.5326,9.4134,9.3441,9.3172,9.3095,9.3095,9.4134,9.548,9.5634,9.548,9.4903,9.4364,9.4057,9.3826,9.3903,9.3903,9.3903,9.3941,9.4018,9.4172,9.4249,9.4172,9.398,9.3518,9.2864,9.1325,8.9902,8.9248,8.8556,8.7671,8.7017,8.6094,8.5632,8.7501,8.8151,8.9171,8.9326,8.8996,8.8849,8.8446,8.8158,8.821,8.8683,8.9427,9.1059,9.1492,9.1686,9.2391,9.2862,9.2646,9.2378,9.2379,9.2029,9.1286,9.1009,9.0822,9.0784,9.0822,9.0937,9.0746,9.0669,9.0708,9.0822,9.0555,9.0593,9.0975,9.0975,9.0805,9.0906,9.1138,9.0832,9.0697,9.0758,9.0877,9.0954,9.0991,9.1157,9.1192,9.1157,9.1028,9.0991,9.0953,9.0915,9.1069,9.1433,9.2008,9.2275,9.285,9.3828,9.448,9.4441,9.4287,9.4788,9.5249,9.4711,9.3903,9.3287,9.3595,9.3595,9.3364,9.2864,9.271,9.2133,9.1672,9.1402,9.2095,9.2979,9.3826,9.4672,9.5403,9.5903,9.6249,9.6288,9.6288,9.6288,9.6019,9.4788,9.4287,9.4018,9.3672,9.3672,9.4864,9.6019,9.6211,9.6095,9.5518,9.5057,9.4788,9.4634,9.448,9.4557,9.4672,9.4749,9.4826,9.5018,9.5172,9.4864,9.4595,9.4287,9.3903,9.271,9.171,9.1056,9.021,8.8979,8.8094,8.7363,8.7286,8.7095,8.7427,8.8265,8.8887,8.9299,8.855,8.8354,8.8406,8.8277,8.8639,8.9313,8.9728,8.9936,9.0299,9.1049,9.1785,9.1836,9.2715,9.2531,9.2402,9.2063,9.1811,9.1586,9.1298,9.1586,9.1642,9.1183,9.0975,9.1357,9.0839,9.0631,9.0746,9.0975,9.044,9.0346,9.0864,9.0961,9.0847,9.0673,9.0735,9.0857,9.0915,9.0934,9.1064,9.1082,9.0991,9.0858,9.08,9.0799,9.0818,9.0856,9.1222,9.1567,9.1663,9.2372,9.3445,9.4136,9.4518,9.5018,9.5365,9.5057,9.4403,9.3864,9.3941,9.4364,9.4057,9.3672,9.321,9.2826,9.2364,9.1479,9.1748,9.2479,9.3441,9.4287,9.5095,9.5711,9.6134,9.6288,9.6288,9.6288,9.6288,9.5942,9.5441,9.5134,9.4883,9.4518,9.448,9.5557,9.6365,9.6519,9.6634,9.6095,9.5826,9.5557,9.5288,9.498,9.5134,9.5326,9.5365,9.5441,9.5749,9.5826,9.5518,9.5365,9.5249,9.4903,9.421,9.321,9.1979,9.0941,8.994,8.9171,8.8517,8.8325,8.7031,8.7029,8.746,8.8114,8.8776,8.8346,8.8205,8.8219,8.8178,8.827,8.872,8.8535,8.878,8.937,9.0428,9.1074,9.1697,9.2238,9.2258,9.2139,9.1995,9.2023,9.1577,9.1244,9.1073,9.1734,9.1178,9.0622,9.0927,9.0737,9.0648,9.0631,9.0593,9.0326,9.0593,9.0822,9.1243,9.1013,9.0996,9.125,9.1527,9.1087,9.1145,9.126,9.1394,9.1356,9.1392,9.1505,9.1618,9.1597,9.1559,9.1561,9.1604,9.1817,9.2373,9.3179,9.4003,9.4674,9.5365,9.5634,9.5095,9.4864,9.4711,9.4941,9.5018,9.4788,9.4634,9.4095,9.3557,9.2864,9.2056,9.2556,9.3249,9.4134,9.4518,9.5211,9.5826,9.6288,9.6288,9.6288,9.6288,9.6288,9.6172,9.5826,9.548,9.5326,9.5365,9.5326,9.5942,9.6519,9.6673,9.6749,9.6673,9.648,9.6326,9.5711,9.5172,9.5518,9.5711,9.5788,9.5942,9.6211,9.6288,9.598,9.598,9.6211,9.5865,9.5172,9.3903,9.2441,9.1479,9.0556,9.0094,8.944,8.8671,8.6995,8.7031,8.7029,8.7098,8.7398,8.8324,8.8181,8.7427,8.7665,8.7645,8.7507,8.8463,8.9087,8.9487,9.0475,9.1132,9.1412,9.1613,9.1619,9.1479,9.19,9.1248,9.0829,9.0669,9.095,8.9952,9.0096,9.0342,9.019,9.0667,9.0742,9.0899,9.109,9.1013,9.1739,9.2542,9.2504,9.1892,9.1701,9.2129,9.2383,9.1582,9.145,9.1893,9.1912,9.1777,9.2021,9.2401,9.255,9.2584,9.2601,9.2665,9.2727,9.2807,9.3176,9.3621,9.435,9.481,9.5134,9.5826,9.598,9.5865,9.5634,9.5865,9.6095,9.6019,9.5557,9.4749,9.4595,9.4249,9.3864,9.3672,9.4172,9.4557,9.4903,9.5403,9.6019,9.6288,9.6288,9.648,9.6403,9.6288,9.6288,9.6134,9.5749,9.5711,9.598,9.6288,9.6557,9.6596,9.6673,9.6865,9.6903,9.6557,9.6249,9.5711,9.5441,9.5788,9.6095,9.6249,9.6211,9.6249,9.6288,9.6326,9.6288,9.6288,9.6288,9.6134,9.4864,9.3557,9.2095,9.1171,9.0787,9.0287,8.9479,8.6224,8.6261,8.6775,8.7031,8.7137,8.7985,8.8072,8.7595,8.7394,8.72,8.7103,8.7692,8.7802,8.8316,8.9491,9.0372,9.0512,9.195,9.1955,9.1348,9.2216,9.2238,9.1746,9.1369,9.1459,9.1363,9.1221,9.0993,9.1483,9.127,9.1735,9.2083,9.193,9.1739,9.1281,9.1434,9.1395,9.1739,9.1875,9.2164,9.2957,9.2212,9.1965,9.2771,9.2388,9.2327,9.2703,9.3141,9.3272,9.3306,9.3344,9.3327,9.3315,9.3336,9.3611,9.404,9.4713,9.5137,9.5597,9.6211,9.6249,9.6288,9.6288,9.6288,9.6288,9.6288,9.5788,9.5288,9.5134,9.4634,9.3864,9.4326,9.4788,9.498,9.5326,9.5826,9.6288,9.6288,9.6365,9.6749,9.6826,9.6596,9.6519,9.6788,9.6557,9.6365,9.6596,9.6711,9.6942,9.6634,9.6557,9.6865,9.6903,9.6519,9.6172,9.6057,9.5942,9.6211,9.6557,9.6826,9.6711,9.6634,9.6519,9.6673,9.648,9.6288,9.6365,9.6326,9.5865,9.4788,9.3287,9.171,9.0825,9.0517,9.021,8.5967,8.6261,8.6775,8.7031,8.7103,8.7783,8.8113,8.8191,8.7964,8.7839,8.7876,8.7876,8.7949,8.8316,8.9124,8.9821,9.0,9.1306,9.1955,9.1414,9.2379,9.2048,9.1708,9.1794,9.119,9.142,9.1339,9.1183,9.1593,9.1469,9.1735,9.2312,9.2924,9.2236,9.1586,9.151,9.1701,9.2007,9.2143,9.2792,9.3162,9.303,9.2762,9.3145,9.3068,9.278,9.3327,9.3612,9.3688,9.3803,9.3917,9.3917,9.3939,9.4097,9.4352,9.4819,9.5212,9.5637,9.6097,9.6249,9.6288,9.6288,9.6288,9.6288,9.6288,9.6288,9.6057,9.5672,9.5441,9.5134,9.4788,9.5288,9.5365,9.5557,9.5749,9.6249,9.6634,9.6673,9.6788,9.7134,9.7596,9.7288,9.7057,9.7288,9.7442,9.7326,9.725,9.725,9.7211,9.6826,9.648,9.6673,9.6865,9.6557,9.6596,9.6865,9.6788,9.6711,9.7173,9.7711,9.7634,9.7634,9.7326,9.7134,9.7288,9.7288,9.6788,9.6442,9.6134,9.548,9.4403,9.2787,9.1133,9.0941,9.1133,8.6187,8.6885,8.6958,8.6958,8.7135,8.7784,8.8478,8.9145,8.9219,8.9198,8.9271,8.9087,8.894,8.9307,9.0115,9.0372,9.0399,9.1083,9.1161,9.1217,9.1521,9.1134,9.0911,9.0624,9.0915,9.0521,9.0523,9.1456,9.1422,9.1786,9.1909,9.2007,9.2656,9.2351,9.2198,9.1969,9.2083,9.2007,9.2542,9.3268,9.3769,9.3595,9.371,9.3901,9.3748,9.3748,9.4146,9.4452,9.4796,9.5102,9.5407,9.5484,9.5522,9.556,9.5686,9.5832,9.6017,9.6251,9.6597,9.6674,9.648,9.6557,9.648,9.6365,9.6288,9.6288,9.6172,9.6095,9.598,9.6095,9.6172,9.6134,9.6095,9.6134,9.6134,9.6596,9.7096,9.7288,9.7403,9.7827,9.8442,9.8481,9.8288,9.8365,9.825,9.8134,9.7904,9.748,9.7365,9.6942,9.6634,9.6403,9.6557,9.6557,9.6826,9.7519,9.7711,9.7673,9.8481,9.9019,9.8865,9.8634,9.8519,9.8442,9.8519,9.8211,9.7365,9.6826,9.6557,9.5826,9.5095,9.4018,9.2441,9.2518,9.2556,8.4572,8.5343,8.5894,8.6481,8.7176,8.8414,8.9438,8.9995,8.9121,8.8573,8.8536,8.8536,8.872,8.8647,8.9381,8.9711,8.9944,9.0159,9.0333,9.0518,9.0965,9.1324,9.1326,9.1102,9.1357,9.1671,9.19,9.2063,9.2884,9.2941,9.2749,9.2886,9.2656,9.2542,9.2389,9.1854,9.1778,9.1969,9.2618,9.3382,9.4108,9.4032,9.4452,9.4681,9.4299,9.4414,9.4911,9.5064,9.5331,9.5522,9.5598,9.5598,9.5598,9.5637,9.5779,9.6593,9.6856,9.7132,9.7673,9.7443,9.7173,9.7115,9.7077,9.6749,9.6519,9.6365,9.6365,9.6442,9.6326,9.6288,9.6288,9.6288,9.6288,9.6288,9.6326,9.6557,9.7057,9.7557,9.775,9.8711,9.9327,9.9365,9.9211,9.9058,9.8942,9.8865,9.8634,9.8211,9.7711,9.7365,9.6903,9.6673,9.6942,9.7173,9.7711,9.8404,9.8557,9.8788,9.9635,10.0096,9.9673,9.9519,9.9635,9.9596,9.9481,9.8634,9.7557,9.7326,9.7519,9.6596,9.5826,9.4826,9.4057,9.3941,9.3749,8.4829,8.56,8.6077,8.6921,8.7986,8.8647,8.9528,9.0262,8.9564,8.9014,8.8683,8.872,8.8683,8.8793,8.9234,8.9454,8.9487,8.9618,8.9772,9.0275,9.0722,9.092,9.1195,9.1408,9.1649,9.2177,9.2605,9.2571,9.3503,9.4033,9.3994,9.365,9.2962,9.3153,9.3077,9.2274,9.1548,9.1816,9.2351,9.3077,9.3688,9.4261,9.4872,9.5255,9.4758,9.4949,9.5407,9.5407,9.5293,9.5522,9.5598,9.5598,9.5598,9.5637,9.6025,9.6746,9.7002,9.757,9.8152,9.8095,9.7981,9.7885,9.7674,9.7193,9.7001,9.6866,9.6846,9.6865,9.6519,9.6288,9.6288,9.6288,9.6288,9.6288,9.6365,9.6442,9.7019,9.7634,9.8519,9.9558,9.9942,9.9981,9.9904,9.975,9.9827,9.9981,9.9942,9.9558,9.8942,9.8327,9.7673,9.7134,9.7596,9.8057,9.8673,9.9211,9.9442,9.9904,10.0827,10.1058,10.0558,10.0866,10.1366,10.0943,10.025,9.9442,9.8711,9.875,9.8711,9.7634,9.6673,9.598,9.5211,9.4749,9.4518,8.6151,8.6848,8.6995,8.7802,8.9052,8.8536,8.905,9.0335,9.0152,8.9931,8.9271,8.9271,8.9124,8.8977,8.9124,8.9125,8.9077,8.9012,8.9242,8.9893,8.9969,9.0327,9.0852,9.0742,9.14,9.1824,9.2123,9.2436,9.3203,9.3709,9.407,9.4299,9.3841,9.3688,9.3535,9.2121,9.1395,9.1434,9.1739,9.2198,9.3191,9.3955,9.4758,9.5331,9.5102,9.4872,9.5216,9.514,9.4834,9.5331,9.5598,9.5598,9.5598,9.5828,9.6353,9.7008,9.7456,9.8385,9.8912,9.8953,9.89,9.8574,9.8055,9.7863,9.7846,9.7328,9.7193,9.725,9.702,9.6846,9.6865,9.6711,9.6673,9.6442,9.6326,9.648,9.6826,9.775,9.9058,9.9981,10.0481,10.0558,10.0673,10.0558,10.0481,10.0943,10.0712,10.0366,9.9981,9.9211,9.8557,9.7827,9.8365,9.8942,9.9442,9.9981,10.0366,10.0981,10.1981,10.2135,10.1673,10.2327,10.3289,10.2443,10.1481,10.0904,10.0366,9.9904,9.9135,9.8211,9.7403,9.7096,9.6519,9.5788,9.5365,8.5343,8.6151,8.6738,8.7582,8.8426,8.828,8.839,8.8757,8.8757,8.8683,8.85,8.85,8.8536,8.8573,8.861,8.861,8.8527,8.8376,8.8608,8.9123,8.9388,9.0124,9.1081,9.0797,9.1301,9.181,9.2055,9.2057,9.2541,9.3066,9.3382,9.3344,9.3077,9.2924,9.3421,9.1892,9.1166,9.1204,9.1395,9.1969,9.3038,9.3955,9.4758,9.5293,9.5331,9.5293,9.5522,9.5484,9.5369,9.5598,9.5598,9.5598,9.5598,9.621,9.6936,9.7745,9.8347,9.9277,10.0032,9.996,9.9717,9.9853,9.9623,9.9358,9.892,9.7999,9.7539,9.7635,9.7616,9.7462,9.725,9.7096,9.698,9.6634,9.6326,9.648,9.6711,9.8134,9.9558,10.0289,10.0904,10.1135,10.125,10.1289,10.1289,10.1019,10.0519,10.0173,10.0212,9.975,9.9404,9.8904,9.9327,9.9865,10.0366,10.0827,10.1289,10.2135,10.3135,10.3097,10.2789,10.2712,10.2828,10.3135,10.2751,10.1943,10.0981,9.9865,9.9096,9.875,9.8365,9.8096,9.7442,9.6673,9.6288,8.538,8.5857,8.6664,8.7472,8.8059,8.7839,8.7839,8.8096,8.7839,8.7692,8.7766,8.8023,8.8206,8.8206,8.8206,8.8169,8.8056,8.7663,8.7958,8.8413,8.9087,8.9805,9.0342,9.0754,9.1686,9.22,9.2389,9.2465,9.2274,9.2274,9.2542,9.2847,9.2351,9.2198,9.2809,9.1816,9.109,9.1204,9.1357,9.216,9.3077,9.3688,9.4529,9.514,9.5598,9.5598,9.5598,9.5598,9.5598,9.5598,9.5598,9.5598,9.5675,9.5942,9.6898,9.7799,9.8685,9.9686,10.0649,10.0809,10.0339,10.0552,10.0065,9.9436,9.9347,9.849,9.8113,9.8115,9.7712,9.7519,9.6942,9.6634,9.698,9.6903,9.6673,9.6634,9.7557,9.8904,10.0019,10.0827,10.1173,10.1212,10.1289,10.1289,10.1289,10.1289,10.0712,10.0289,10.025,10.025,9.9904,9.9827,10.0173,10.0866,10.1558,10.1943,10.2289,10.3251,10.4174,10.4135,10.3828,10.2712,10.2212,10.2828,10.3058,10.2597,10.1558,10.0712,10.0404,10.0289,9.975,9.9173,9.8404,9.7673,9.7288,8.5673,8.5894,8.6554,8.7325,8.7876,8.7325,8.7399,8.7839,8.7325,8.7068,8.7142,8.7729,8.8023,8.8059,8.8059,8.8059,8.7837,8.7389,8.7497,8.7991,8.8578,8.9386,8.9949,9.0432,9.1321,9.2019,9.2291,9.2351,9.2312,9.2198,9.2274,9.2771,9.2656,9.2351,9.2618,9.2274,9.1625,9.1586,9.1892,9.2695,9.3038,9.3191,9.4185,9.5025,9.5484,9.5522,9.556,9.5598,9.5598,9.5598,9.5598,9.5598,9.5751,9.5981,9.6668,9.7585,9.812,9.922,10.0298,10.0482,10.0649,10.0732,9.9909,9.945,9.9386,9.9036,9.8626,9.8152,9.7731,9.7424,9.6808,9.6769,9.7154,9.7346,9.7115,9.7211,9.8481,9.9558,10.0366,10.1212,10.1289,10.1289,10.1289,10.1289,10.125,10.125,10.1058,10.0673,10.0404,10.0404,10.0289,10.0404,10.0712,10.152,10.2366,10.2597,10.2712,10.3828,10.4597,10.4905,10.4713,10.3289,10.2558,10.2828,10.2904,10.2481,10.2674,10.2251,10.202,10.152,10.0519,9.9712,9.9558,9.8865,9.8327,8.5233,8.582,8.5967,8.6481,8.7142,8.7031,8.7105,8.7178,8.7105,8.7031,8.7068,8.7105,8.7252,8.7252,8.7252,8.7288,8.7399,8.7068,8.7398,8.7929,8.8492,8.9141,8.979,9.0425,9.0759,9.1166,9.1434,9.1204,9.1586,9.1739,9.216,9.2809,9.2924,9.2733,9.2733,9.2236,9.1586,9.151,9.1892,9.2542,9.3038,9.3382,9.4108,9.4681,9.4987,9.5178,9.5369,9.5598,9.5598,9.5598,9.5637,9.5637,9.5828,9.6172,9.6783,9.7509,9.8006,9.8999,9.9939,10.013,10.0467,10.1155,10.0398,9.9542,9.9326,9.8796,9.8308,9.772,9.7419,9.7516,9.7229,9.7654,9.8019,9.7981,9.7846,9.8577,9.9558,10.0019,10.0481,10.1019,10.1289,10.1289,10.1289,10.1212,10.1019,10.0943,10.0712,10.0366,10.025,10.0404,10.0596,10.0789,10.1058,10.175,10.2404,10.2558,10.2904,10.4059,10.4828,10.4789,10.4405,10.352,10.3058,10.302,10.2597,10.2135,10.2443,10.2981,10.2597,10.1904,10.0789,10.0096,10.0135,9.9827,9.9019]}]]